<?xml version="1.0" encoding="UTF-8" standalone="no" ?>
<gpx xmlns="http://www.topografix.com/GPX/1/1" xmlns:xsi="http://www.w3.org/2001/XMLSchema-instance" xsi:schemaLocation="http://www.topografix.com/GPX/1/1 http://www.topografix.com/GPX/1/1/gpx.xsd" version="1.1" creator="VisuGPX - https://www.visugpx.com">
  <metadata>
    <name>Nasbinals / la chaldette </name>
    <desc><![CDATA[ballade en aubrac]]></desc>
  </metadata>
  <trk>
    <name><![CDATA[LA CHALDETTE]]></name>
    <trkseg>
      <trkpt lat="44.66691" lon="3.04092">
        <ele>1127.28</ele>
        <time>2014-06-30T07:05:41Z</time>
      </trkpt>
      <trkpt lat="44.66692" lon="3.04093">
        <ele>1127.28</ele>
        <time>2014-06-30T07:05:42Z</time>
      </trkpt>
      <trkpt lat="44.6669" lon="3.04097">
        <ele>1128.24</ele>
        <time>2014-06-30T07:05:48Z</time>
      </trkpt>
      <trkpt lat="44.66689" lon="3.04097">
        <ele>1132.09</ele>
        <time>2014-06-30T07:05:51Z</time>
      </trkpt>
      <trkpt lat="44.66687" lon="3.04098">
        <ele>1136.9</ele>
        <time>2014-06-30T07:05:54Z</time>
      </trkpt>
      <trkpt lat="44.66687" lon="3.04097">
        <ele>1140.26</ele>
        <time>2014-06-30T07:05:56Z</time>
      </trkpt>
      <trkpt lat="44.66684" lon="3.04098">
        <ele>1144.59</ele>
        <time>2014-06-30T07:05:59Z</time>
      </trkpt>
      <trkpt lat="44.66682" lon="3.04099">
        <ele>1146.99</ele>
        <time>2014-06-30T07:06:01Z</time>
      </trkpt>
      <trkpt lat="44.66679" lon="3.04099">
        <ele>1152.28</ele>
        <time>2014-06-30T07:06:05Z</time>
      </trkpt>
      <trkpt lat="44.66676" lon="3.041">
        <ele>1155.64</ele>
        <time>2014-06-30T07:06:08Z</time>
      </trkpt>
      <trkpt lat="44.66672" lon="3.041">
        <ele>1158.53</ele>
        <time>2014-06-30T07:06:11Z</time>
      </trkpt>
      <trkpt lat="44.66669" lon="3.04101">
        <ele>1161.89</ele>
        <time>2014-06-30T07:06:14Z</time>
      </trkpt>
      <trkpt lat="44.66668" lon="3.04101">
        <ele>1161.89</ele>
        <time>2014-06-30T07:06:15Z</time>
      </trkpt>
      <trkpt lat="44.66662" lon="3.04102">
        <ele>1165.74</ele>
        <time>2014-06-30T07:06:20Z</time>
      </trkpt>
      <trkpt lat="44.66657" lon="3.04103">
        <ele>1169.58</ele>
        <time>2014-06-30T07:06:25Z</time>
      </trkpt>
      <trkpt lat="44.66649" lon="3.04105">
        <ele>1172.95</ele>
        <time>2014-06-30T07:06:32Z</time>
      </trkpt>
      <trkpt lat="44.6664" lon="3.04108">
        <ele>1176.31</ele>
        <time>2014-06-30T07:06:40Z</time>
      </trkpt>
      <trkpt lat="44.66639" lon="3.04108">
        <ele>1176.79</ele>
        <time>2014-06-30T07:06:41Z</time>
      </trkpt>
      <trkpt lat="44.66622" lon="3.04115">
        <ele>1179.67</ele>
        <time>2014-06-30T07:06:56Z</time>
      </trkpt>
      <trkpt lat="44.66606" lon="3.04127">
        <ele>1182.08</ele>
        <time>2014-06-30T07:07:13Z</time>
      </trkpt>
      <trkpt lat="44.66593" lon="3.0414">
        <ele>1183.04</ele>
        <time>2014-06-30T07:07:31Z</time>
      </trkpt>
      <trkpt lat="44.66582" lon="3.04155">
        <ele>1183.04</ele>
        <time>2014-06-30T07:07:48Z</time>
      </trkpt>
      <trkpt lat="44.66569" lon="3.04179">
        <ele>1183.04</ele>
        <time>2014-06-30T07:08:09Z</time>
      </trkpt>
      <trkpt lat="44.66557" lon="3.04207">
        <ele>1183.04</ele>
        <time>2014-06-30T07:08:29Z</time>
      </trkpt>
      <trkpt lat="44.66541" lon="3.04231">
        <ele>1182.08</ele>
        <time>2014-06-30T07:08:48Z</time>
      </trkpt>
      <trkpt lat="44.66529" lon="3.04257">
        <ele>1181.6</ele>
        <time>2014-06-30T07:09:05Z</time>
      </trkpt>
      <trkpt lat="44.66525" lon="3.0427">
        <ele>1181.6</ele>
        <time>2014-06-30T07:09:18Z</time>
      </trkpt>
      <trkpt lat="44.66513" lon="3.04289">
        <ele>1181.12</ele>
        <time>2014-06-30T07:09:32Z</time>
      </trkpt>
      <trkpt lat="44.66497" lon="3.04308">
        <ele>1181.12</ele>
        <time>2014-06-30T07:09:49Z</time>
      </trkpt>
      <trkpt lat="44.66478" lon="3.04326">
        <ele>1181.12</ele>
        <time>2014-06-30T07:10:07Z</time>
      </trkpt>
      <trkpt lat="44.6646" lon="3.04341">
        <ele>1181.12</ele>
        <time>2014-06-30T07:10:25Z</time>
      </trkpt>
      <trkpt lat="44.66441" lon="3.04354">
        <ele>1181.12</ele>
        <time>2014-06-30T07:10:42Z</time>
      </trkpt>
      <trkpt lat="44.66422" lon="3.04371">
        <ele>1181.12</ele>
        <time>2014-06-30T07:11:01Z</time>
      </trkpt>
      <trkpt lat="44.66406" lon="3.04384">
        <ele>1181.12</ele>
        <time>2014-06-30T07:11:18Z</time>
      </trkpt>
      <trkpt lat="44.6639" lon="3.04398">
        <ele>1181.12</ele>
        <time>2014-06-30T07:11:35Z</time>
      </trkpt>
      <trkpt lat="44.66378" lon="3.04407">
        <ele>1181.12</ele>
        <time>2014-06-30T07:11:47Z</time>
      </trkpt>
      <trkpt lat="44.66369" lon="3.04414">
        <ele>1181.12</ele>
        <time>2014-06-30T07:11:56Z</time>
      </trkpt>
      <trkpt lat="44.66361" lon="3.04418">
        <ele>1181.12</ele>
        <time>2014-06-30T07:12:03Z</time>
      </trkpt>
      <trkpt lat="44.66357" lon="3.04421">
        <ele>1181.12</ele>
        <time>2014-06-30T07:12:07Z</time>
      </trkpt>
      <trkpt lat="44.66338" lon="3.04436">
        <ele>1181.12</ele>
        <time>2014-06-30T07:12:26Z</time>
      </trkpt>
      <trkpt lat="44.66322" lon="3.04444">
        <ele>1181.12</ele>
        <time>2014-06-30T07:12:42Z</time>
      </trkpt>
      <trkpt lat="44.66303" lon="3.04458">
        <ele>1181.12</ele>
        <time>2014-06-30T07:13:00Z</time>
      </trkpt>
      <trkpt lat="44.66284" lon="3.0447">
        <ele>1180.64</ele>
        <time>2014-06-30T07:13:18Z</time>
      </trkpt>
      <trkpt lat="44.66269" lon="3.04484">
        <ele>1180.64</ele>
        <time>2014-06-30T07:13:35Z</time>
      </trkpt>
      <trkpt lat="44.66269" lon="3.04492">
        <ele>1180.64</ele>
        <time>2014-06-30T07:13:41Z</time>
      </trkpt>
      <trkpt lat="44.66269" lon="3.04505">
        <ele>1180.64</ele>
        <time>2014-06-30T07:13:52Z</time>
      </trkpt>
      <trkpt lat="44.66269" lon="3.04527">
        <ele>1181.6</ele>
        <time>2014-06-30T07:14:06Z</time>
      </trkpt>
      <trkpt lat="44.66269" lon="3.04533">
        <ele>1181.6</ele>
        <time>2014-06-30T07:14:10Z</time>
      </trkpt>
      <trkpt lat="44.66268" lon="3.04539">
        <ele>1181.6</ele>
        <time>2014-06-30T07:14:14Z</time>
      </trkpt>
      <trkpt lat="44.66268" lon="3.04545">
        <ele>1182.56</ele>
        <time>2014-06-30T07:14:18Z</time>
      </trkpt>
      <trkpt lat="44.66264" lon="3.04555">
        <ele>1182.56</ele>
        <time>2014-06-30T07:14:24Z</time>
      </trkpt>
      <trkpt lat="44.66263" lon="3.04577">
        <ele>1182.56</ele>
        <time>2014-06-30T07:14:40Z</time>
      </trkpt>
      <trkpt lat="44.66267" lon="3.04595">
        <ele>1181.12</ele>
        <time>2014-06-30T07:14:53Z</time>
      </trkpt>
      <trkpt lat="44.66266" lon="3.04611">
        <ele>1180.64</ele>
        <time>2014-06-30T07:15:04Z</time>
      </trkpt>
      <trkpt lat="44.66266" lon="3.04628">
        <ele>1179.67</ele>
        <time>2014-06-30T07:15:18Z</time>
      </trkpt>
      <trkpt lat="44.66264" lon="3.04647">
        <ele>1178.23</ele>
        <time>2014-06-30T07:15:30Z</time>
      </trkpt>
      <trkpt lat="44.66264" lon="3.0465">
        <ele>1177.75</ele>
        <time>2014-06-30T07:15:32Z</time>
      </trkpt>
      <trkpt lat="44.66254" lon="3.04674">
        <ele>1176.31</ele>
        <time>2014-06-30T07:15:50Z</time>
      </trkpt>
      <trkpt lat="44.66245" lon="3.04682">
        <ele>1174.39</ele>
        <time>2014-06-30T07:16:06Z</time>
      </trkpt>
      <trkpt lat="44.66246" lon="3.04681">
        <ele>1174.39</ele>
        <time>2014-06-30T07:16:24Z</time>
      </trkpt>
      <trkpt lat="44.66245" lon="3.04674">
        <ele>1174.39</ele>
        <time>2014-06-30T07:16:40Z</time>
      </trkpt>
      <trkpt lat="44.66246" lon="3.04676">
        <ele>1174.39</ele>
        <time>2014-06-30T07:16:56Z</time>
      </trkpt>
      <trkpt lat="44.66241" lon="3.04678">
        <ele>1174.39</ele>
        <time>2014-06-30T07:17:16Z</time>
      </trkpt>
      <trkpt lat="44.66236" lon="3.04692">
        <ele>1175.83</ele>
        <time>2014-06-30T07:17:37Z</time>
      </trkpt>
      <trkpt lat="44.66236" lon="3.04696">
        <ele>1175.83</ele>
        <time>2014-06-30T07:17:57Z</time>
      </trkpt>
      <trkpt lat="44.66236" lon="3.04698">
        <ele>1175.83</ele>
        <time>2014-06-30T07:17:59Z</time>
      </trkpt>
      <trkpt lat="44.66243" lon="3.0467">
        <ele>1175.83</ele>
        <time>2014-06-30T07:22:48Z</time>
      </trkpt>
      <trkpt lat="44.66238" lon="3.04649">
        <ele>1175.83</ele>
        <time>2014-06-30T07:23:11Z</time>
      </trkpt>
      <trkpt lat="44.66242" lon="3.04643">
        <ele>1175.83</ele>
        <time>2014-06-30T07:23:34Z</time>
      </trkpt>
      <trkpt lat="44.66236" lon="3.04649">
        <ele>1176.31</ele>
        <time>2014-06-30T07:24:02Z</time>
      </trkpt>
      <trkpt lat="44.66232" lon="3.04647">
        <ele>1176.31</ele>
        <time>2014-06-30T07:24:24Z</time>
      </trkpt>
      <trkpt lat="44.66225" lon="3.04646">
        <ele>1176.31</ele>
        <time>2014-06-30T07:24:35Z</time>
      </trkpt>
      <trkpt lat="44.66245" lon="3.04655">
        <ele>1175.35</ele>
        <time>2014-06-30T07:25:46Z</time>
      </trkpt>
      <trkpt lat="44.6626" lon="3.04661">
        <ele>1174.87</ele>
        <time>2014-06-30T07:26:02Z</time>
      </trkpt>
      <trkpt lat="44.66259" lon="3.04656">
        <ele>1176.31</ele>
        <time>2014-06-30T07:26:10Z</time>
      </trkpt>
      <trkpt lat="44.66251" lon="3.04659">
        <ele>1176.79</ele>
        <time>2014-06-30T07:26:20Z</time>
      </trkpt>
      <trkpt lat="44.66252" lon="3.04659">
        <ele>1176.79</ele>
        <time>2014-06-30T07:26:23Z</time>
      </trkpt>
      <trkpt lat="44.66252" lon="3.04659">
        <ele>1175.35</ele>
        <time>2014-06-30T07:26:25Z</time>
      </trkpt>
      <trkpt lat="44.66252" lon="3.04659">
        <ele>1175.35</ele>
        <time>2014-06-30T07:26:26Z</time>
      </trkpt>
      <trkpt lat="44.66258" lon="3.04649">
        <ele>1178.23</ele>
        <time>2014-06-30T07:26:38Z</time>
      </trkpt>
      <trkpt lat="44.66259" lon="3.04645">
        <ele>1179.67</ele>
        <time>2014-06-30T07:26:51Z</time>
      </trkpt>
      <trkpt lat="44.6626" lon="3.04648">
        <ele>1179.67</ele>
        <time>2014-06-30T07:27:03Z</time>
      </trkpt>
      <trkpt lat="44.66259" lon="3.04638">
        <ele>1179.67</ele>
        <time>2014-06-30T07:27:32Z</time>
      </trkpt>
      <trkpt lat="44.66258" lon="3.0464">
        <ele>1180.16</ele>
        <time>2014-06-30T07:27:57Z</time>
      </trkpt>
      <trkpt lat="44.66258" lon="3.04646">
        <ele>1180.16</ele>
        <time>2014-06-30T07:28:21Z</time>
      </trkpt>
      <trkpt lat="44.66262" lon="3.04642">
        <ele>1180.64</ele>
        <time>2014-06-30T07:28:43Z</time>
      </trkpt>
      <trkpt lat="44.66261" lon="3.04643">
        <ele>1180.64</ele>
        <time>2014-06-30T07:29:10Z</time>
      </trkpt>
      <trkpt lat="44.66261" lon="3.04648">
        <ele>1181.6</ele>
        <time>2014-06-30T07:29:28Z</time>
      </trkpt>
      <trkpt lat="44.66259" lon="3.04649">
        <ele>1181.6</ele>
        <time>2014-06-30T07:29:34Z</time>
      </trkpt>
      <trkpt lat="44.66247" lon="3.04631">
        <ele>1182.56</ele>
        <time>2014-06-30T07:29:48Z</time>
      </trkpt>
      <trkpt lat="44.66248" lon="3.04628">
        <ele>1183.04</ele>
        <time>2014-06-30T07:29:58Z</time>
      </trkpt>
      <trkpt lat="44.66259" lon="3.04631">
        <ele>1181.6</ele>
        <time>2014-06-30T07:30:10Z</time>
      </trkpt>
      <trkpt lat="44.66266" lon="3.04633">
        <ele>1181.6</ele>
        <time>2014-06-30T07:30:20Z</time>
      </trkpt>
      <trkpt lat="44.6627" lon="3.0463">
        <ele>1184</ele>
        <time>2014-06-30T07:30:34Z</time>
      </trkpt>
      <trkpt lat="44.66271" lon="3.04632">
        <ele>1184</ele>
        <time>2014-06-30T07:30:59Z</time>
      </trkpt>
      <trkpt lat="44.66259" lon="3.04631">
        <ele>1181.6</ele>
        <time>2014-06-30T07:31:16Z</time>
      </trkpt>
      <trkpt lat="44.66256" lon="3.04649">
        <ele>1181.12</ele>
        <time>2014-06-30T07:31:31Z</time>
      </trkpt>
      <trkpt lat="44.66255" lon="3.04652">
        <ele>1180.64</ele>
        <time>2014-06-30T07:31:49Z</time>
      </trkpt>
      <trkpt lat="44.66255" lon="3.04649">
        <ele>1180.16</ele>
        <time>2014-06-30T07:32:07Z</time>
      </trkpt>
      <trkpt lat="44.66255" lon="3.04646">
        <ele>1180.16</ele>
        <time>2014-06-30T07:32:26Z</time>
      </trkpt>
      <trkpt lat="44.66255" lon="3.0465">
        <ele>1180.16</ele>
        <time>2014-06-30T07:32:45Z</time>
      </trkpt>
      <trkpt lat="44.66258" lon="3.04649">
        <ele>1180.64</ele>
        <time>2014-06-30T07:33:04Z</time>
      </trkpt>
      <trkpt lat="44.66258" lon="3.04644">
        <ele>1180.64</ele>
        <time>2014-06-30T07:33:21Z</time>
      </trkpt>
      <trkpt lat="44.66259" lon="3.04646">
        <ele>1180.64</ele>
        <time>2014-06-30T07:33:38Z</time>
      </trkpt>
      <trkpt lat="44.66256" lon="3.04646">
        <ele>1180.64</ele>
        <time>2014-06-30T07:33:56Z</time>
      </trkpt>
      <trkpt lat="44.66251" lon="3.04647">
        <ele>1180.64</ele>
        <time>2014-06-30T07:34:15Z</time>
      </trkpt>
      <trkpt lat="44.6625" lon="3.0465">
        <ele>1180.64</ele>
        <time>2014-06-30T07:34:29Z</time>
      </trkpt>
      <trkpt lat="44.66251" lon="3.0465">
        <ele>1180.64</ele>
        <time>2014-06-30T07:34:49Z</time>
      </trkpt>
      <trkpt lat="44.66251" lon="3.04649">
        <ele>1180.64</ele>
        <time>2014-06-30T07:35:07Z</time>
      </trkpt>
      <trkpt lat="44.66251" lon="3.04644">
        <ele>1180.64</ele>
        <time>2014-06-30T07:35:32Z</time>
      </trkpt>
      <trkpt lat="44.66252" lon="3.04648">
        <ele>1180.64</ele>
        <time>2014-06-30T07:35:49Z</time>
      </trkpt>
      <trkpt lat="44.66255" lon="3.04654">
        <ele>1181.12</ele>
        <time>2014-06-30T07:36:22Z</time>
      </trkpt>
      <trkpt lat="44.66255" lon="3.04657">
        <ele>1181.12</ele>
        <time>2014-06-30T07:36:43Z</time>
      </trkpt>
      <trkpt lat="44.66256" lon="3.04654">
        <ele>1182.56</ele>
        <time>2014-06-30T07:36:49Z</time>
      </trkpt>
      <trkpt lat="44.66257" lon="3.04656">
        <ele>1181.12</ele>
        <time>2014-06-30T07:36:55Z</time>
      </trkpt>
      <trkpt lat="44.66256" lon="3.04648">
        <ele>1181.12</ele>
        <time>2014-06-30T07:37:20Z</time>
      </trkpt>
      <trkpt lat="44.66256" lon="3.04646">
        <ele>1181.12</ele>
        <time>2014-06-30T07:37:46Z</time>
      </trkpt>
      <trkpt lat="44.66254" lon="3.04645">
        <ele>1181.6</ele>
        <time>2014-06-30T07:38:12Z</time>
      </trkpt>
      <trkpt lat="44.66254" lon="3.04647">
        <ele>1181.6</ele>
        <time>2014-06-30T07:38:29Z</time>
      </trkpt>
      <trkpt lat="44.66253" lon="3.04649">
        <ele>1181.6</ele>
        <time>2014-06-30T07:38:49Z</time>
      </trkpt>
      <trkpt lat="44.66256" lon="3.04651">
        <ele>1181.6</ele>
        <time>2014-06-30T07:39:16Z</time>
      </trkpt>
      <trkpt lat="44.66256" lon="3.04653">
        <ele>1181.6</ele>
        <time>2014-06-30T07:39:30Z</time>
      </trkpt>
      <trkpt lat="44.66255" lon="3.04655">
        <ele>1181.12</ele>
        <time>2014-06-30T07:39:49Z</time>
      </trkpt>
      <trkpt lat="44.66255" lon="3.04653">
        <ele>1181.12</ele>
        <time>2014-06-30T07:40:02Z</time>
      </trkpt>
      <trkpt lat="44.66256" lon="3.04652">
        <ele>1181.12</ele>
        <time>2014-06-30T07:40:19Z</time>
      </trkpt>
      <trkpt lat="44.66254" lon="3.04654">
        <ele>1181.12</ele>
        <time>2014-06-30T07:40:43Z</time>
      </trkpt>
      <trkpt lat="44.66254" lon="3.04653">
        <ele>1181.12</ele>
        <time>2014-06-30T07:40:56Z</time>
      </trkpt>
      <trkpt lat="44.66255" lon="3.04655">
        <ele>1181.12</ele>
        <time>2014-06-30T07:41:13Z</time>
      </trkpt>
      <trkpt lat="44.66254" lon="3.04657">
        <ele>1181.12</ele>
        <time>2014-06-30T07:41:33Z</time>
      </trkpt>
      <trkpt lat="44.66253" lon="3.04657">
        <ele>1181.12</ele>
        <time>2014-06-30T07:41:48Z</time>
      </trkpt>
      <trkpt lat="44.66252" lon="3.04656">
        <ele>1181.12</ele>
        <time>2014-06-30T07:42:05Z</time>
      </trkpt>
      <trkpt lat="44.66254" lon="3.04652">
        <ele>1181.12</ele>
        <time>2014-06-30T07:42:18Z</time>
      </trkpt>
      <trkpt lat="44.66257" lon="3.04649">
        <ele>1181.6</ele>
        <time>2014-06-30T07:42:33Z</time>
      </trkpt>
      <trkpt lat="44.66259" lon="3.04648">
        <ele>1181.6</ele>
        <time>2014-06-30T07:43:00Z</time>
      </trkpt>
      <trkpt lat="44.66259" lon="3.04654">
        <ele>1181.6</ele>
        <time>2014-06-30T07:43:21Z</time>
      </trkpt>
      <trkpt lat="44.66258" lon="3.04652">
        <ele>1181.6</ele>
        <time>2014-06-30T07:43:33Z</time>
      </trkpt>
      <trkpt lat="44.66255" lon="3.04652">
        <ele>1181.6</ele>
        <time>2014-06-30T07:43:42Z</time>
      </trkpt>
      <trkpt lat="44.66257" lon="3.04656">
        <ele>1181.6</ele>
        <time>2014-06-30T07:43:55Z</time>
      </trkpt>
      <trkpt lat="44.66256" lon="3.04656">
        <ele>1181.6</ele>
        <time>2014-06-30T07:44:11Z</time>
      </trkpt>
      <trkpt lat="44.66257" lon="3.04654">
        <ele>1181.6</ele>
        <time>2014-06-30T07:44:28Z</time>
      </trkpt>
      <trkpt lat="44.66258" lon="3.04652">
        <ele>1182.08</ele>
        <time>2014-06-30T07:44:55Z</time>
      </trkpt>
      <trkpt lat="44.66258" lon="3.04652">
        <ele>1183.04</ele>
        <time>2014-06-30T07:44:58Z</time>
      </trkpt>
      <trkpt lat="44.66256" lon="3.04654">
        <ele>1183.04</ele>
        <time>2014-06-30T07:45:11Z</time>
      </trkpt>
      <trkpt lat="44.66254" lon="3.04655">
        <ele>1183.04</ele>
        <time>2014-06-30T07:45:29Z</time>
      </trkpt>
      <trkpt lat="44.66254" lon="3.04653">
        <ele>1183.04</ele>
        <time>2014-06-30T07:45:45Z</time>
      </trkpt>
      <trkpt lat="44.66256" lon="3.04644">
        <ele>1183.04</ele>
        <time>2014-06-30T07:45:58Z</time>
      </trkpt>
      <trkpt lat="44.66259" lon="3.0463">
        <ele>1184.48</ele>
        <time>2014-06-30T07:46:10Z</time>
      </trkpt>
      <trkpt lat="44.66261" lon="3.0461">
        <ele>1185.44</ele>
        <time>2014-06-30T07:46:26Z</time>
      </trkpt>
      <trkpt lat="44.66261" lon="3.04592">
        <ele>1186.4</ele>
        <time>2014-06-30T07:46:42Z</time>
      </trkpt>
      <trkpt lat="44.66262" lon="3.04564">
        <ele>1186.88</ele>
        <time>2014-06-30T07:46:57Z</time>
      </trkpt>
      <trkpt lat="44.66263" lon="3.04561">
        <ele>1186.88</ele>
        <time>2014-06-30T07:46:59Z</time>
      </trkpt>
      <trkpt lat="44.6626" lon="3.04529">
        <ele>1187.37</ele>
        <time>2014-06-30T07:47:19Z</time>
      </trkpt>
      <trkpt lat="44.66266" lon="3.04505">
        <ele>1185.92</ele>
        <time>2014-06-30T07:47:35Z</time>
      </trkpt>
      <trkpt lat="44.66267" lon="3.04499">
        <ele>1185.92</ele>
        <time>2014-06-30T07:47:47Z</time>
      </trkpt>
      <trkpt lat="44.66264" lon="3.04501">
        <ele>1185.92</ele>
        <time>2014-06-30T07:48:09Z</time>
      </trkpt>
      <trkpt lat="44.66257" lon="3.04505">
        <ele>1185.92</ele>
        <time>2014-06-30T07:48:34Z</time>
      </trkpt>
      <trkpt lat="44.66253" lon="3.04505">
        <ele>1185.92</ele>
        <time>2014-06-30T07:48:57Z</time>
      </trkpt>
      <trkpt lat="44.66259" lon="3.04506">
        <ele>1185.92</ele>
        <time>2014-06-30T07:49:19Z</time>
      </trkpt>
      <trkpt lat="44.66261" lon="3.04508">
        <ele>1185.92</ele>
        <time>2014-06-30T07:49:42Z</time>
      </trkpt>
      <trkpt lat="44.66267" lon="3.04507">
        <ele>1185.92</ele>
        <time>2014-06-30T07:50:00Z</time>
      </trkpt>
      <trkpt lat="44.66273" lon="3.04503">
        <ele>1185.92</ele>
        <time>2014-06-30T07:50:23Z</time>
      </trkpt>
      <trkpt lat="44.66271" lon="3.04504">
        <ele>1185.92</ele>
        <time>2014-06-30T07:50:36Z</time>
      </trkpt>
      <trkpt lat="44.66269" lon="3.04504">
        <ele>1185.92</ele>
        <time>2014-06-30T07:50:57Z</time>
      </trkpt>
      <trkpt lat="44.66269" lon="3.04501">
        <ele>1185.92</ele>
        <time>2014-06-30T07:51:08Z</time>
      </trkpt>
      <trkpt lat="44.6627" lon="3.04497">
        <ele>1185.92</ele>
        <time>2014-06-30T07:51:22Z</time>
      </trkpt>
      <trkpt lat="44.66271" lon="3.04484">
        <ele>1185.44</ele>
        <time>2014-06-30T07:51:35Z</time>
      </trkpt>
      <trkpt lat="44.66272" lon="3.04483">
        <ele>1185.44</ele>
        <time>2014-06-30T07:51:36Z</time>
      </trkpt>
      <trkpt lat="44.66282" lon="3.0447">
        <ele>1185.44</ele>
        <time>2014-06-30T07:51:51Z</time>
      </trkpt>
      <trkpt lat="44.66297" lon="3.04461">
        <ele>1185.44</ele>
        <time>2014-06-30T07:52:06Z</time>
      </trkpt>
      <trkpt lat="44.66307" lon="3.04454">
        <ele>1186.4</ele>
        <time>2014-06-30T07:52:16Z</time>
      </trkpt>
      <trkpt lat="44.66313" lon="3.0445">
        <ele>1186.4</ele>
        <time>2014-06-30T07:52:22Z</time>
      </trkpt>
      <trkpt lat="44.66329" lon="3.04441">
        <ele>1186.4</ele>
        <time>2014-06-30T07:52:39Z</time>
      </trkpt>
      <trkpt lat="44.66342" lon="3.04432">
        <ele>1186.4</ele>
        <time>2014-06-30T07:52:53Z</time>
      </trkpt>
      <trkpt lat="44.66358" lon="3.04419">
        <ele>1186.4</ele>
        <time>2014-06-30T07:53:09Z</time>
      </trkpt>
      <trkpt lat="44.66371" lon="3.04409">
        <ele>1186.4</ele>
        <time>2014-06-30T07:53:24Z</time>
      </trkpt>
      <trkpt lat="44.6638" lon="3.04403">
        <ele>1186.4</ele>
        <time>2014-06-30T07:53:35Z</time>
      </trkpt>
      <trkpt lat="44.66398" lon="3.04389">
        <ele>1186.88</ele>
        <time>2014-06-30T07:53:53Z</time>
      </trkpt>
      <trkpt lat="44.66405" lon="3.04385">
        <ele>1185.44</ele>
        <time>2014-06-30T07:53:59Z</time>
      </trkpt>
      <trkpt lat="44.66411" lon="3.04379">
        <ele>1186.88</ele>
        <time>2014-06-30T07:54:05Z</time>
      </trkpt>
      <trkpt lat="44.66428" lon="3.04366">
        <ele>1184.96</ele>
        <time>2014-06-30T07:54:21Z</time>
      </trkpt>
      <trkpt lat="44.66429" lon="3.04365">
        <ele>1184.96</ele>
        <time>2014-06-30T07:54:23Z</time>
      </trkpt>
      <trkpt lat="44.6643" lon="3.04368">
        <ele>1184.48</ele>
        <time>2014-06-30T07:54:36Z</time>
      </trkpt>
      <trkpt lat="44.66431" lon="3.04368">
        <ele>1184</ele>
        <time>2014-06-30T07:54:49Z</time>
      </trkpt>
      <trkpt lat="44.66433" lon="3.04367">
        <ele>1183.52</ele>
        <time>2014-06-30T07:55:22Z</time>
      </trkpt>
      <trkpt lat="44.66432" lon="3.04369">
        <ele>1184.96</ele>
        <time>2014-06-30T07:55:39Z</time>
      </trkpt>
      <trkpt lat="44.66429" lon="3.04367">
        <ele>1184.96</ele>
        <time>2014-06-30T07:55:53Z</time>
      </trkpt>
      <trkpt lat="44.66435" lon="3.04361">
        <ele>1184.96</ele>
        <time>2014-06-30T07:56:02Z</time>
      </trkpt>
      <trkpt lat="44.66446" lon="3.04351">
        <ele>1184.96</ele>
        <time>2014-06-30T07:56:13Z</time>
      </trkpt>
      <trkpt lat="44.66467" lon="3.04336">
        <ele>1184.96</ele>
        <time>2014-06-30T07:56:32Z</time>
      </trkpt>
      <trkpt lat="44.6647" lon="3.04334">
        <ele>1184.96</ele>
        <time>2014-06-30T07:56:40Z</time>
      </trkpt>
      <trkpt lat="44.6649" lon="3.04318">
        <ele>1183.52</ele>
        <time>2014-06-30T07:56:59Z</time>
      </trkpt>
      <trkpt lat="44.66509" lon="3.043">
        <ele>1183.52</ele>
        <time>2014-06-30T07:57:17Z</time>
      </trkpt>
      <trkpt lat="44.66519" lon="3.04283">
        <ele>1184.96</ele>
        <time>2014-06-30T07:57:29Z</time>
      </trkpt>
      <trkpt lat="44.66532" lon="3.04262">
        <ele>1184.96</ele>
        <time>2014-06-30T07:57:46Z</time>
      </trkpt>
      <trkpt lat="44.66545" lon="3.04238">
        <ele>1185.44</ele>
        <time>2014-06-30T07:58:04Z</time>
      </trkpt>
      <trkpt lat="44.66557" lon="3.04216">
        <ele>1185.92</ele>
        <time>2014-06-30T07:58:20Z</time>
      </trkpt>
      <trkpt lat="44.66571" lon="3.04189">
        <ele>1185.92</ele>
        <time>2014-06-30T07:58:38Z</time>
      </trkpt>
      <trkpt lat="44.66586" lon="3.04165">
        <ele>1185.92</ele>
        <time>2014-06-30T07:58:56Z</time>
      </trkpt>
      <trkpt lat="44.66602" lon="3.04142">
        <ele>1186.4</ele>
        <time>2014-06-30T07:59:14Z</time>
      </trkpt>
      <trkpt lat="44.66622" lon="3.04124">
        <ele>1186.4</ele>
        <time>2014-06-30T07:59:32Z</time>
      </trkpt>
      <trkpt lat="44.66643" lon="3.04115">
        <ele>1186.4</ele>
        <time>2014-06-30T07:59:49Z</time>
      </trkpt>
      <trkpt lat="44.66657" lon="3.04105">
        <ele>1187.37</ele>
        <time>2014-06-30T08:00:02Z</time>
      </trkpt>
      <trkpt lat="44.66662" lon="3.04105">
        <ele>1185.92</ele>
        <time>2014-06-30T08:00:06Z</time>
      </trkpt>
      <trkpt lat="44.66689" lon="3.04099">
        <ele>1185.44</ele>
        <time>2014-06-30T08:00:26Z</time>
      </trkpt>
      <trkpt lat="44.66711" lon="3.04096">
        <ele>1184.96</ele>
        <time>2014-06-30T08:00:43Z</time>
      </trkpt>
      <trkpt lat="44.66734" lon="3.04091">
        <ele>1184.48</ele>
        <time>2014-06-30T08:01:01Z</time>
      </trkpt>
      <trkpt lat="44.66755" lon="3.04087">
        <ele>1184</ele>
        <time>2014-06-30T08:01:20Z</time>
      </trkpt>
      <trkpt lat="44.66778" lon="3.04083">
        <ele>1183.52</ele>
        <time>2014-06-30T08:01:38Z</time>
      </trkpt>
      <trkpt lat="44.66797" lon="3.04078">
        <ele>1183.52</ele>
        <time>2014-06-30T08:01:53Z</time>
      </trkpt>
      <trkpt lat="44.66817" lon="3.04075">
        <ele>1184</ele>
        <time>2014-06-30T08:02:08Z</time>
      </trkpt>
      <trkpt lat="44.66832" lon="3.04072">
        <ele>1182.56</ele>
        <time>2014-06-30T08:02:19Z</time>
      </trkpt>
      <trkpt lat="44.66853" lon="3.04066">
        <ele>1182.56</ele>
        <time>2014-06-30T08:02:36Z</time>
      </trkpt>
      <trkpt lat="44.66879" lon="3.04061">
        <ele>1182.08</ele>
        <time>2014-06-30T08:02:57Z</time>
      </trkpt>
      <trkpt lat="44.66904" lon="3.04055">
        <ele>1180.64</ele>
        <time>2014-06-30T08:03:15Z</time>
      </trkpt>
      <trkpt lat="44.66927" lon="3.04052">
        <ele>1179.67</ele>
        <time>2014-06-30T08:03:33Z</time>
      </trkpt>
      <trkpt lat="44.66953" lon="3.04048">
        <ele>1178.71</ele>
        <time>2014-06-30T08:03:52Z</time>
      </trkpt>
      <trkpt lat="44.66977" lon="3.04045">
        <ele>1177.75</ele>
        <time>2014-06-30T08:04:11Z</time>
      </trkpt>
      <trkpt lat="44.67005" lon="3.0404">
        <ele>1176.31</ele>
        <time>2014-06-30T08:04:32Z</time>
      </trkpt>
      <trkpt lat="44.67009" lon="3.04038">
        <ele>1176.31</ele>
        <time>2014-06-30T08:04:36Z</time>
      </trkpt>
      <trkpt lat="44.6701" lon="3.04034">
        <ele>1176.31</ele>
        <time>2014-06-30T08:04:39Z</time>
      </trkpt>
      <trkpt lat="44.67009" lon="3.04023">
        <ele>1176.31</ele>
        <time>2014-06-30T08:04:53Z</time>
      </trkpt>
      <trkpt lat="44.67008" lon="3.04018">
        <ele>1176.31</ele>
        <time>2014-06-30T08:04:57Z</time>
      </trkpt>
      <trkpt lat="44.67011" lon="3.0399">
        <ele>1175.83</ele>
        <time>2014-06-30T08:05:14Z</time>
      </trkpt>
      <trkpt lat="44.67014" lon="3.03975">
        <ele>1175.83</ele>
        <time>2014-06-30T08:05:24Z</time>
      </trkpt>
      <trkpt lat="44.67018" lon="3.03963">
        <ele>1175.83</ele>
        <time>2014-06-30T08:05:33Z</time>
      </trkpt>
      <trkpt lat="44.67027" lon="3.03934">
        <ele>1175.83</ele>
        <time>2014-06-30T08:05:51Z</time>
      </trkpt>
      <trkpt lat="44.67035" lon="3.03911">
        <ele>1175.35</ele>
        <time>2014-06-30T08:06:07Z</time>
      </trkpt>
      <trkpt lat="44.67039" lon="3.03899">
        <ele>1174.87</ele>
        <time>2014-06-30T08:06:15Z</time>
      </trkpt>
      <trkpt lat="44.67041" lon="3.03892">
        <ele>1174.87</ele>
        <time>2014-06-30T08:06:19Z</time>
      </trkpt>
      <trkpt lat="44.67058" lon="3.03862">
        <ele>1173.43</ele>
        <time>2014-06-30T08:06:40Z</time>
      </trkpt>
      <trkpt lat="44.67066" lon="3.03834">
        <ele>1172.95</ele>
        <time>2014-06-30T08:06:58Z</time>
      </trkpt>
      <trkpt lat="44.67073" lon="3.03799">
        <ele>1172.47</ele>
        <time>2014-06-30T08:07:18Z</time>
      </trkpt>
      <trkpt lat="44.67081" lon="3.03781">
        <ele>1172.47</ele>
        <time>2014-06-30T08:07:30Z</time>
      </trkpt>
      <trkpt lat="44.6709" lon="3.03765">
        <ele>1173.91</ele>
        <time>2014-06-30T08:07:44Z</time>
      </trkpt>
      <trkpt lat="44.67091" lon="3.03764">
        <ele>1173.91</ele>
        <time>2014-06-30T08:07:45Z</time>
      </trkpt>
      <trkpt lat="44.67097" lon="3.03759">
        <ele>1173.91</ele>
        <time>2014-06-30T08:07:52Z</time>
      </trkpt>
      <trkpt lat="44.67113" lon="3.03744">
        <ele>1173.91</ele>
        <time>2014-06-30T08:08:07Z</time>
      </trkpt>
      <trkpt lat="44.67124" lon="3.03725">
        <ele>1174.39</ele>
        <time>2014-06-30T08:08:21Z</time>
      </trkpt>
      <trkpt lat="44.67131" lon="3.03708">
        <ele>1175.83</ele>
        <time>2014-06-30T08:08:34Z</time>
      </trkpt>
      <trkpt lat="44.67132" lon="3.03707">
        <ele>1176.31</ele>
        <time>2014-06-30T08:08:35Z</time>
      </trkpt>
      <trkpt lat="44.67137" lon="3.03693">
        <ele>1178.23</ele>
        <time>2014-06-30T08:08:48Z</time>
      </trkpt>
      <trkpt lat="44.67139" lon="3.03685">
        <ele>1178.71</ele>
        <time>2014-06-30T08:09:02Z</time>
      </trkpt>
      <trkpt lat="44.67145" lon="3.03671">
        <ele>1181.12</ele>
        <time>2014-06-30T08:09:16Z</time>
      </trkpt>
      <trkpt lat="44.67157" lon="3.03664">
        <ele>1183.52</ele>
        <time>2014-06-30T08:09:32Z</time>
      </trkpt>
      <trkpt lat="44.67168" lon="3.03658">
        <ele>1186.4</ele>
        <time>2014-06-30T08:09:46Z</time>
      </trkpt>
      <trkpt lat="44.67175" lon="3.03654">
        <ele>1187.37</ele>
        <time>2014-06-30T08:09:53Z</time>
      </trkpt>
      <trkpt lat="44.6719" lon="3.03649">
        <ele>1188.81</ele>
        <time>2014-06-30T08:10:05Z</time>
      </trkpt>
      <trkpt lat="44.67196" lon="3.03643">
        <ele>1190.25</ele>
        <time>2014-06-30T08:10:13Z</time>
      </trkpt>
      <trkpt lat="44.67206" lon="3.03631">
        <ele>1192.17</ele>
        <time>2014-06-30T08:10:27Z</time>
      </trkpt>
      <trkpt lat="44.67206" lon="3.0363">
        <ele>1192.17</ele>
        <time>2014-06-30T08:10:28Z</time>
      </trkpt>
      <trkpt lat="44.67207" lon="3.03628">
        <ele>1192.17</ele>
        <time>2014-06-30T08:10:30Z</time>
      </trkpt>
      <trkpt lat="44.6721" lon="3.03622">
        <ele>1193.13</ele>
        <time>2014-06-30T08:10:35Z</time>
      </trkpt>
      <trkpt lat="44.67216" lon="3.03611">
        <ele>1194.09</ele>
        <time>2014-06-30T08:10:44Z</time>
      </trkpt>
      <trkpt lat="44.67222" lon="3.036">
        <ele>1196.98</ele>
        <time>2014-06-30T08:10:57Z</time>
      </trkpt>
      <trkpt lat="44.67231" lon="3.03589">
        <ele>1198.9</ele>
        <time>2014-06-30T08:11:09Z</time>
      </trkpt>
      <trkpt lat="44.67231" lon="3.03588">
        <ele>1198.9</ele>
        <time>2014-06-30T08:11:10Z</time>
      </trkpt>
      <trkpt lat="44.67238" lon="3.03579">
        <ele>1200.34</ele>
        <time>2014-06-30T08:11:19Z</time>
      </trkpt>
      <trkpt lat="44.67239" lon="3.03569">
        <ele>1201.3</ele>
        <time>2014-06-30T08:11:27Z</time>
      </trkpt>
      <trkpt lat="44.67237" lon="3.03561">
        <ele>1202.27</ele>
        <time>2014-06-30T08:11:39Z</time>
      </trkpt>
      <trkpt lat="44.67241" lon="3.03561">
        <ele>1202.27</ele>
        <time>2014-06-30T08:11:45Z</time>
      </trkpt>
      <trkpt lat="44.67246" lon="3.03559">
        <ele>1202.75</ele>
        <time>2014-06-30T08:11:50Z</time>
      </trkpt>
      <trkpt lat="44.67249" lon="3.03554">
        <ele>1202.27</ele>
        <time>2014-06-30T08:11:55Z</time>
      </trkpt>
      <trkpt lat="44.67249" lon="3.03551">
        <ele>1202.27</ele>
        <time>2014-06-30T08:11:57Z</time>
      </trkpt>
      <trkpt lat="44.67257" lon="3.03535">
        <ele>1202.75</ele>
        <time>2014-06-30T08:12:11Z</time>
      </trkpt>
      <trkpt lat="44.67258" lon="3.03533">
        <ele>1203.23</ele>
        <time>2014-06-30T08:12:24Z</time>
      </trkpt>
      <trkpt lat="44.67263" lon="3.03525">
        <ele>1203.23</ele>
        <time>2014-06-30T08:12:37Z</time>
      </trkpt>
      <trkpt lat="44.67258" lon="3.03516">
        <ele>1203.23</ele>
        <time>2014-06-30T08:12:48Z</time>
      </trkpt>
      <trkpt lat="44.67262" lon="3.03505">
        <ele>1203.71</ele>
        <time>2014-06-30T08:13:00Z</time>
      </trkpt>
      <trkpt lat="44.67267" lon="3.03494">
        <ele>1203.71</ele>
        <time>2014-06-30T08:13:13Z</time>
      </trkpt>
      <trkpt lat="44.67268" lon="3.0349">
        <ele>1203.71</ele>
        <time>2014-06-30T08:13:17Z</time>
      </trkpt>
      <trkpt lat="44.67271" lon="3.03481">
        <ele>1203.71</ele>
        <time>2014-06-30T08:13:24Z</time>
      </trkpt>
      <trkpt lat="44.67275" lon="3.03469">
        <ele>1203.71</ele>
        <time>2014-06-30T08:13:33Z</time>
      </trkpt>
      <trkpt lat="44.67278" lon="3.03463">
        <ele>1203.71</ele>
        <time>2014-06-30T08:13:42Z</time>
      </trkpt>
      <trkpt lat="44.67281" lon="3.03448">
        <ele>1201.79</ele>
        <time>2014-06-30T08:13:56Z</time>
      </trkpt>
      <trkpt lat="44.67281" lon="3.03438">
        <ele>1201.3</ele>
        <time>2014-06-30T08:14:07Z</time>
      </trkpt>
      <trkpt lat="44.67279" lon="3.03424">
        <ele>1201.3</ele>
        <time>2014-06-30T08:14:21Z</time>
      </trkpt>
      <trkpt lat="44.67286" lon="3.03417">
        <ele>1200.34</ele>
        <time>2014-06-30T08:14:33Z</time>
      </trkpt>
      <trkpt lat="44.67291" lon="3.03413">
        <ele>1199.86</ele>
        <time>2014-06-30T08:14:44Z</time>
      </trkpt>
      <trkpt lat="44.67298" lon="3.03409">
        <ele>1199.38</ele>
        <time>2014-06-30T08:14:54Z</time>
      </trkpt>
      <trkpt lat="44.67307" lon="3.03402">
        <ele>1199.38</ele>
        <time>2014-06-30T08:15:10Z</time>
      </trkpt>
      <trkpt lat="44.67316" lon="3.03397">
        <ele>1200.82</ele>
        <time>2014-06-30T08:15:24Z</time>
      </trkpt>
      <trkpt lat="44.67328" lon="3.03389">
        <ele>1202.75</ele>
        <time>2014-06-30T08:15:38Z</time>
      </trkpt>
      <trkpt lat="44.67332" lon="3.03385">
        <ele>1203.23</ele>
        <time>2014-06-30T08:15:44Z</time>
      </trkpt>
      <trkpt lat="44.67335" lon="3.03373">
        <ele>1204.19</ele>
        <time>2014-06-30T08:15:57Z</time>
      </trkpt>
      <trkpt lat="44.67341" lon="3.03356">
        <ele>1204.67</ele>
        <time>2014-06-30T08:16:14Z</time>
      </trkpt>
      <trkpt lat="44.67344" lon="3.03344">
        <ele>1202.75</ele>
        <time>2014-06-30T08:16:26Z</time>
      </trkpt>
      <trkpt lat="44.67346" lon="3.03329">
        <ele>1202.27</ele>
        <time>2014-06-30T08:16:36Z</time>
      </trkpt>
      <trkpt lat="44.67347" lon="3.03323">
        <ele>1202.27</ele>
        <time>2014-06-30T08:16:40Z</time>
      </trkpt>
      <trkpt lat="44.67347" lon="3.03315">
        <ele>1201.79</ele>
        <time>2014-06-30T08:16:45Z</time>
      </trkpt>
      <trkpt lat="44.67349" lon="3.03305">
        <ele>1200.82</ele>
        <time>2014-06-30T08:16:52Z</time>
      </trkpt>
      <trkpt lat="44.6735" lon="3.03291">
        <ele>1200.82</ele>
        <time>2014-06-30T08:17:02Z</time>
      </trkpt>
      <trkpt lat="44.67353" lon="3.03287">
        <ele>1200.34</ele>
        <time>2014-06-30T08:17:07Z</time>
      </trkpt>
      <trkpt lat="44.6736" lon="3.03285">
        <ele>1200.34</ele>
        <time>2014-06-30T08:17:14Z</time>
      </trkpt>
      <trkpt lat="44.6737" lon="3.0328">
        <ele>1199.86</ele>
        <time>2014-06-30T08:17:27Z</time>
      </trkpt>
      <trkpt lat="44.67378" lon="3.03276">
        <ele>1197.94</ele>
        <time>2014-06-30T08:17:39Z</time>
      </trkpt>
      <trkpt lat="44.67391" lon="3.03273">
        <ele>1196.5</ele>
        <time>2014-06-30T08:17:55Z</time>
      </trkpt>
      <trkpt lat="44.67398" lon="3.03273">
        <ele>1196.5</ele>
        <time>2014-06-30T08:18:04Z</time>
      </trkpt>
      <trkpt lat="44.67414" lon="3.03289">
        <ele>1195.54</ele>
        <time>2014-06-30T08:18:22Z</time>
      </trkpt>
      <trkpt lat="44.67417" lon="3.03294">
        <ele>1195.54</ele>
        <time>2014-06-30T08:18:27Z</time>
      </trkpt>
      <trkpt lat="44.67425" lon="3.03298">
        <ele>1195.54</ele>
        <time>2014-06-30T08:18:37Z</time>
      </trkpt>
      <trkpt lat="44.67438" lon="3.0331">
        <ele>1195.54</ele>
        <time>2014-06-30T08:18:52Z</time>
      </trkpt>
      <trkpt lat="44.67451" lon="3.03314">
        <ele>1194.58</ele>
        <time>2014-06-30T08:19:06Z</time>
      </trkpt>
      <trkpt lat="44.67465" lon="3.03314">
        <ele>1193.61</ele>
        <time>2014-06-30T08:19:20Z</time>
      </trkpt>
      <trkpt lat="44.67475" lon="3.0331">
        <ele>1191.69</ele>
        <time>2014-06-30T08:19:31Z</time>
      </trkpt>
      <trkpt lat="44.67481" lon="3.03312">
        <ele>1191.69</ele>
        <time>2014-06-30T08:19:37Z</time>
      </trkpt>
      <trkpt lat="44.67492" lon="3.03307">
        <ele>1190.73</ele>
        <time>2014-06-30T08:19:51Z</time>
      </trkpt>
      <trkpt lat="44.67494" lon="3.03307">
        <ele>1190.25</ele>
        <time>2014-06-30T08:19:53Z</time>
      </trkpt>
      <trkpt lat="44.67501" lon="3.03311">
        <ele>1190.25</ele>
        <time>2014-06-30T08:20:01Z</time>
      </trkpt>
      <trkpt lat="44.6751" lon="3.03318">
        <ele>1190.25</ele>
        <time>2014-06-30T08:20:13Z</time>
      </trkpt>
      <trkpt lat="44.67527" lon="3.03311">
        <ele>1189.29</ele>
        <time>2014-06-30T08:20:30Z</time>
      </trkpt>
      <trkpt lat="44.67539" lon="3.03306">
        <ele>1188.33</ele>
        <time>2014-06-30T08:20:45Z</time>
      </trkpt>
      <trkpt lat="44.67538" lon="3.03307">
        <ele>1187.85</ele>
        <time>2014-06-30T08:21:04Z</time>
      </trkpt>
      <trkpt lat="44.67538" lon="3.03307">
        <ele>1187.85</ele>
        <time>2014-06-30T08:21:20Z</time>
      </trkpt>
      <trkpt lat="44.67541" lon="3.03306">
        <ele>1187.85</ele>
        <time>2014-06-30T08:21:30Z</time>
      </trkpt>
      <trkpt lat="44.67545" lon="3.033">
        <ele>1187.37</ele>
        <time>2014-06-30T08:21:35Z</time>
      </trkpt>
      <trkpt lat="44.6756" lon="3.03297">
        <ele>1185.92</ele>
        <time>2014-06-30T08:21:50Z</time>
      </trkpt>
      <trkpt lat="44.67563" lon="3.03296">
        <ele>1185.44</ele>
        <time>2014-06-30T08:21:53Z</time>
      </trkpt>
      <trkpt lat="44.67574" lon="3.0329">
        <ele>1184</ele>
        <time>2014-06-30T08:22:02Z</time>
      </trkpt>
      <trkpt lat="44.67576" lon="3.0329">
        <ele>1183.52</ele>
        <time>2014-06-30T08:22:04Z</time>
      </trkpt>
      <trkpt lat="44.6758" lon="3.03288">
        <ele>1183.04</ele>
        <time>2014-06-30T08:22:08Z</time>
      </trkpt>
      <trkpt lat="44.67583" lon="3.03283">
        <ele>1183.04</ele>
        <time>2014-06-30T08:22:12Z</time>
      </trkpt>
      <trkpt lat="44.67599" lon="3.03277">
        <ele>1180.64</ele>
        <time>2014-06-30T08:22:26Z</time>
      </trkpt>
      <trkpt lat="44.67611" lon="3.0326">
        <ele>1180.16</ele>
        <time>2014-06-30T08:22:42Z</time>
      </trkpt>
      <trkpt lat="44.67611" lon="3.0326">
        <ele>1179.67</ele>
        <time>2014-06-30T08:22:43Z</time>
      </trkpt>
      <trkpt lat="44.67612" lon="3.03258">
        <ele>1179.67</ele>
        <time>2014-06-30T08:22:45Z</time>
      </trkpt>
      <trkpt lat="44.67612" lon="3.03256">
        <ele>1179.67</ele>
        <time>2014-06-30T08:22:47Z</time>
      </trkpt>
      <trkpt lat="44.6762" lon="3.03256">
        <ele>1177.75</ele>
        <time>2014-06-30T08:22:56Z</time>
      </trkpt>
      <trkpt lat="44.67621" lon="3.03252">
        <ele>1177.75</ele>
        <time>2014-06-30T08:22:59Z</time>
      </trkpt>
      <trkpt lat="44.67629" lon="3.03246">
        <ele>1176.31</ele>
        <time>2014-06-30T08:23:06Z</time>
      </trkpt>
      <trkpt lat="44.67632" lon="3.03242">
        <ele>1175.83</ele>
        <time>2014-06-30T08:23:10Z</time>
      </trkpt>
      <trkpt lat="44.67639" lon="3.03239">
        <ele>1175.35</ele>
        <time>2014-06-30T08:23:15Z</time>
      </trkpt>
      <trkpt lat="44.67646" lon="3.03241">
        <ele>1174.87</ele>
        <time>2014-06-30T08:23:21Z</time>
      </trkpt>
      <trkpt lat="44.67652" lon="3.03237">
        <ele>1173.43</ele>
        <time>2014-06-30T08:23:26Z</time>
      </trkpt>
      <trkpt lat="44.6766" lon="3.03228">
        <ele>1172.47</ele>
        <time>2014-06-30T08:23:39Z</time>
      </trkpt>
      <trkpt lat="44.67661" lon="3.03227">
        <ele>1172.47</ele>
        <time>2014-06-30T08:23:42Z</time>
      </trkpt>
      <trkpt lat="44.67658" lon="3.03225">
        <ele>1172.47</ele>
        <time>2014-06-30T08:23:47Z</time>
      </trkpt>
      <trkpt lat="44.67658" lon="3.03223">
        <ele>1172.47</ele>
        <time>2014-06-30T08:23:59Z</time>
      </trkpt>
      <trkpt lat="44.67657" lon="3.03221">
        <ele>1171.98</ele>
        <time>2014-06-30T08:24:12Z</time>
      </trkpt>
      <trkpt lat="44.67658" lon="3.03212">
        <ele>1171.5</ele>
        <time>2014-06-30T08:24:22Z</time>
      </trkpt>
      <trkpt lat="44.67661" lon="3.03212">
        <ele>1171.02</ele>
        <time>2014-06-30T08:24:27Z</time>
      </trkpt>
      <trkpt lat="44.67667" lon="3.03206">
        <ele>1170.54</ele>
        <time>2014-06-30T08:24:40Z</time>
      </trkpt>
      <trkpt lat="44.6767" lon="3.03202">
        <ele>1170.06</ele>
        <time>2014-06-30T08:24:46Z</time>
      </trkpt>
      <trkpt lat="44.6767" lon="3.03198">
        <ele>1170.06</ele>
        <time>2014-06-30T08:24:49Z</time>
      </trkpt>
      <trkpt lat="44.67673" lon="3.0319">
        <ele>1169.58</ele>
        <time>2014-06-30T08:25:01Z</time>
      </trkpt>
      <trkpt lat="44.67674" lon="3.03189">
        <ele>1169.58</ele>
        <time>2014-06-30T08:25:13Z</time>
      </trkpt>
      <trkpt lat="44.67674" lon="3.03189">
        <ele>1169.58</ele>
        <time>2014-06-30T08:25:29Z</time>
      </trkpt>
      <trkpt lat="44.67676" lon="3.0319">
        <ele>1169.58</ele>
        <time>2014-06-30T08:26:04Z</time>
      </trkpt>
      <trkpt lat="44.67676" lon="3.03186">
        <ele>1169.58</ele>
        <time>2014-06-30T08:26:19Z</time>
      </trkpt>
      <trkpt lat="44.67676" lon="3.03182">
        <ele>1169.58</ele>
        <time>2014-06-30T08:26:28Z</time>
      </trkpt>
      <trkpt lat="44.67685" lon="3.03166">
        <ele>1169.1</ele>
        <time>2014-06-30T08:26:41Z</time>
      </trkpt>
      <trkpt lat="44.67686" lon="3.03162">
        <ele>1169.1</ele>
        <time>2014-06-30T08:26:45Z</time>
      </trkpt>
      <trkpt lat="44.67689" lon="3.03156">
        <ele>1169.1</ele>
        <time>2014-06-30T08:26:49Z</time>
      </trkpt>
      <trkpt lat="44.67696" lon="3.0314">
        <ele>1171.02</ele>
        <time>2014-06-30T08:27:02Z</time>
      </trkpt>
      <trkpt lat="44.67699" lon="3.03135">
        <ele>1172.47</ele>
        <time>2014-06-30T08:27:07Z</time>
      </trkpt>
      <trkpt lat="44.67704" lon="3.03122">
        <ele>1175.35</ele>
        <time>2014-06-30T08:27:22Z</time>
      </trkpt>
      <trkpt lat="44.67706" lon="3.0311">
        <ele>1178.71</ele>
        <time>2014-06-30T08:27:35Z</time>
      </trkpt>
      <trkpt lat="44.67706" lon="3.03097">
        <ele>1180.64</ele>
        <time>2014-06-30T08:27:47Z</time>
      </trkpt>
      <trkpt lat="44.67709" lon="3.03092">
        <ele>1183.04</ele>
        <time>2014-06-30T08:27:59Z</time>
      </trkpt>
      <trkpt lat="44.67713" lon="3.03088">
        <ele>1184</ele>
        <time>2014-06-30T08:28:06Z</time>
      </trkpt>
      <trkpt lat="44.67716" lon="3.03081">
        <ele>1185.44</ele>
        <time>2014-06-30T08:28:18Z</time>
      </trkpt>
      <trkpt lat="44.67717" lon="3.03075">
        <ele>1185.44</ele>
        <time>2014-06-30T08:28:22Z</time>
      </trkpt>
      <trkpt lat="44.6772" lon="3.03072">
        <ele>1185.44</ele>
        <time>2014-06-30T08:28:25Z</time>
      </trkpt>
      <trkpt lat="44.67733" lon="3.03056">
        <ele>1184.96</ele>
        <time>2014-06-30T08:28:40Z</time>
      </trkpt>
      <trkpt lat="44.67738" lon="3.03045">
        <ele>1184.48</ele>
        <time>2014-06-30T08:28:48Z</time>
      </trkpt>
      <trkpt lat="44.67739" lon="3.03036">
        <ele>1184.48</ele>
        <time>2014-06-30T08:28:54Z</time>
      </trkpt>
      <trkpt lat="44.67741" lon="3.03026">
        <ele>1183.04</ele>
        <time>2014-06-30T08:29:04Z</time>
      </trkpt>
      <trkpt lat="44.67749" lon="3.03011">
        <ele>1181.12</ele>
        <time>2014-06-30T08:29:15Z</time>
      </trkpt>
      <trkpt lat="44.67759" lon="3.03008">
        <ele>1179.19</ele>
        <time>2014-06-30T08:29:26Z</time>
      </trkpt>
      <trkpt lat="44.67763" lon="3.03008">
        <ele>1179.19</ele>
        <time>2014-06-30T08:29:30Z</time>
      </trkpt>
      <trkpt lat="44.67772" lon="3.02996">
        <ele>1177.27</ele>
        <time>2014-06-30T08:29:46Z</time>
      </trkpt>
      <trkpt lat="44.67772" lon="3.02996">
        <ele>1177.27</ele>
        <time>2014-06-30T08:29:49Z</time>
      </trkpt>
      <trkpt lat="44.67781" lon="3.02992">
        <ele>1175.35</ele>
        <time>2014-06-30T08:29:56Z</time>
      </trkpt>
      <trkpt lat="44.6779" lon="3.02985">
        <ele>1174.87</ele>
        <time>2014-06-30T08:30:05Z</time>
      </trkpt>
      <trkpt lat="44.67791" lon="3.02983">
        <ele>1174.87</ele>
        <time>2014-06-30T08:30:18Z</time>
      </trkpt>
      <trkpt lat="44.67795" lon="3.02975">
        <ele>1174.87</ele>
        <time>2014-06-30T08:30:25Z</time>
      </trkpt>
      <trkpt lat="44.67797" lon="3.02974">
        <ele>1176.31</ele>
        <time>2014-06-30T08:30:27Z</time>
      </trkpt>
      <trkpt lat="44.678" lon="3.02972">
        <ele>1176.79</ele>
        <time>2014-06-30T08:30:38Z</time>
      </trkpt>
      <trkpt lat="44.67795" lon="3.02979">
        <ele>1176.79</ele>
        <time>2014-06-30T08:30:50Z</time>
      </trkpt>
      <trkpt lat="44.67793" lon="3.02981">
        <ele>1175.35</ele>
        <time>2014-06-30T08:30:52Z</time>
      </trkpt>
      <trkpt lat="44.67793" lon="3.02985">
        <ele>1174.39</ele>
        <time>2014-06-30T08:31:04Z</time>
      </trkpt>
      <trkpt lat="44.67792" lon="3.02985">
        <ele>1174.39</ele>
        <time>2014-06-30T08:31:11Z</time>
      </trkpt>
      <trkpt lat="44.67792" lon="3.02985">
        <ele>1175.35</ele>
        <time>2014-06-30T08:31:23Z</time>
      </trkpt>
      <trkpt lat="44.67792" lon="3.02984">
        <ele>1175.35</ele>
        <time>2014-06-30T08:31:46Z</time>
      </trkpt>
      <trkpt lat="44.67793" lon="3.02982">
        <ele>1175.35</ele>
        <time>2014-06-30T08:31:54Z</time>
      </trkpt>
      <trkpt lat="44.67799" lon="3.02969">
        <ele>1176.79</ele>
        <time>2014-06-30T08:32:07Z</time>
      </trkpt>
      <trkpt lat="44.6781" lon="3.02962">
        <ele>1177.75</ele>
        <time>2014-06-30T08:32:19Z</time>
      </trkpt>
      <trkpt lat="44.67825" lon="3.0296">
        <ele>1179.67</ele>
        <time>2014-06-30T08:32:32Z</time>
      </trkpt>
      <trkpt lat="44.67829" lon="3.02958">
        <ele>1180.16</ele>
        <time>2014-06-30T08:32:36Z</time>
      </trkpt>
      <trkpt lat="44.67831" lon="3.02954">
        <ele>1180.64</ele>
        <time>2014-06-30T08:32:40Z</time>
      </trkpt>
      <trkpt lat="44.67834" lon="3.02946">
        <ele>1182.56</ele>
        <time>2014-06-30T08:32:51Z</time>
      </trkpt>
      <trkpt lat="44.67835" lon="3.02948">
        <ele>1183.52</ele>
        <time>2014-06-30T08:33:02Z</time>
      </trkpt>
      <trkpt lat="44.67836" lon="3.02948">
        <ele>1183.52</ele>
        <time>2014-06-30T08:33:19Z</time>
      </trkpt>
      <trkpt lat="44.67835" lon="3.02947">
        <ele>1184.96</ele>
        <time>2014-06-30T08:33:21Z</time>
      </trkpt>
      <trkpt lat="44.67836" lon="3.02948">
        <ele>1184.96</ele>
        <time>2014-06-30T08:33:28Z</time>
      </trkpt>
      <trkpt lat="44.67836" lon="3.02948">
        <ele>1182.56</ele>
        <time>2014-06-30T08:33:32Z</time>
      </trkpt>
      <trkpt lat="44.67838" lon="3.02949">
        <ele>1185.92</ele>
        <time>2014-06-30T08:33:34Z</time>
      </trkpt>
      <trkpt lat="44.6784" lon="3.0295">
        <ele>1185.92</ele>
        <time>2014-06-30T08:33:36Z</time>
      </trkpt>
      <trkpt lat="44.67842" lon="3.0295">
        <ele>1185.92</ele>
        <time>2014-06-30T08:33:39Z</time>
      </trkpt>
      <trkpt lat="44.67844" lon="3.02949">
        <ele>1185.92</ele>
        <time>2014-06-30T08:33:50Z</time>
      </trkpt>
      <trkpt lat="44.67839" lon="3.0295">
        <ele>1185.92</ele>
        <time>2014-06-30T08:34:04Z</time>
      </trkpt>
      <trkpt lat="44.67839" lon="3.02951">
        <ele>1185.92</ele>
        <time>2014-06-30T08:34:11Z</time>
      </trkpt>
      <trkpt lat="44.67839" lon="3.0295">
        <ele>1185.92</ele>
        <time>2014-06-30T08:34:14Z</time>
      </trkpt>
      <trkpt lat="44.67837" lon="3.02948">
        <ele>1185.44</ele>
        <time>2014-06-30T08:34:25Z</time>
      </trkpt>
      <trkpt lat="44.67835" lon="3.02948">
        <ele>1184.96</ele>
        <time>2014-06-30T08:34:39Z</time>
      </trkpt>
      <trkpt lat="44.67832" lon="3.02953">
        <ele>1182.08</ele>
        <time>2014-06-30T08:34:50Z</time>
      </trkpt>
      <trkpt lat="44.67836" lon="3.02956">
        <ele>1181.6</ele>
        <time>2014-06-30T08:34:58Z</time>
      </trkpt>
      <trkpt lat="44.67837" lon="3.02959">
        <ele>1181.12</ele>
        <time>2014-06-30T08:35:00Z</time>
      </trkpt>
      <trkpt lat="44.6784" lon="3.02971">
        <ele>1178.71</ele>
        <time>2014-06-30T08:35:11Z</time>
      </trkpt>
      <trkpt lat="44.67847" lon="3.02972">
        <ele>1178.71</ele>
        <time>2014-06-30T08:35:23Z</time>
      </trkpt>
      <trkpt lat="44.67848" lon="3.02971">
        <ele>1178.71</ele>
        <time>2014-06-30T08:35:39Z</time>
      </trkpt>
      <trkpt lat="44.67849" lon="3.02971">
        <ele>1178.71</ele>
        <time>2014-06-30T08:36:01Z</time>
      </trkpt>
      <trkpt lat="44.67849" lon="3.02971">
        <ele>1178.71</ele>
        <time>2014-06-30T08:36:24Z</time>
      </trkpt>
      <trkpt lat="44.67849" lon="3.02971">
        <ele>1178.71</ele>
        <time>2014-06-30T08:36:51Z</time>
      </trkpt>
      <trkpt lat="44.67851" lon="3.02975">
        <ele>1178.71</ele>
        <time>2014-06-30T08:36:55Z</time>
      </trkpt>
      <trkpt lat="44.67851" lon="3.02978">
        <ele>1178.23</ele>
        <time>2014-06-30T08:36:57Z</time>
      </trkpt>
      <trkpt lat="44.67854" lon="3.02993">
        <ele>1176.31</ele>
        <time>2014-06-30T08:37:10Z</time>
      </trkpt>
      <trkpt lat="44.67856" lon="3.02995">
        <ele>1175.83</ele>
        <time>2014-06-30T08:37:14Z</time>
      </trkpt>
      <trkpt lat="44.6786" lon="3.02995">
        <ele>1174.87</ele>
        <time>2014-06-30T08:37:19Z</time>
      </trkpt>
      <trkpt lat="44.67864" lon="3.02989">
        <ele>1174.39</ele>
        <time>2014-06-30T08:37:31Z</time>
      </trkpt>
      <trkpt lat="44.67867" lon="3.0299">
        <ele>1172.95</ele>
        <time>2014-06-30T08:37:42Z</time>
      </trkpt>
      <trkpt lat="44.67869" lon="3.02992">
        <ele>1171.98</ele>
        <time>2014-06-30T08:37:55Z</time>
      </trkpt>
      <trkpt lat="44.67868" lon="3.02991">
        <ele>1171.98</ele>
        <time>2014-06-30T08:38:10Z</time>
      </trkpt>
      <trkpt lat="44.67871" lon="3.02992">
        <ele>1171.98</ele>
        <time>2014-06-30T08:38:17Z</time>
      </trkpt>
      <trkpt lat="44.67872" lon="3.02997">
        <ele>1171.5</ele>
        <time>2014-06-30T08:38:23Z</time>
      </trkpt>
      <trkpt lat="44.67879" lon="3.02999">
        <ele>1171.02</ele>
        <time>2014-06-30T08:38:31Z</time>
      </trkpt>
      <trkpt lat="44.6789" lon="3.03004">
        <ele>1170.06</ele>
        <time>2014-06-30T08:38:42Z</time>
      </trkpt>
      <trkpt lat="44.67892" lon="3.03005">
        <ele>1169.1</ele>
        <time>2014-06-30T08:38:45Z</time>
      </trkpt>
      <trkpt lat="44.67896" lon="3.03008">
        <ele>1168.14</ele>
        <time>2014-06-30T08:38:50Z</time>
      </trkpt>
      <trkpt lat="44.67899" lon="3.03013">
        <ele>1165.26</ele>
        <time>2014-06-30T08:39:00Z</time>
      </trkpt>
      <trkpt lat="44.679" lon="3.03014">
        <ele>1164.77</ele>
        <time>2014-06-30T08:39:01Z</time>
      </trkpt>
      <trkpt lat="44.67897" lon="3.03024">
        <ele>1164.29</ele>
        <time>2014-06-30T08:39:15Z</time>
      </trkpt>
      <trkpt lat="44.67899" lon="3.03026">
        <ele>1161.41</ele>
        <time>2014-06-30T08:39:26Z</time>
      </trkpt>
      <trkpt lat="44.67898" lon="3.03027">
        <ele>1164.77</ele>
        <time>2014-06-30T08:39:27Z</time>
      </trkpt>
      <trkpt lat="44.67899" lon="3.03026">
        <ele>1162.37</ele>
        <time>2014-06-30T08:39:37Z</time>
      </trkpt>
      <trkpt lat="44.67899" lon="3.03025">
        <ele>1162.37</ele>
        <time>2014-06-30T08:39:43Z</time>
      </trkpt>
      <trkpt lat="44.67899" lon="3.03026">
        <ele>1162.85</ele>
        <time>2014-06-30T08:39:56Z</time>
      </trkpt>
      <trkpt lat="44.67899" lon="3.03027">
        <ele>1162.85</ele>
        <time>2014-06-30T08:40:10Z</time>
      </trkpt>
      <trkpt lat="44.679" lon="3.03031">
        <ele>1162.85</ele>
        <time>2014-06-30T08:40:25Z</time>
      </trkpt>
      <trkpt lat="44.67901" lon="3.0303">
        <ele>1162.37</ele>
        <time>2014-06-30T08:40:41Z</time>
      </trkpt>
      <trkpt lat="44.679" lon="3.0303">
        <ele>1162.37</ele>
        <time>2014-06-30T08:40:59Z</time>
      </trkpt>
      <trkpt lat="44.67901" lon="3.03038">
        <ele>1162.37</ele>
        <time>2014-06-30T08:41:15Z</time>
      </trkpt>
      <trkpt lat="44.67908" lon="3.0304">
        <ele>1161.89</ele>
        <time>2014-06-30T08:41:28Z</time>
      </trkpt>
      <trkpt lat="44.6791" lon="3.03043">
        <ele>1161.41</ele>
        <time>2014-06-30T08:41:42Z</time>
      </trkpt>
      <trkpt lat="44.67909" lon="3.03043">
        <ele>1161.41</ele>
        <time>2014-06-30T08:41:50Z</time>
      </trkpt>
      <trkpt lat="44.67906" lon="3.03038">
        <ele>1161.41</ele>
        <time>2014-06-30T08:41:56Z</time>
      </trkpt>
      <trkpt lat="44.679" lon="3.03035">
        <ele>1161.41</ele>
        <time>2014-06-30T08:42:10Z</time>
      </trkpt>
      <trkpt lat="44.67901" lon="3.03035">
        <ele>1161.41</ele>
        <time>2014-06-30T08:42:33Z</time>
      </trkpt>
      <trkpt lat="44.67898" lon="3.03035">
        <ele>1161.41</ele>
        <time>2014-06-30T08:42:55Z</time>
      </trkpt>
      <trkpt lat="44.679" lon="3.03036">
        <ele>1162.37</ele>
        <time>2014-06-30T08:43:13Z</time>
      </trkpt>
      <trkpt lat="44.679" lon="3.03038">
        <ele>1162.37</ele>
        <time>2014-06-30T08:43:29Z</time>
      </trkpt>
      <trkpt lat="44.67898" lon="3.03045">
        <ele>1162.37</ele>
        <time>2014-06-30T08:43:34Z</time>
      </trkpt>
      <trkpt lat="44.67897" lon="3.0305">
        <ele>1160.93</ele>
        <time>2014-06-30T08:43:37Z</time>
      </trkpt>
      <trkpt lat="44.67896" lon="3.03054">
        <ele>1160.45</ele>
        <time>2014-06-30T08:43:49Z</time>
      </trkpt>
      <trkpt lat="44.67896" lon="3.03058">
        <ele>1159.97</ele>
        <time>2014-06-30T08:44:07Z</time>
      </trkpt>
      <trkpt lat="44.67895" lon="3.03057">
        <ele>1159.97</ele>
        <time>2014-06-30T08:44:11Z</time>
      </trkpt>
      <trkpt lat="44.67896" lon="3.03066">
        <ele>1159.01</ele>
        <time>2014-06-30T08:44:18Z</time>
      </trkpt>
      <trkpt lat="44.67901" lon="3.03066">
        <ele>1157.08</ele>
        <time>2014-06-30T08:44:28Z</time>
      </trkpt>
      <trkpt lat="44.67918" lon="3.03064">
        <ele>1154.2</ele>
        <time>2014-06-30T08:44:43Z</time>
      </trkpt>
      <trkpt lat="44.67919" lon="3.03065">
        <ele>1154.2</ele>
        <time>2014-06-30T08:44:44Z</time>
      </trkpt>
      <trkpt lat="44.67922" lon="3.03074">
        <ele>1152.28</ele>
        <time>2014-06-30T08:44:52Z</time>
      </trkpt>
      <trkpt lat="44.67923" lon="3.03079">
        <ele>1151.8</ele>
        <time>2014-06-30T08:44:55Z</time>
      </trkpt>
      <trkpt lat="44.67923" lon="3.03086">
        <ele>1150.84</ele>
        <time>2014-06-30T08:45:03Z</time>
      </trkpt>
      <trkpt lat="44.67927" lon="3.031">
        <ele>1149.87</ele>
        <time>2014-06-30T08:45:11Z</time>
      </trkpt>
      <trkpt lat="44.67935" lon="3.03109">
        <ele>1148.91</ele>
        <time>2014-06-30T08:45:19Z</time>
      </trkpt>
      <trkpt lat="44.67946" lon="3.03105">
        <ele>1147.95</ele>
        <time>2014-06-30T08:45:27Z</time>
      </trkpt>
      <trkpt lat="44.67947" lon="3.03104">
        <ele>1147.47</ele>
        <time>2014-06-30T08:45:28Z</time>
      </trkpt>
      <trkpt lat="44.67949" lon="3.03102">
        <ele>1146.99</ele>
        <time>2014-06-30T08:45:29Z</time>
      </trkpt>
      <trkpt lat="44.67958" lon="3.03092">
        <ele>1145.07</ele>
        <time>2014-06-30T08:45:38Z</time>
      </trkpt>
      <trkpt lat="44.6796" lon="3.03091">
        <ele>1144.59</ele>
        <time>2014-06-30T08:45:41Z</time>
      </trkpt>
      <trkpt lat="44.67961" lon="3.0309">
        <ele>1144.59</ele>
        <time>2014-06-30T08:45:42Z</time>
      </trkpt>
      <trkpt lat="44.67963" lon="3.03089">
        <ele>1144.59</ele>
        <time>2014-06-30T08:45:43Z</time>
      </trkpt>
      <trkpt lat="44.67969" lon="3.03092">
        <ele>1143.63</ele>
        <time>2014-06-30T08:45:52Z</time>
      </trkpt>
      <trkpt lat="44.67971" lon="3.03095">
        <ele>1142.66</ele>
        <time>2014-06-30T08:45:54Z</time>
      </trkpt>
      <trkpt lat="44.67976" lon="3.03108">
        <ele>1141.7</ele>
        <time>2014-06-30T08:46:08Z</time>
      </trkpt>
      <trkpt lat="44.67985" lon="3.03131">
        <ele>1140.26</ele>
        <time>2014-06-30T08:46:26Z</time>
      </trkpt>
      <trkpt lat="44.67988" lon="3.03138">
        <ele>1139.78</ele>
        <time>2014-06-30T08:46:40Z</time>
      </trkpt>
      <trkpt lat="44.67989" lon="3.03139">
        <ele>1139.78</ele>
        <time>2014-06-30T08:46:41Z</time>
      </trkpt>
      <trkpt lat="44.6799" lon="3.0314">
        <ele>1139.78</ele>
        <time>2014-06-30T08:46:42Z</time>
      </trkpt>
      <trkpt lat="44.67992" lon="3.0314">
        <ele>1139.78</ele>
        <time>2014-06-30T08:46:43Z</time>
      </trkpt>
      <trkpt lat="44.67997" lon="3.03143">
        <ele>1138.82</ele>
        <time>2014-06-30T08:46:50Z</time>
      </trkpt>
      <trkpt lat="44.68" lon="3.03144">
        <ele>1138.34</ele>
        <time>2014-06-30T08:47:04Z</time>
      </trkpt>
      <trkpt lat="44.68002" lon="3.03143">
        <ele>1137.86</ele>
        <time>2014-06-30T08:47:13Z</time>
      </trkpt>
      <trkpt lat="44.6801" lon="3.03149">
        <ele>1136.9</ele>
        <time>2014-06-30T08:47:20Z</time>
      </trkpt>
      <trkpt lat="44.6802" lon="3.03155">
        <ele>1135.45</ele>
        <time>2014-06-30T08:47:30Z</time>
      </trkpt>
      <trkpt lat="44.68025" lon="3.03159">
        <ele>1134.49</ele>
        <time>2014-06-30T08:47:44Z</time>
      </trkpt>
      <trkpt lat="44.68026" lon="3.03161">
        <ele>1134.01</ele>
        <time>2014-06-30T08:47:57Z</time>
      </trkpt>
      <trkpt lat="44.68023" lon="3.03159">
        <ele>1134.01</ele>
        <time>2014-06-30T08:48:10Z</time>
      </trkpt>
      <trkpt lat="44.68023" lon="3.03158">
        <ele>1134.01</ele>
        <time>2014-06-30T08:48:28Z</time>
      </trkpt>
      <trkpt lat="44.68023" lon="3.03155">
        <ele>1134.01</ele>
        <time>2014-06-30T08:48:56Z</time>
      </trkpt>
      <trkpt lat="44.68029" lon="3.03161">
        <ele>1133.53</ele>
        <time>2014-06-30T08:49:09Z</time>
      </trkpt>
      <trkpt lat="44.68035" lon="3.03172">
        <ele>1132.09</ele>
        <time>2014-06-30T08:49:22Z</time>
      </trkpt>
      <trkpt lat="44.68038" lon="3.03182">
        <ele>1131.13</ele>
        <time>2014-06-30T08:49:36Z</time>
      </trkpt>
      <trkpt lat="44.68044" lon="3.03189">
        <ele>1129.21</ele>
        <time>2014-06-30T08:49:48Z</time>
      </trkpt>
      <trkpt lat="44.68051" lon="3.03195">
        <ele>1127.28</ele>
        <time>2014-06-30T08:50:01Z</time>
      </trkpt>
      <trkpt lat="44.68062" lon="3.03202">
        <ele>1124.88</ele>
        <time>2014-06-30T08:50:14Z</time>
      </trkpt>
      <trkpt lat="44.68068" lon="3.03203">
        <ele>1124.4</ele>
        <time>2014-06-30T08:50:19Z</time>
      </trkpt>
      <trkpt lat="44.68075" lon="3.03209">
        <ele>1122.96</ele>
        <time>2014-06-30T08:50:30Z</time>
      </trkpt>
      <trkpt lat="44.68078" lon="3.03213">
        <ele>1122.96</ele>
        <time>2014-06-30T08:50:33Z</time>
      </trkpt>
      <trkpt lat="44.68079" lon="3.03214">
        <ele>1122.96</ele>
        <time>2014-06-30T08:50:34Z</time>
      </trkpt>
      <trkpt lat="44.68089" lon="3.03229">
        <ele>1120.07</ele>
        <time>2014-06-30T08:50:49Z</time>
      </trkpt>
      <trkpt lat="44.6809" lon="3.03231">
        <ele>1120.07</ele>
        <time>2014-06-30T08:50:50Z</time>
      </trkpt>
      <trkpt lat="44.6809" lon="3.03232">
        <ele>1120.07</ele>
        <time>2014-06-30T08:50:51Z</time>
      </trkpt>
      <trkpt lat="44.68096" lon="3.03233">
        <ele>1118.63</ele>
        <time>2014-06-30T08:50:58Z</time>
      </trkpt>
      <trkpt lat="44.68097" lon="3.03233">
        <ele>1118.63</ele>
        <time>2014-06-30T08:50:59Z</time>
      </trkpt>
      <trkpt lat="44.68109" lon="3.03222">
        <ele>1117.67</ele>
        <time>2014-06-30T08:51:10Z</time>
      </trkpt>
      <trkpt lat="44.68124" lon="3.03216">
        <ele>1116.71</ele>
        <time>2014-06-30T08:51:23Z</time>
      </trkpt>
      <trkpt lat="44.68125" lon="3.03215">
        <ele>1116.71</ele>
        <time>2014-06-30T08:51:33Z</time>
      </trkpt>
      <trkpt lat="44.68124" lon="3.03218">
        <ele>1116.71</ele>
        <time>2014-06-30T08:52:04Z</time>
      </trkpt>
      <trkpt lat="44.68135" lon="3.03215">
        <ele>1116.23</ele>
        <time>2014-06-30T08:52:29Z</time>
      </trkpt>
      <trkpt lat="44.68141" lon="3.03216">
        <ele>1115.75</ele>
        <time>2014-06-30T08:52:35Z</time>
      </trkpt>
      <trkpt lat="44.68154" lon="3.03216">
        <ele>1114.79</ele>
        <time>2014-06-30T08:52:46Z</time>
      </trkpt>
      <trkpt lat="44.68157" lon="3.03215">
        <ele>1114.79</ele>
        <time>2014-06-30T08:52:50Z</time>
      </trkpt>
      <trkpt lat="44.68159" lon="3.03215">
        <ele>1114.79</ele>
        <time>2014-06-30T08:52:51Z</time>
      </trkpt>
      <trkpt lat="44.68179" lon="3.03219">
        <ele>1114.31</ele>
        <time>2014-06-30T08:53:07Z</time>
      </trkpt>
      <trkpt lat="44.68198" lon="3.03227">
        <ele>1114.31</ele>
        <time>2014-06-30T08:53:23Z</time>
      </trkpt>
      <trkpt lat="44.68202" lon="3.03227">
        <ele>1114.31</ele>
        <time>2014-06-30T08:53:26Z</time>
      </trkpt>
      <trkpt lat="44.68216" lon="3.03228">
        <ele>1114.31</ele>
        <time>2014-06-30T08:53:38Z</time>
      </trkpt>
      <trkpt lat="44.6822" lon="3.03228">
        <ele>1114.31</ele>
        <time>2014-06-30T08:53:41Z</time>
      </trkpt>
      <trkpt lat="44.68223" lon="3.03229">
        <ele>1114.31</ele>
        <time>2014-06-30T08:53:44Z</time>
      </trkpt>
      <trkpt lat="44.68225" lon="3.03229">
        <ele>1114.31</ele>
        <time>2014-06-30T08:53:45Z</time>
      </trkpt>
      <trkpt lat="44.68226" lon="3.03229">
        <ele>1113.82</ele>
        <time>2014-06-30T08:53:46Z</time>
      </trkpt>
      <trkpt lat="44.68245" lon="3.03236">
        <ele>1113.82</ele>
        <time>2014-06-30T08:54:03Z</time>
      </trkpt>
      <trkpt lat="44.68251" lon="3.03238">
        <ele>1112.86</ele>
        <time>2014-06-30T08:54:08Z</time>
      </trkpt>
      <trkpt lat="44.68253" lon="3.03239">
        <ele>1112.86</ele>
        <time>2014-06-30T08:54:09Z</time>
      </trkpt>
      <trkpt lat="44.68254" lon="3.0324">
        <ele>1112.86</ele>
        <time>2014-06-30T08:54:10Z</time>
      </trkpt>
      <trkpt lat="44.68255" lon="3.0324">
        <ele>1112.86</ele>
        <time>2014-06-30T08:54:11Z</time>
      </trkpt>
      <trkpt lat="44.68256" lon="3.0324">
        <ele>1112.38</ele>
        <time>2014-06-30T08:54:12Z</time>
      </trkpt>
      <trkpt lat="44.6826" lon="3.03241">
        <ele>1112.38</ele>
        <time>2014-06-30T08:54:15Z</time>
      </trkpt>
      <trkpt lat="44.6826" lon="3.03243">
        <ele>1112.38</ele>
        <time>2014-06-30T08:54:16Z</time>
      </trkpt>
      <trkpt lat="44.68261" lon="3.03244">
        <ele>1112.38</ele>
        <time>2014-06-30T08:54:17Z</time>
      </trkpt>
      <trkpt lat="44.68265" lon="3.03251">
        <ele>1112.38</ele>
        <time>2014-06-30T08:54:23Z</time>
      </trkpt>
      <trkpt lat="44.68266" lon="3.03259">
        <ele>1112.38</ele>
        <time>2014-06-30T08:54:28Z</time>
      </trkpt>
      <trkpt lat="44.68267" lon="3.0326">
        <ele>1112.38</ele>
        <time>2014-06-30T08:54:29Z</time>
      </trkpt>
      <trkpt lat="44.68278" lon="3.03281">
        <ele>1109.98</ele>
        <time>2014-06-30T08:54:44Z</time>
      </trkpt>
      <trkpt lat="44.68294" lon="3.03291">
        <ele>1108.54</ele>
        <time>2014-06-30T08:55:00Z</time>
      </trkpt>
      <trkpt lat="44.6831" lon="3.03294">
        <ele>1107.1</ele>
        <time>2014-06-30T08:55:13Z</time>
      </trkpt>
      <trkpt lat="44.68332" lon="3.03308">
        <ele>1105.17</ele>
        <time>2014-06-30T08:55:31Z</time>
      </trkpt>
      <trkpt lat="44.68356" lon="3.03312">
        <ele>1103.73</ele>
        <time>2014-06-30T08:55:49Z</time>
      </trkpt>
      <trkpt lat="44.68378" lon="3.0331">
        <ele>1102.77</ele>
        <time>2014-06-30T08:56:07Z</time>
      </trkpt>
      <trkpt lat="44.68379" lon="3.03311">
        <ele>1102.77</ele>
        <time>2014-06-30T08:56:08Z</time>
      </trkpt>
      <trkpt lat="44.6838" lon="3.03311">
        <ele>1102.29</ele>
        <time>2014-06-30T08:56:09Z</time>
      </trkpt>
      <trkpt lat="44.68381" lon="3.03312">
        <ele>1102.29</ele>
        <time>2014-06-30T08:56:10Z</time>
      </trkpt>
      <trkpt lat="44.68401" lon="3.03321">
        <ele>1101.33</ele>
        <time>2014-06-30T08:56:26Z</time>
      </trkpt>
      <trkpt lat="44.68413" lon="3.03331">
        <ele>1100.85</ele>
        <time>2014-06-30T08:56:37Z</time>
      </trkpt>
      <trkpt lat="44.68417" lon="3.03338">
        <ele>1100.85</ele>
        <time>2014-06-30T08:56:45Z</time>
      </trkpt>
      <trkpt lat="44.68433" lon="3.03353">
        <ele>1100.85</ele>
        <time>2014-06-30T08:57:01Z</time>
      </trkpt>
      <trkpt lat="44.6845" lon="3.03361">
        <ele>1100.85</ele>
        <time>2014-06-30T08:57:15Z</time>
      </trkpt>
      <trkpt lat="44.68451" lon="3.03362">
        <ele>1100.85</ele>
        <time>2014-06-30T08:57:17Z</time>
      </trkpt>
      <trkpt lat="44.68452" lon="3.03362">
        <ele>1100.85</ele>
        <time>2014-06-30T08:57:18Z</time>
      </trkpt>
      <trkpt lat="44.68454" lon="3.03361">
        <ele>1100.85</ele>
        <time>2014-06-30T08:57:20Z</time>
      </trkpt>
      <trkpt lat="44.68455" lon="3.03361">
        <ele>1100.85</ele>
        <time>2014-06-30T08:57:21Z</time>
      </trkpt>
      <trkpt lat="44.68479" lon="3.03361">
        <ele>1100.85</ele>
        <time>2014-06-30T08:57:39Z</time>
      </trkpt>
      <trkpt lat="44.68502" lon="3.03359">
        <ele>1100.85</ele>
        <time>2014-06-30T08:57:57Z</time>
      </trkpt>
      <trkpt lat="44.68524" lon="3.03346">
        <ele>1102.29</ele>
        <time>2014-06-30T08:58:15Z</time>
      </trkpt>
      <trkpt lat="44.68546" lon="3.03335">
        <ele>1102.29</ele>
        <time>2014-06-30T08:58:33Z</time>
      </trkpt>
      <trkpt lat="44.68571" lon="3.03318">
        <ele>1102.29</ele>
        <time>2014-06-30T08:58:55Z</time>
      </trkpt>
      <trkpt lat="44.68593" lon="3.03306">
        <ele>1102.77</ele>
        <time>2014-06-30T08:59:14Z</time>
      </trkpt>
      <trkpt lat="44.6862" lon="3.03298">
        <ele>1102.77</ele>
        <time>2014-06-30T08:59:35Z</time>
      </trkpt>
      <trkpt lat="44.68643" lon="3.03293">
        <ele>1103.25</ele>
        <time>2014-06-30T08:59:54Z</time>
      </trkpt>
      <trkpt lat="44.68663" lon="3.03296">
        <ele>1103.73</ele>
        <time>2014-06-30T09:00:11Z</time>
      </trkpt>
      <trkpt lat="44.6869" lon="3.03297">
        <ele>1104.69</ele>
        <time>2014-06-30T09:00:31Z</time>
      </trkpt>
      <trkpt lat="44.68692" lon="3.03297">
        <ele>1104.69</ele>
        <time>2014-06-30T09:00:32Z</time>
      </trkpt>
      <trkpt lat="44.68693" lon="3.03297">
        <ele>1104.69</ele>
        <time>2014-06-30T09:00:33Z</time>
      </trkpt>
      <trkpt lat="44.68695" lon="3.03297">
        <ele>1104.69</ele>
        <time>2014-06-30T09:00:34Z</time>
      </trkpt>
      <trkpt lat="44.68714" lon="3.03297">
        <ele>1105.17</ele>
        <time>2014-06-30T09:00:48Z</time>
      </trkpt>
      <trkpt lat="44.68722" lon="3.03296">
        <ele>1105.65</ele>
        <time>2014-06-30T09:00:56Z</time>
      </trkpt>
      <trkpt lat="44.6874" lon="3.03297">
        <ele>1106.13</ele>
        <time>2014-06-30T09:01:10Z</time>
      </trkpt>
      <trkpt lat="44.68742" lon="3.03297">
        <ele>1106.13</ele>
        <time>2014-06-30T09:01:11Z</time>
      </trkpt>
      <trkpt lat="44.68743" lon="3.03297">
        <ele>1106.13</ele>
        <time>2014-06-30T09:01:12Z</time>
      </trkpt>
      <trkpt lat="44.68745" lon="3.03298">
        <ele>1106.13</ele>
        <time>2014-06-30T09:01:13Z</time>
      </trkpt>
      <trkpt lat="44.68755" lon="3.03304">
        <ele>1106.61</ele>
        <time>2014-06-30T09:01:22Z</time>
      </trkpt>
      <trkpt lat="44.68755" lon="3.03305">
        <ele>1106.61</ele>
        <time>2014-06-30T09:01:23Z</time>
      </trkpt>
      <trkpt lat="44.68757" lon="3.03306">
        <ele>1106.61</ele>
        <time>2014-06-30T09:01:24Z</time>
      </trkpt>
      <trkpt lat="44.68769" lon="3.03321">
        <ele>1106.61</ele>
        <time>2014-06-30T09:01:38Z</time>
      </trkpt>
      <trkpt lat="44.68783" lon="3.03327">
        <ele>1107.1</ele>
        <time>2014-06-30T09:01:54Z</time>
      </trkpt>
      <trkpt lat="44.68784" lon="3.03328">
        <ele>1107.58</ele>
        <time>2014-06-30T09:02:11Z</time>
      </trkpt>
      <trkpt lat="44.68784" lon="3.03328">
        <ele>1108.06</ele>
        <time>2014-06-30T09:02:26Z</time>
      </trkpt>
      <trkpt lat="44.68785" lon="3.03328">
        <ele>1108.06</ele>
        <time>2014-06-30T09:02:45Z</time>
      </trkpt>
      <trkpt lat="44.68786" lon="3.03322">
        <ele>1108.06</ele>
        <time>2014-06-30T09:02:50Z</time>
      </trkpt>
      <trkpt lat="44.68788" lon="3.03301">
        <ele>1108.54</ele>
        <time>2014-06-30T09:03:02Z</time>
      </trkpt>
      <trkpt lat="44.68798" lon="3.03293">
        <ele>1109.02</ele>
        <time>2014-06-30T09:03:13Z</time>
      </trkpt>
      <trkpt lat="44.6881" lon="3.033">
        <ele>1110.46</ele>
        <time>2014-06-30T09:03:26Z</time>
      </trkpt>
      <trkpt lat="44.68824" lon="3.03307">
        <ele>1110.46</ele>
        <time>2014-06-30T09:03:40Z</time>
      </trkpt>
      <trkpt lat="44.68841" lon="3.03315">
        <ele>1111.42</ele>
        <time>2014-06-30T09:03:55Z</time>
      </trkpt>
      <trkpt lat="44.68852" lon="3.03318">
        <ele>1111.42</ele>
        <time>2014-06-30T09:04:04Z</time>
      </trkpt>
      <trkpt lat="44.68856" lon="3.03317">
        <ele>1111.42</ele>
        <time>2014-06-30T09:04:08Z</time>
      </trkpt>
      <trkpt lat="44.68858" lon="3.03316">
        <ele>1111.42</ele>
        <time>2014-06-30T09:04:10Z</time>
      </trkpt>
      <trkpt lat="44.6886" lon="3.03316">
        <ele>1111.42</ele>
        <time>2014-06-30T09:04:11Z</time>
      </trkpt>
      <trkpt lat="44.68871" lon="3.03317">
        <ele>1110.94</ele>
        <time>2014-06-30T09:04:20Z</time>
      </trkpt>
      <trkpt lat="44.68874" lon="3.03319">
        <ele>1111.42</ele>
        <time>2014-06-30T09:04:23Z</time>
      </trkpt>
      <trkpt lat="44.68875" lon="3.03319">
        <ele>1111.42</ele>
        <time>2014-06-30T09:04:24Z</time>
      </trkpt>
      <trkpt lat="44.68876" lon="3.0332">
        <ele>1111.42</ele>
        <time>2014-06-30T09:04:25Z</time>
      </trkpt>
      <trkpt lat="44.68877" lon="3.0332">
        <ele>1111.42</ele>
        <time>2014-06-30T09:04:26Z</time>
      </trkpt>
      <trkpt lat="44.68878" lon="3.03322">
        <ele>1111.42</ele>
        <time>2014-06-30T09:04:27Z</time>
      </trkpt>
      <trkpt lat="44.68879" lon="3.03322">
        <ele>1111.42</ele>
        <time>2014-06-30T09:04:28Z</time>
      </trkpt>
      <trkpt lat="44.6888" lon="3.03323">
        <ele>1111.42</ele>
        <time>2014-06-30T09:04:29Z</time>
      </trkpt>
      <trkpt lat="44.68881" lon="3.03324">
        <ele>1111.42</ele>
        <time>2014-06-30T09:04:30Z</time>
      </trkpt>
      <trkpt lat="44.68882" lon="3.03324">
        <ele>1111.42</ele>
        <time>2014-06-30T09:04:31Z</time>
      </trkpt>
      <trkpt lat="44.68899" lon="3.03336">
        <ele>1111.42</ele>
        <time>2014-06-30T09:04:48Z</time>
      </trkpt>
      <trkpt lat="44.68913" lon="3.03347">
        <ele>1111.42</ele>
        <time>2014-06-30T09:05:02Z</time>
      </trkpt>
      <trkpt lat="44.68929" lon="3.03359">
        <ele>1109.98</ele>
        <time>2014-06-30T09:05:19Z</time>
      </trkpt>
      <trkpt lat="44.68932" lon="3.03361">
        <ele>1109.98</ele>
        <time>2014-06-30T09:05:22Z</time>
      </trkpt>
      <trkpt lat="44.68933" lon="3.03362">
        <ele>1109.98</ele>
        <time>2014-06-30T09:05:23Z</time>
      </trkpt>
      <trkpt lat="44.68937" lon="3.03363">
        <ele>1109.98</ele>
        <time>2014-06-30T09:05:26Z</time>
      </trkpt>
      <trkpt lat="44.68938" lon="3.03363">
        <ele>1109.98</ele>
        <time>2014-06-30T09:05:27Z</time>
      </trkpt>
      <trkpt lat="44.68939" lon="3.03364">
        <ele>1109.98</ele>
        <time>2014-06-30T09:05:28Z</time>
      </trkpt>
      <trkpt lat="44.68961" lon="3.03373">
        <ele>1109.98</ele>
        <time>2014-06-30T09:05:45Z</time>
      </trkpt>
      <trkpt lat="44.68987" lon="3.03382">
        <ele>1109.5</ele>
        <time>2014-06-30T09:06:04Z</time>
      </trkpt>
      <trkpt lat="44.69008" lon="3.03391">
        <ele>1109.5</ele>
        <time>2014-06-30T09:06:22Z</time>
      </trkpt>
      <trkpt lat="44.6901" lon="3.03393">
        <ele>1109.5</ele>
        <time>2014-06-30T09:06:26Z</time>
      </trkpt>
      <trkpt lat="44.69014" lon="3.034">
        <ele>1109.5</ele>
        <time>2014-06-30T09:06:34Z</time>
      </trkpt>
      <trkpt lat="44.69017" lon="3.03413">
        <ele>1109.02</ele>
        <time>2014-06-30T09:06:43Z</time>
      </trkpt>
      <trkpt lat="44.69018" lon="3.03415">
        <ele>1109.02</ele>
        <time>2014-06-30T09:06:44Z</time>
      </trkpt>
      <trkpt lat="44.69033" lon="3.03427">
        <ele>1106.61</ele>
        <time>2014-06-30T09:07:00Z</time>
      </trkpt>
      <trkpt lat="44.69053" lon="3.03444">
        <ele>1103.73</ele>
        <time>2014-06-30T09:07:18Z</time>
      </trkpt>
      <trkpt lat="44.69072" lon="3.0345">
        <ele>1102.29</ele>
        <time>2014-06-30T09:07:34Z</time>
      </trkpt>
      <trkpt lat="44.69087" lon="3.03432">
        <ele>1101.33</ele>
        <time>2014-06-30T09:07:50Z</time>
      </trkpt>
      <trkpt lat="44.69103" lon="3.03412">
        <ele>1099.4</ele>
        <time>2014-06-30T09:08:06Z</time>
      </trkpt>
      <trkpt lat="44.69111" lon="3.03413">
        <ele>1098.92</ele>
        <time>2014-06-30T09:08:12Z</time>
      </trkpt>
      <trkpt lat="44.69112" lon="3.03414">
        <ele>1098.44</ele>
        <time>2014-06-30T09:08:13Z</time>
      </trkpt>
      <trkpt lat="44.69125" lon="3.03435">
        <ele>1096.52</ele>
        <time>2014-06-30T09:08:28Z</time>
      </trkpt>
      <trkpt lat="44.69142" lon="3.03447">
        <ele>1093.64</ele>
        <time>2014-06-30T09:08:45Z</time>
      </trkpt>
      <trkpt lat="44.69144" lon="3.03445">
        <ele>1093.64</ele>
        <time>2014-06-30T09:09:00Z</time>
      </trkpt>
      <trkpt lat="44.69148" lon="3.03444">
        <ele>1093.64</ele>
        <time>2014-06-30T09:09:06Z</time>
      </trkpt>
      <trkpt lat="44.6917" lon="3.03443">
        <ele>1090.27</ele>
        <time>2014-06-30T09:09:22Z</time>
      </trkpt>
      <trkpt lat="44.69183" lon="3.03459">
        <ele>1088.83</ele>
        <time>2014-06-30T09:09:39Z</time>
      </trkpt>
      <trkpt lat="44.69187" lon="3.03471">
        <ele>1088.35</ele>
        <time>2014-06-30T09:09:50Z</time>
      </trkpt>
      <trkpt lat="44.69186" lon="3.03473">
        <ele>1088.35</ele>
        <time>2014-06-30T09:09:51Z</time>
      </trkpt>
      <trkpt lat="44.69184" lon="3.03486">
        <ele>1086.91</ele>
        <time>2014-06-30T09:10:00Z</time>
      </trkpt>
      <trkpt lat="44.69185" lon="3.03488">
        <ele>1086.43</ele>
        <time>2014-06-30T09:10:01Z</time>
      </trkpt>
      <trkpt lat="44.69192" lon="3.03499">
        <ele>1084.99</ele>
        <time>2014-06-30T09:10:13Z</time>
      </trkpt>
      <trkpt lat="44.69209" lon="3.0351">
        <ele>1082.58</ele>
        <time>2014-06-30T09:10:28Z</time>
      </trkpt>
      <trkpt lat="44.69226" lon="3.03508">
        <ele>1081.14</ele>
        <time>2014-06-30T09:10:44Z</time>
      </trkpt>
      <trkpt lat="44.69246" lon="3.03501">
        <ele>1079.7</ele>
        <time>2014-06-30T09:11:02Z</time>
      </trkpt>
      <trkpt lat="44.69252" lon="3.03502">
        <ele>1079.7</ele>
        <time>2014-06-30T09:11:14Z</time>
      </trkpt>
      <trkpt lat="44.69255" lon="3.03508">
        <ele>1079.7</ele>
        <time>2014-06-30T09:11:28Z</time>
      </trkpt>
      <trkpt lat="44.69259" lon="3.03508">
        <ele>1079.7</ele>
        <time>2014-06-30T09:11:40Z</time>
      </trkpt>
      <trkpt lat="44.6926" lon="3.03508">
        <ele>1079.7</ele>
        <time>2014-06-30T09:11:41Z</time>
      </trkpt>
      <trkpt lat="44.6927" lon="3.03509">
        <ele>1077.78</ele>
        <time>2014-06-30T09:11:51Z</time>
      </trkpt>
      <trkpt lat="44.69272" lon="3.03508">
        <ele>1077.78</ele>
        <time>2014-06-30T09:11:53Z</time>
      </trkpt>
      <trkpt lat="44.69282" lon="3.03512">
        <ele>1075.85</ele>
        <time>2014-06-30T09:12:11Z</time>
      </trkpt>
      <trkpt lat="44.69296" lon="3.03515">
        <ele>1073.45</ele>
        <time>2014-06-30T09:12:26Z</time>
      </trkpt>
      <trkpt lat="44.69311" lon="3.03521">
        <ele>1071.05</ele>
        <time>2014-06-30T09:12:39Z</time>
      </trkpt>
      <trkpt lat="44.69312" lon="3.03521">
        <ele>1071.05</ele>
        <time>2014-06-30T09:12:40Z</time>
      </trkpt>
      <trkpt lat="44.69338" lon="3.03526">
        <ele>1070.08</ele>
        <time>2014-06-30T09:12:56Z</time>
      </trkpt>
      <trkpt lat="44.69341" lon="3.03527">
        <ele>1070.08</ele>
        <time>2014-06-30T09:12:58Z</time>
      </trkpt>
      <trkpt lat="44.69343" lon="3.03527">
        <ele>1070.08</ele>
        <time>2014-06-30T09:12:59Z</time>
      </trkpt>
      <trkpt lat="44.69344" lon="3.03526">
        <ele>1070.08</ele>
        <time>2014-06-30T09:13:00Z</time>
      </trkpt>
      <trkpt lat="44.69358" lon="3.03512">
        <ele>1070.08</ele>
        <time>2014-06-30T09:13:15Z</time>
      </trkpt>
      <trkpt lat="44.69372" lon="3.03498">
        <ele>1070.08</ele>
        <time>2014-06-30T09:13:31Z</time>
      </trkpt>
      <trkpt lat="44.69381" lon="3.03495">
        <ele>1069.6</ele>
        <time>2014-06-30T09:13:45Z</time>
      </trkpt>
      <trkpt lat="44.69384" lon="3.035">
        <ele>1069.6</ele>
        <time>2014-06-30T09:14:06Z</time>
      </trkpt>
      <trkpt lat="44.69387" lon="3.03501">
        <ele>1069.6</ele>
        <time>2014-06-30T09:14:08Z</time>
      </trkpt>
      <trkpt lat="44.69406" lon="3.03512">
        <ele>1071.05</ele>
        <time>2014-06-30T09:14:23Z</time>
      </trkpt>
      <trkpt lat="44.69411" lon="3.03515">
        <ele>1071.53</ele>
        <time>2014-06-30T09:14:27Z</time>
      </trkpt>
      <trkpt lat="44.69412" lon="3.03515">
        <ele>1071.53</ele>
        <time>2014-06-30T09:14:28Z</time>
      </trkpt>
      <trkpt lat="44.69413" lon="3.03516">
        <ele>1071.53</ele>
        <time>2014-06-30T09:14:29Z</time>
      </trkpt>
      <trkpt lat="44.6943" lon="3.03529">
        <ele>1071.53</ele>
        <time>2014-06-30T09:14:46Z</time>
      </trkpt>
      <trkpt lat="44.69449" lon="3.03537">
        <ele>1072.49</ele>
        <time>2014-06-30T09:15:01Z</time>
      </trkpt>
      <trkpt lat="44.69459" lon="3.03538">
        <ele>1073.93</ele>
        <time>2014-06-30T09:15:09Z</time>
      </trkpt>
      <trkpt lat="44.69467" lon="3.03539">
        <ele>1075.37</ele>
        <time>2014-06-30T09:15:16Z</time>
      </trkpt>
      <trkpt lat="44.69468" lon="3.0354">
        <ele>1075.37</ele>
        <time>2014-06-30T09:15:17Z</time>
      </trkpt>
      <trkpt lat="44.69466" lon="3.03543">
        <ele>1076.33</ele>
        <time>2014-06-30T09:15:20Z</time>
      </trkpt>
      <trkpt lat="44.69465" lon="3.03544">
        <ele>1076.33</ele>
        <time>2014-06-30T09:15:21Z</time>
      </trkpt>
      <trkpt lat="44.69452" lon="3.03561">
        <ele>1076.81</ele>
        <time>2014-06-30T09:15:37Z</time>
      </trkpt>
      <trkpt lat="44.69442" lon="3.03577">
        <ele>1078.26</ele>
        <time>2014-06-30T09:15:55Z</time>
      </trkpt>
      <trkpt lat="44.69431" lon="3.03599">
        <ele>1079.7</ele>
        <time>2014-06-30T09:16:16Z</time>
      </trkpt>
      <trkpt lat="44.69422" lon="3.03617">
        <ele>1080.66</ele>
        <time>2014-06-30T09:16:30Z</time>
      </trkpt>
      <trkpt lat="44.69411" lon="3.03646">
        <ele>1081.14</ele>
        <time>2014-06-30T09:16:48Z</time>
      </trkpt>
      <trkpt lat="44.69402" lon="3.03669">
        <ele>1082.1</ele>
        <time>2014-06-30T09:17:04Z</time>
      </trkpt>
      <trkpt lat="44.69388" lon="3.03693">
        <ele>1083.06</ele>
        <time>2014-06-30T09:17:21Z</time>
      </trkpt>
      <trkpt lat="44.69379" lon="3.03707">
        <ele>1083.54</ele>
        <time>2014-06-30T09:17:31Z</time>
      </trkpt>
      <trkpt lat="44.69378" lon="3.03709">
        <ele>1083.54</ele>
        <time>2014-06-30T09:17:32Z</time>
      </trkpt>
      <trkpt lat="44.69377" lon="3.03711">
        <ele>1083.54</ele>
        <time>2014-06-30T09:17:33Z</time>
      </trkpt>
      <trkpt lat="44.69376" lon="3.03712">
        <ele>1083.54</ele>
        <time>2014-06-30T09:17:34Z</time>
      </trkpt>
      <trkpt lat="44.69375" lon="3.03713">
        <ele>1084.02</ele>
        <time>2014-06-30T09:17:35Z</time>
      </trkpt>
      <trkpt lat="44.69374" lon="3.03714">
        <ele>1084.02</ele>
        <time>2014-06-30T09:17:36Z</time>
      </trkpt>
      <trkpt lat="44.69356" lon="3.03735">
        <ele>1084.5</ele>
        <time>2014-06-30T09:17:54Z</time>
      </trkpt>
      <trkpt lat="44.69338" lon="3.03759">
        <ele>1085.47</ele>
        <time>2014-06-30T09:18:13Z</time>
      </trkpt>
      <trkpt lat="44.69324" lon="3.0378">
        <ele>1086.43</ele>
        <time>2014-06-30T09:18:28Z</time>
      </trkpt>
      <trkpt lat="44.69322" lon="3.03782">
        <ele>1085.95</ele>
        <time>2014-06-30T09:18:30Z</time>
      </trkpt>
      <trkpt lat="44.69321" lon="3.03783">
        <ele>1085.95</ele>
        <time>2014-06-30T09:18:31Z</time>
      </trkpt>
      <trkpt lat="44.69307" lon="3.03803">
        <ele>1087.39</ele>
        <time>2014-06-30T09:18:47Z</time>
      </trkpt>
      <trkpt lat="44.69289" lon="3.03819">
        <ele>1087.87</ele>
        <time>2014-06-30T09:19:03Z</time>
      </trkpt>
      <trkpt lat="44.69269" lon="3.03842">
        <ele>1089.31</ele>
        <time>2014-06-30T09:19:21Z</time>
      </trkpt>
      <trkpt lat="44.69264" lon="3.0385">
        <ele>1089.31</ele>
        <time>2014-06-30T09:19:33Z</time>
      </trkpt>
      <trkpt lat="44.69258" lon="3.03864">
        <ele>1090.27</ele>
        <time>2014-06-30T09:19:46Z</time>
      </trkpt>
      <trkpt lat="44.69257" lon="3.03869">
        <ele>1090.27</ele>
        <time>2014-06-30T09:19:51Z</time>
      </trkpt>
      <trkpt lat="44.69249" lon="3.03887">
        <ele>1091.23</ele>
        <time>2014-06-30T09:20:04Z</time>
      </trkpt>
      <trkpt lat="44.69245" lon="3.03901">
        <ele>1091.23</ele>
        <time>2014-06-30T09:20:13Z</time>
      </trkpt>
      <trkpt lat="44.69245" lon="3.03903">
        <ele>1091.71</ele>
        <time>2014-06-30T09:20:14Z</time>
      </trkpt>
      <trkpt lat="44.69244" lon="3.03904">
        <ele>1091.71</ele>
        <time>2014-06-30T09:20:15Z</time>
      </trkpt>
      <trkpt lat="44.69244" lon="3.03906">
        <ele>1091.71</ele>
        <time>2014-06-30T09:20:16Z</time>
      </trkpt>
      <trkpt lat="44.69244" lon="3.03908">
        <ele>1092.2</ele>
        <time>2014-06-30T09:20:17Z</time>
      </trkpt>
      <trkpt lat="44.69242" lon="3.03936">
        <ele>1093.64</ele>
        <time>2014-06-30T09:20:34Z</time>
      </trkpt>
      <trkpt lat="44.69241" lon="3.03947">
        <ele>1094.12</ele>
        <time>2014-06-30T09:20:48Z</time>
      </trkpt>
      <trkpt lat="44.6924" lon="3.03949">
        <ele>1094.12</ele>
        <time>2014-06-30T09:21:09Z</time>
      </trkpt>
      <trkpt lat="44.69243" lon="3.03947">
        <ele>1094.12</ele>
        <time>2014-06-30T09:21:30Z</time>
      </trkpt>
      <trkpt lat="44.69236" lon="3.03964">
        <ele>1094.12</ele>
        <time>2014-06-30T09:21:42Z</time>
      </trkpt>
      <trkpt lat="44.69232" lon="3.03992">
        <ele>1094.12</ele>
        <time>2014-06-30T09:21:56Z</time>
      </trkpt>
      <trkpt lat="44.69231" lon="3.03993">
        <ele>1094.12</ele>
        <time>2014-06-30T09:21:57Z</time>
      </trkpt>
      <trkpt lat="44.6923" lon="3.03994">
        <ele>1094.12</ele>
        <time>2014-06-30T09:21:58Z</time>
      </trkpt>
      <trkpt lat="44.69229" lon="3.03996">
        <ele>1094.12</ele>
        <time>2014-06-30T09:21:59Z</time>
      </trkpt>
      <trkpt lat="44.69229" lon="3.03998">
        <ele>1094.12</ele>
        <time>2014-06-30T09:22:00Z</time>
      </trkpt>
      <trkpt lat="44.69228" lon="3.03999">
        <ele>1094.12</ele>
        <time>2014-06-30T09:22:01Z</time>
      </trkpt>
      <trkpt lat="44.69228" lon="3.04001">
        <ele>1094.12</ele>
        <time>2014-06-30T09:22:02Z</time>
      </trkpt>
      <trkpt lat="44.69224" lon="3.04021">
        <ele>1093.16</ele>
        <time>2014-06-30T09:22:13Z</time>
      </trkpt>
      <trkpt lat="44.69217" lon="3.04052">
        <ele>1092.68</ele>
        <time>2014-06-30T09:22:29Z</time>
      </trkpt>
      <trkpt lat="44.69213" lon="3.04064">
        <ele>1092.68</ele>
        <time>2014-06-30T09:22:35Z</time>
      </trkpt>
      <trkpt lat="44.69213" lon="3.04066">
        <ele>1092.68</ele>
        <time>2014-06-30T09:22:36Z</time>
      </trkpt>
      <trkpt lat="44.69213" lon="3.04067">
        <ele>1092.68</ele>
        <time>2014-06-30T09:22:37Z</time>
      </trkpt>
      <trkpt lat="44.69212" lon="3.0407">
        <ele>1092.68</ele>
        <time>2014-06-30T09:22:47Z</time>
      </trkpt>
      <trkpt lat="44.69213" lon="3.04069">
        <ele>1092.68</ele>
        <time>2014-06-30T09:22:51Z</time>
      </trkpt>
      <trkpt lat="44.69212" lon="3.0407">
        <ele>1092.68</ele>
        <time>2014-06-30T09:22:52Z</time>
      </trkpt>
      <trkpt lat="44.69211" lon="3.04071">
        <ele>1092.68</ele>
        <time>2014-06-30T09:22:53Z</time>
      </trkpt>
      <trkpt lat="44.6921" lon="3.04073">
        <ele>1092.68</ele>
        <time>2014-06-30T09:22:54Z</time>
      </trkpt>
      <trkpt lat="44.6921" lon="3.04075">
        <ele>1092.68</ele>
        <time>2014-06-30T09:22:55Z</time>
      </trkpt>
      <trkpt lat="44.69209" lon="3.04076">
        <ele>1092.68</ele>
        <time>2014-06-30T09:22:56Z</time>
      </trkpt>
      <trkpt lat="44.69205" lon="3.04091">
        <ele>1094.12</ele>
        <time>2014-06-30T09:23:04Z</time>
      </trkpt>
      <trkpt lat="44.69201" lon="3.04115">
        <ele>1095.08</ele>
        <time>2014-06-30T09:23:19Z</time>
      </trkpt>
      <trkpt lat="44.692" lon="3.04117">
        <ele>1095.08</ele>
        <time>2014-06-30T09:23:20Z</time>
      </trkpt>
      <trkpt lat="44.692" lon="3.04119">
        <ele>1095.08</ele>
        <time>2014-06-30T09:23:21Z</time>
      </trkpt>
      <trkpt lat="44.692" lon="3.04121">
        <ele>1095.56</ele>
        <time>2014-06-30T09:23:22Z</time>
      </trkpt>
      <trkpt lat="44.69199" lon="3.04122">
        <ele>1095.56</ele>
        <time>2014-06-30T09:23:23Z</time>
      </trkpt>
      <trkpt lat="44.69199" lon="3.04125">
        <ele>1095.56</ele>
        <time>2014-06-30T09:23:25Z</time>
      </trkpt>
      <trkpt lat="44.69198" lon="3.04128">
        <ele>1096.04</ele>
        <time>2014-06-30T09:23:27Z</time>
      </trkpt>
      <trkpt lat="44.69198" lon="3.0413">
        <ele>1096.04</ele>
        <time>2014-06-30T09:23:28Z</time>
      </trkpt>
      <trkpt lat="44.69197" lon="3.04132">
        <ele>1096.04</ele>
        <time>2014-06-30T09:23:29Z</time>
      </trkpt>
      <trkpt lat="44.69197" lon="3.04133">
        <ele>1096.04</ele>
        <time>2014-06-30T09:23:30Z</time>
      </trkpt>
      <trkpt lat="44.69197" lon="3.04135">
        <ele>1096.52</ele>
        <time>2014-06-30T09:23:31Z</time>
      </trkpt>
      <trkpt lat="44.69193" lon="3.04146">
        <ele>1097.48</ele>
        <time>2014-06-30T09:23:38Z</time>
      </trkpt>
      <trkpt lat="44.69188" lon="3.04152">
        <ele>1097.48</ele>
        <time>2014-06-30T09:23:43Z</time>
      </trkpt>
      <trkpt lat="44.6918" lon="3.04165">
        <ele>1098.92</ele>
        <time>2014-06-30T09:23:59Z</time>
      </trkpt>
      <trkpt lat="44.6918" lon="3.04165">
        <ele>1099.4</ele>
        <time>2014-06-30T09:24:13Z</time>
      </trkpt>
      <trkpt lat="44.69184" lon="3.04169">
        <ele>1099.89</ele>
        <time>2014-06-30T09:24:18Z</time>
      </trkpt>
      <trkpt lat="44.69184" lon="3.04169">
        <ele>1099.89</ele>
        <time>2014-06-30T09:24:19Z</time>
      </trkpt>
      <trkpt lat="44.69194" lon="3.04178">
        <ele>1100.37</ele>
        <time>2014-06-30T09:24:29Z</time>
      </trkpt>
      <trkpt lat="44.69195" lon="3.04179">
        <ele>1100.37</ele>
        <time>2014-06-30T09:24:30Z</time>
      </trkpt>
      <trkpt lat="44.69205" lon="3.04195">
        <ele>1101.81</ele>
        <time>2014-06-30T09:24:44Z</time>
      </trkpt>
      <trkpt lat="44.69213" lon="3.04204">
        <ele>1103.25</ele>
        <time>2014-06-30T09:24:56Z</time>
      </trkpt>
      <trkpt lat="44.69226" lon="3.04219">
        <ele>1105.17</ele>
        <time>2014-06-30T09:25:10Z</time>
      </trkpt>
      <trkpt lat="44.69233" lon="3.0422">
        <ele>1106.61</ele>
        <time>2014-06-30T09:25:24Z</time>
      </trkpt>
      <trkpt lat="44.69234" lon="3.04222">
        <ele>1106.13</ele>
        <time>2014-06-30T09:25:36Z</time>
      </trkpt>
      <trkpt lat="44.69233" lon="3.04223">
        <ele>1106.13</ele>
        <time>2014-06-30T09:25:57Z</time>
      </trkpt>
      <trkpt lat="44.69239" lon="3.04228">
        <ele>1107.58</ele>
        <time>2014-06-30T09:26:10Z</time>
      </trkpt>
      <trkpt lat="44.69237" lon="3.0423">
        <ele>1107.58</ele>
        <time>2014-06-30T09:26:13Z</time>
      </trkpt>
      <trkpt lat="44.69219" lon="3.0424">
        <ele>1108.54</ele>
        <time>2014-06-30T09:26:29Z</time>
      </trkpt>
      <trkpt lat="44.69211" lon="3.04242">
        <ele>1109.5</ele>
        <time>2014-06-30T09:26:36Z</time>
      </trkpt>
      <trkpt lat="44.69204" lon="3.04244">
        <ele>1109.98</ele>
        <time>2014-06-30T09:26:42Z</time>
      </trkpt>
      <trkpt lat="44.692" lon="3.04246">
        <ele>1109.98</ele>
        <time>2014-06-30T09:26:45Z</time>
      </trkpt>
      <trkpt lat="44.69185" lon="3.04249">
        <ele>1110.94</ele>
        <time>2014-06-30T09:26:56Z</time>
      </trkpt>
      <trkpt lat="44.69169" lon="3.04251">
        <ele>1112.38</ele>
        <time>2014-06-30T09:27:10Z</time>
      </trkpt>
      <trkpt lat="44.69146" lon="3.04256">
        <ele>1113.34</ele>
        <time>2014-06-30T09:27:28Z</time>
      </trkpt>
      <trkpt lat="44.69126" lon="3.04261">
        <ele>1114.79</ele>
        <time>2014-06-30T09:27:43Z</time>
      </trkpt>
      <trkpt lat="44.69107" lon="3.04278">
        <ele>1115.75</ele>
        <time>2014-06-30T09:28:00Z</time>
      </trkpt>
      <trkpt lat="44.69103" lon="3.04282">
        <ele>1116.71</ele>
        <time>2014-06-30T09:28:04Z</time>
      </trkpt>
      <trkpt lat="44.69102" lon="3.04282">
        <ele>1116.23</ele>
        <time>2014-06-30T09:28:07Z</time>
      </trkpt>
      <trkpt lat="44.69106" lon="3.04276">
        <ele>1116.71</ele>
        <time>2014-06-30T09:28:20Z</time>
      </trkpt>
      <trkpt lat="44.69101" lon="3.04283">
        <ele>1116.71</ele>
        <time>2014-06-30T09:28:27Z</time>
      </trkpt>
      <trkpt lat="44.69099" lon="3.04287">
        <ele>1116.71</ele>
        <time>2014-06-30T09:28:30Z</time>
      </trkpt>
      <trkpt lat="44.69094" lon="3.04297">
        <ele>1117.19</ele>
        <time>2014-06-30T09:28:38Z</time>
      </trkpt>
      <trkpt lat="44.69088" lon="3.04327">
        <ele>1119.11</ele>
        <time>2014-06-30T09:28:54Z</time>
      </trkpt>
      <trkpt lat="44.69091" lon="3.04358">
        <ele>1120.07</ele>
        <time>2014-06-30T09:29:11Z</time>
      </trkpt>
      <trkpt lat="44.69095" lon="3.0439">
        <ele>1121.03</ele>
        <time>2014-06-30T09:29:29Z</time>
      </trkpt>
      <trkpt lat="44.69098" lon="3.04419">
        <ele>1122</ele>
        <time>2014-06-30T09:29:44Z</time>
      </trkpt>
      <trkpt lat="44.691" lon="3.04427">
        <ele>1122</ele>
        <time>2014-06-30T09:29:51Z</time>
      </trkpt>
      <trkpt lat="44.69102" lon="3.04432">
        <ele>1122.48</ele>
        <time>2014-06-30T09:29:54Z</time>
      </trkpt>
      <trkpt lat="44.69104" lon="3.04442">
        <ele>1122.48</ele>
        <time>2014-06-30T09:30:00Z</time>
      </trkpt>
      <trkpt lat="44.69106" lon="3.04458">
        <ele>1122.96</ele>
        <time>2014-06-30T09:30:13Z</time>
      </trkpt>
      <trkpt lat="44.69107" lon="3.04467">
        <ele>1122.96</ele>
        <time>2014-06-30T09:30:24Z</time>
      </trkpt>
      <trkpt lat="44.69108" lon="3.04493">
        <ele>1123.92</ele>
        <time>2014-06-30T09:30:40Z</time>
      </trkpt>
      <trkpt lat="44.69111" lon="3.04519">
        <ele>1124.4</ele>
        <time>2014-06-30T09:30:55Z</time>
      </trkpt>
      <trkpt lat="44.69114" lon="3.04553">
        <ele>1124.88</ele>
        <time>2014-06-30T09:31:14Z</time>
      </trkpt>
      <trkpt lat="44.69118" lon="3.04587">
        <ele>1125.84</ele>
        <time>2014-06-30T09:31:32Z</time>
      </trkpt>
      <trkpt lat="44.69122" lon="3.04621">
        <ele>1126.8</ele>
        <time>2014-06-30T09:31:51Z</time>
      </trkpt>
      <trkpt lat="44.69125" lon="3.04653">
        <ele>1127.28</ele>
        <time>2014-06-30T09:32:09Z</time>
      </trkpt>
      <trkpt lat="44.69125" lon="3.04655">
        <ele>1127.28</ele>
        <time>2014-06-30T09:32:10Z</time>
      </trkpt>
      <trkpt lat="44.69127" lon="3.04659">
        <ele>1127.76</ele>
        <time>2014-06-30T09:32:14Z</time>
      </trkpt>
      <trkpt lat="44.69127" lon="3.04665">
        <ele>1127.76</ele>
        <time>2014-06-30T09:32:18Z</time>
      </trkpt>
      <trkpt lat="44.6913" lon="3.04697">
        <ele>1129.69</ele>
        <time>2014-06-30T09:32:37Z</time>
      </trkpt>
      <trkpt lat="44.69132" lon="3.04728">
        <ele>1131.61</ele>
        <time>2014-06-30T09:32:55Z</time>
      </trkpt>
      <trkpt lat="44.69136" lon="3.04746">
        <ele>1132.09</ele>
        <time>2014-06-30T09:33:08Z</time>
      </trkpt>
      <trkpt lat="44.6914" lon="3.04767">
        <ele>1133.05</ele>
        <time>2014-06-30T09:33:22Z</time>
      </trkpt>
      <trkpt lat="44.69143" lon="3.04781">
        <ele>1133.53</ele>
        <time>2014-06-30T09:33:33Z</time>
      </trkpt>
      <trkpt lat="44.69145" lon="3.04784">
        <ele>1133.53</ele>
        <time>2014-06-30T09:33:36Z</time>
      </trkpt>
      <trkpt lat="44.69148" lon="3.0479">
        <ele>1134.49</ele>
        <time>2014-06-30T09:33:41Z</time>
      </trkpt>
      <trkpt lat="44.69154" lon="3.04807">
        <ele>1135.45</ele>
        <time>2014-06-30T09:33:56Z</time>
      </trkpt>
      <trkpt lat="44.69156" lon="3.04812">
        <ele>1135.94</ele>
        <time>2014-06-30T09:33:59Z</time>
      </trkpt>
      <trkpt lat="44.69157" lon="3.04814">
        <ele>1135.94</ele>
        <time>2014-06-30T09:34:01Z</time>
      </trkpt>
      <trkpt lat="44.69161" lon="3.04824">
        <ele>1136.42</ele>
        <time>2014-06-30T09:34:08Z</time>
      </trkpt>
      <trkpt lat="44.69165" lon="3.04829">
        <ele>1136.9</ele>
        <time>2014-06-30T09:34:12Z</time>
      </trkpt>
      <trkpt lat="44.69166" lon="3.04831">
        <ele>1136.9</ele>
        <time>2014-06-30T09:34:14Z</time>
      </trkpt>
      <trkpt lat="44.69168" lon="3.04835">
        <ele>1136.9</ele>
        <time>2014-06-30T09:34:17Z</time>
      </trkpt>
      <trkpt lat="44.69175" lon="3.04851">
        <ele>1137.86</ele>
        <time>2014-06-30T09:34:31Z</time>
      </trkpt>
      <trkpt lat="44.69176" lon="3.04852">
        <ele>1137.86</ele>
        <time>2014-06-30T09:34:33Z</time>
      </trkpt>
      <trkpt lat="44.69177" lon="3.04854">
        <ele>1138.34</ele>
        <time>2014-06-30T09:34:36Z</time>
      </trkpt>
      <trkpt lat="44.69182" lon="3.04863">
        <ele>1138.82</ele>
        <time>2014-06-30T09:34:50Z</time>
      </trkpt>
      <trkpt lat="44.69185" lon="3.04867">
        <ele>1138.82</ele>
        <time>2014-06-30T09:34:55Z</time>
      </trkpt>
      <trkpt lat="44.69186" lon="3.0487">
        <ele>1139.3</ele>
        <time>2014-06-30T09:34:58Z</time>
      </trkpt>
      <trkpt lat="44.69187" lon="3.04873">
        <ele>1139.3</ele>
        <time>2014-06-30T09:35:00Z</time>
      </trkpt>
      <trkpt lat="44.69195" lon="3.04894">
        <ele>1140.26</ele>
        <time>2014-06-30T09:35:14Z</time>
      </trkpt>
      <trkpt lat="44.69196" lon="3.04895">
        <ele>1140.74</ele>
        <time>2014-06-30T09:35:15Z</time>
      </trkpt>
      <trkpt lat="44.69199" lon="3.04903">
        <ele>1140.74</ele>
        <time>2014-06-30T09:35:21Z</time>
      </trkpt>
      <trkpt lat="44.69202" lon="3.04915">
        <ele>1141.7</ele>
        <time>2014-06-30T09:35:29Z</time>
      </trkpt>
      <trkpt lat="44.69205" lon="3.04925">
        <ele>1142.66</ele>
        <time>2014-06-30T09:35:35Z</time>
      </trkpt>
      <trkpt lat="44.69207" lon="3.04938">
        <ele>1143.14</ele>
        <time>2014-06-30T09:35:46Z</time>
      </trkpt>
      <trkpt lat="44.6921" lon="3.04946">
        <ele>1143.63</ele>
        <time>2014-06-30T09:35:51Z</time>
      </trkpt>
      <trkpt lat="44.6921" lon="3.04954">
        <ele>1144.11</ele>
        <time>2014-06-30T09:35:57Z</time>
      </trkpt>
      <trkpt lat="44.69212" lon="3.04964">
        <ele>1144.11</ele>
        <time>2014-06-30T09:36:05Z</time>
      </trkpt>
      <trkpt lat="44.69212" lon="3.04973">
        <ele>1145.07</ele>
        <time>2014-06-30T09:36:13Z</time>
      </trkpt>
      <trkpt lat="44.69213" lon="3.0499">
        <ele>1145.55</ele>
        <time>2014-06-30T09:36:23Z</time>
      </trkpt>
      <trkpt lat="44.69215" lon="3.04995">
        <ele>1146.03</ele>
        <time>2014-06-30T09:36:27Z</time>
      </trkpt>
      <trkpt lat="44.69216" lon="3.05002">
        <ele>1146.99</ele>
        <time>2014-06-30T09:36:33Z</time>
      </trkpt>
      <trkpt lat="44.69223" lon="3.05024">
        <ele>1147.47</ele>
        <time>2014-06-30T09:36:47Z</time>
      </trkpt>
      <trkpt lat="44.69227" lon="3.05036">
        <ele>1148.43</ele>
        <time>2014-06-30T09:36:55Z</time>
      </trkpt>
      <trkpt lat="44.6923" lon="3.05046">
        <ele>1148.91</ele>
        <time>2014-06-30T09:37:01Z</time>
      </trkpt>
      <trkpt lat="44.69231" lon="3.05057">
        <ele>1149.39</ele>
        <time>2014-06-30T09:37:08Z</time>
      </trkpt>
      <trkpt lat="44.69231" lon="3.05084">
        <ele>1150.35</ele>
        <time>2014-06-30T09:37:23Z</time>
      </trkpt>
      <trkpt lat="44.69227" lon="3.05112">
        <ele>1150.35</ele>
        <time>2014-06-30T09:37:40Z</time>
      </trkpt>
      <trkpt lat="44.69224" lon="3.05132">
        <ele>1150.84</ele>
        <time>2014-06-30T09:37:55Z</time>
      </trkpt>
      <trkpt lat="44.69224" lon="3.05137">
        <ele>1150.84</ele>
        <time>2014-06-30T09:37:58Z</time>
      </trkpt>
      <trkpt lat="44.69224" lon="3.05143">
        <ele>1150.84</ele>
        <time>2014-06-30T09:38:02Z</time>
      </trkpt>
      <trkpt lat="44.69222" lon="3.0515">
        <ele>1150.84</ele>
        <time>2014-06-30T09:38:07Z</time>
      </trkpt>
      <trkpt lat="44.69215" lon="3.05162">
        <ele>1150.84</ele>
        <time>2014-06-30T09:38:19Z</time>
      </trkpt>
      <trkpt lat="44.69212" lon="3.05186">
        <ele>1151.8</ele>
        <time>2014-06-30T09:38:33Z</time>
      </trkpt>
      <trkpt lat="44.69215" lon="3.05205">
        <ele>1153.24</ele>
        <time>2014-06-30T09:38:47Z</time>
      </trkpt>
      <trkpt lat="44.69217" lon="3.0521">
        <ele>1154.2</ele>
        <time>2014-06-30T09:38:50Z</time>
      </trkpt>
      <trkpt lat="44.69217" lon="3.05213">
        <ele>1154.2</ele>
        <time>2014-06-30T09:38:52Z</time>
      </trkpt>
      <trkpt lat="44.69218" lon="3.05224">
        <ele>1155.64</ele>
        <time>2014-06-30T09:38:59Z</time>
      </trkpt>
      <trkpt lat="44.69217" lon="3.05227">
        <ele>1155.64</ele>
        <time>2014-06-30T09:39:01Z</time>
      </trkpt>
      <trkpt lat="44.6922" lon="3.05237">
        <ele>1158.05</ele>
        <time>2014-06-30T09:39:08Z</time>
      </trkpt>
      <trkpt lat="44.69222" lon="3.05249">
        <ele>1159.01</ele>
        <time>2014-06-30T09:39:17Z</time>
      </trkpt>
      <trkpt lat="44.6922" lon="3.05257">
        <ele>1160.45</ele>
        <time>2014-06-30T09:39:22Z</time>
      </trkpt>
      <trkpt lat="44.69219" lon="3.05262">
        <ele>1160.93</ele>
        <time>2014-06-30T09:39:26Z</time>
      </trkpt>
      <trkpt lat="44.69219" lon="3.05273">
        <ele>1161.41</ele>
        <time>2014-06-30T09:39:33Z</time>
      </trkpt>
      <trkpt lat="44.69218" lon="3.05277">
        <ele>1161.89</ele>
        <time>2014-06-30T09:39:36Z</time>
      </trkpt>
      <trkpt lat="44.6922" lon="3.05288">
        <ele>1163.81</ele>
        <time>2014-06-30T09:39:45Z</time>
      </trkpt>
      <trkpt lat="44.69226" lon="3.05307">
        <ele>1165.26</ele>
        <time>2014-06-30T09:39:58Z</time>
      </trkpt>
      <trkpt lat="44.69227" lon="3.0532">
        <ele>1165.74</ele>
        <time>2014-06-30T09:40:07Z</time>
      </trkpt>
      <trkpt lat="44.69228" lon="3.05324">
        <ele>1165.74</ele>
        <time>2014-06-30T09:40:10Z</time>
      </trkpt>
      <trkpt lat="44.69228" lon="3.05342">
        <ele>1166.7</ele>
        <time>2014-06-30T09:40:24Z</time>
      </trkpt>
      <trkpt lat="44.69228" lon="3.05347">
        <ele>1166.7</ele>
        <time>2014-06-30T09:40:37Z</time>
      </trkpt>
      <trkpt lat="44.69227" lon="3.05368">
        <ele>1165.74</ele>
        <time>2014-06-30T09:40:52Z</time>
      </trkpt>
      <trkpt lat="44.69227" lon="3.05372">
        <ele>1165.74</ele>
        <time>2014-06-30T09:40:55Z</time>
      </trkpt>
      <trkpt lat="44.69223" lon="3.05389">
        <ele>1163.81</ele>
        <time>2014-06-30T09:41:09Z</time>
      </trkpt>
      <trkpt lat="44.69223" lon="3.05398">
        <ele>1163.33</ele>
        <time>2014-06-30T09:41:13Z</time>
      </trkpt>
      <trkpt lat="44.69233" lon="3.05415">
        <ele>1162.37</ele>
        <time>2014-06-30T09:41:29Z</time>
      </trkpt>
      <trkpt lat="44.69245" lon="3.0543">
        <ele>1161.89</ele>
        <time>2014-06-30T09:41:44Z</time>
      </trkpt>
      <trkpt lat="44.69243" lon="3.05434">
        <ele>1161.41</ele>
        <time>2014-06-30T09:42:01Z</time>
      </trkpt>
      <trkpt lat="44.69243" lon="3.05434">
        <ele>1160.93</ele>
        <time>2014-06-30T09:42:19Z</time>
      </trkpt>
      <trkpt lat="44.69247" lon="3.05434">
        <ele>1160.93</ele>
        <time>2014-06-30T09:42:44Z</time>
      </trkpt>
      <trkpt lat="44.6925" lon="3.05435">
        <ele>1160.93</ele>
        <time>2014-06-30T09:43:06Z</time>
      </trkpt>
      <trkpt lat="44.69249" lon="3.05435">
        <ele>1160.93</ele>
        <time>2014-06-30T09:43:31Z</time>
      </trkpt>
      <trkpt lat="44.69251" lon="3.05437">
        <ele>1161.89</ele>
        <time>2014-06-30T09:43:51Z</time>
      </trkpt>
      <trkpt lat="44.69263" lon="3.05449">
        <ele>1161.89</ele>
        <time>2014-06-30T09:44:06Z</time>
      </trkpt>
      <trkpt lat="44.6927" lon="3.05452">
        <ele>1161.89</ele>
        <time>2014-06-30T09:44:20Z</time>
      </trkpt>
      <trkpt lat="44.69269" lon="3.05455">
        <ele>1161.89</ele>
        <time>2014-06-30T09:44:32Z</time>
      </trkpt>
      <trkpt lat="44.6927" lon="3.05454">
        <ele>1161.41</ele>
        <time>2014-06-30T09:44:45Z</time>
      </trkpt>
      <trkpt lat="44.69272" lon="3.05453">
        <ele>1161.41</ele>
        <time>2014-06-30T09:44:48Z</time>
      </trkpt>
      <trkpt lat="44.69274" lon="3.05454">
        <ele>1161.41</ele>
        <time>2014-06-30T09:44:50Z</time>
      </trkpt>
      <trkpt lat="44.6928" lon="3.05455">
        <ele>1161.41</ele>
        <time>2014-06-30T09:44:55Z</time>
      </trkpt>
      <trkpt lat="44.69288" lon="3.05459">
        <ele>1161.41</ele>
        <time>2014-06-30T09:45:02Z</time>
      </trkpt>
      <trkpt lat="44.69295" lon="3.05459">
        <ele>1161.89</ele>
        <time>2014-06-30T09:45:09Z</time>
      </trkpt>
      <trkpt lat="44.69299" lon="3.05462">
        <ele>1161.89</ele>
        <time>2014-06-30T09:45:13Z</time>
      </trkpt>
      <trkpt lat="44.69311" lon="3.05465">
        <ele>1162.85</ele>
        <time>2014-06-30T09:45:29Z</time>
      </trkpt>
      <trkpt lat="44.6931" lon="3.05464">
        <ele>1162.37</ele>
        <time>2014-06-30T09:45:52Z</time>
      </trkpt>
      <trkpt lat="44.69306" lon="3.05464">
        <ele>1162.37</ele>
        <time>2014-06-30T09:46:08Z</time>
      </trkpt>
      <trkpt lat="44.6931" lon="3.05464">
        <ele>1162.37</ele>
        <time>2014-06-30T09:46:30Z</time>
      </trkpt>
      <trkpt lat="44.69321" lon="3.05462">
        <ele>1163.33</ele>
        <time>2014-06-30T09:46:45Z</time>
      </trkpt>
      <trkpt lat="44.69331" lon="3.0546">
        <ele>1163.33</ele>
        <time>2014-06-30T09:47:01Z</time>
      </trkpt>
      <trkpt lat="44.6935" lon="3.05452">
        <ele>1163.81</ele>
        <time>2014-06-30T09:47:16Z</time>
      </trkpt>
      <trkpt lat="44.69369" lon="3.05444">
        <ele>1163.81</ele>
        <time>2014-06-30T09:47:32Z</time>
      </trkpt>
      <trkpt lat="44.69391" lon="3.05437">
        <ele>1163.33</ele>
        <time>2014-06-30T09:47:49Z</time>
      </trkpt>
      <trkpt lat="44.69393" lon="3.05437">
        <ele>1161.89</ele>
        <time>2014-06-30T09:47:51Z</time>
      </trkpt>
      <trkpt lat="44.6941" lon="3.05433">
        <ele>1161.89</ele>
        <time>2014-06-30T09:48:06Z</time>
      </trkpt>
      <trkpt lat="44.69427" lon="3.05426">
        <ele>1161.89</ele>
        <time>2014-06-30T09:48:21Z</time>
      </trkpt>
      <trkpt lat="44.69446" lon="3.05416">
        <ele>1160.45</ele>
        <time>2014-06-30T09:48:40Z</time>
      </trkpt>
      <trkpt lat="44.69444" lon="3.05418">
        <ele>1160.45</ele>
        <time>2014-06-30T09:48:52Z</time>
      </trkpt>
      <trkpt lat="44.69443" lon="3.0542">
        <ele>1160.45</ele>
        <time>2014-06-30T09:49:05Z</time>
      </trkpt>
      <trkpt lat="44.69444" lon="3.05418">
        <ele>1160.45</ele>
        <time>2014-06-30T09:49:19Z</time>
      </trkpt>
      <trkpt lat="44.69445" lon="3.05417">
        <ele>1160.45</ele>
        <time>2014-06-30T09:49:41Z</time>
      </trkpt>
      <trkpt lat="44.69446" lon="3.05417">
        <ele>1160.45</ele>
        <time>2014-06-30T09:50:06Z</time>
      </trkpt>
      <trkpt lat="44.69445" lon="3.05417">
        <ele>1160.45</ele>
        <time>2014-06-30T09:50:22Z</time>
      </trkpt>
      <trkpt lat="44.69444" lon="3.05419">
        <ele>1160.45</ele>
        <time>2014-06-30T09:50:35Z</time>
      </trkpt>
      <trkpt lat="44.69444" lon="3.05418">
        <ele>1160.45</ele>
        <time>2014-06-30T09:51:00Z</time>
      </trkpt>
      <trkpt lat="44.69445" lon="3.05416">
        <ele>1160.93</ele>
        <time>2014-06-30T09:51:16Z</time>
      </trkpt>
      <trkpt lat="44.69446" lon="3.05419">
        <ele>1159.49</ele>
        <time>2014-06-30T09:51:31Z</time>
      </trkpt>
      <trkpt lat="44.69444" lon="3.0542">
        <ele>1159.49</ele>
        <time>2014-06-30T09:51:56Z</time>
      </trkpt>
      <trkpt lat="44.69444" lon="3.05421">
        <ele>1159.49</ele>
        <time>2014-06-30T09:52:15Z</time>
      </trkpt>
      <trkpt lat="44.69444" lon="3.05421">
        <ele>1159.49</ele>
        <time>2014-06-30T09:52:31Z</time>
      </trkpt>
      <trkpt lat="44.69445" lon="3.0542">
        <ele>1159.49</ele>
        <time>2014-06-30T09:52:51Z</time>
      </trkpt>
      <trkpt lat="44.69445" lon="3.0542">
        <ele>1159.49</ele>
        <time>2014-06-30T09:53:21Z</time>
      </trkpt>
      <trkpt lat="44.69446" lon="3.05419">
        <ele>1159.49</ele>
        <time>2014-06-30T09:53:48Z</time>
      </trkpt>
      <trkpt lat="44.69446" lon="3.0542">
        <ele>1159.49</ele>
        <time>2014-06-30T09:54:17Z</time>
      </trkpt>
      <trkpt lat="44.69443" lon="3.05421">
        <ele>1158.05</ele>
        <time>2014-06-30T09:54:46Z</time>
      </trkpt>
      <trkpt lat="44.69443" lon="3.05419">
        <ele>1158.05</ele>
        <time>2014-06-30T09:55:13Z</time>
      </trkpt>
      <trkpt lat="44.69443" lon="3.05418">
        <ele>1158.05</ele>
        <time>2014-06-30T09:55:28Z</time>
      </trkpt>
      <trkpt lat="44.69444" lon="3.05416">
        <ele>1158.05</ele>
        <time>2014-06-30T09:56:01Z</time>
      </trkpt>
      <trkpt lat="44.69445" lon="3.05418">
        <ele>1158.05</ele>
        <time>2014-06-30T09:56:34Z</time>
      </trkpt>
      <trkpt lat="44.69445" lon="3.05419">
        <ele>1158.53</ele>
        <time>2014-06-30T09:56:46Z</time>
      </trkpt>
      <trkpt lat="44.69444" lon="3.05418">
        <ele>1159.01</ele>
        <time>2014-06-30T09:57:00Z</time>
      </trkpt>
      <trkpt lat="44.69445" lon="3.05419">
        <ele>1159.01</ele>
        <time>2014-06-30T09:57:20Z</time>
      </trkpt>
      <trkpt lat="44.69443" lon="3.05416">
        <ele>1159.01</ele>
        <time>2014-06-30T09:57:48Z</time>
      </trkpt>
      <trkpt lat="44.69445" lon="3.05415">
        <ele>1159.01</ele>
        <time>2014-06-30T09:58:14Z</time>
      </trkpt>
      <trkpt lat="44.69444" lon="3.05416">
        <ele>1158.05</ele>
        <time>2014-06-30T09:58:39Z</time>
      </trkpt>
      <trkpt lat="44.69444" lon="3.05416">
        <ele>1159.49</ele>
        <time>2014-06-30T09:58:41Z</time>
      </trkpt>
      <trkpt lat="44.69445" lon="3.05416">
        <ele>1159.49</ele>
        <time>2014-06-30T09:59:09Z</time>
      </trkpt>
      <trkpt lat="44.69445" lon="3.05415">
        <ele>1159.49</ele>
        <time>2014-06-30T09:59:23Z</time>
      </trkpt>
      <trkpt lat="44.69446" lon="3.05415">
        <ele>1158.05</ele>
        <time>2014-06-30T09:59:40Z</time>
      </trkpt>
      <trkpt lat="44.69446" lon="3.05415">
        <ele>1158.05</ele>
        <time>2014-06-30T10:00:08Z</time>
      </trkpt>
      <trkpt lat="44.69446" lon="3.05415">
        <ele>1158.05</ele>
        <time>2014-06-30T10:00:36Z</time>
      </trkpt>
      <trkpt lat="44.69444" lon="3.05417">
        <ele>1159.49</ele>
        <time>2014-06-30T10:00:43Z</time>
      </trkpt>
      <trkpt lat="44.69443" lon="3.0542">
        <ele>1159.49</ele>
        <time>2014-06-30T10:00:55Z</time>
      </trkpt>
      <trkpt lat="44.69443" lon="3.0542">
        <ele>1159.49</ele>
        <time>2014-06-30T10:00:56Z</time>
      </trkpt>
      <trkpt lat="44.69447" lon="3.05419">
        <ele>1158.05</ele>
        <time>2014-06-30T10:01:08Z</time>
      </trkpt>
      <trkpt lat="44.69449" lon="3.05421">
        <ele>1158.05</ele>
        <time>2014-06-30T10:01:31Z</time>
      </trkpt>
      <trkpt lat="44.69451" lon="3.0542">
        <ele>1157.56</ele>
        <time>2014-06-30T10:01:34Z</time>
      </trkpt>
      <trkpt lat="44.69453" lon="3.0542">
        <ele>1159.49</ele>
        <time>2014-06-30T10:01:36Z</time>
      </trkpt>
      <trkpt lat="44.69457" lon="3.05422">
        <ele>1158.05</ele>
        <time>2014-06-30T10:01:40Z</time>
      </trkpt>
      <trkpt lat="44.69468" lon="3.05425">
        <ele>1156.6</ele>
        <time>2014-06-30T10:01:50Z</time>
      </trkpt>
      <trkpt lat="44.69471" lon="3.05425">
        <ele>1158.05</ele>
        <time>2014-06-30T10:01:52Z</time>
      </trkpt>
      <trkpt lat="44.69475" lon="3.05426">
        <ele>1156.6</ele>
        <time>2014-06-30T10:01:56Z</time>
      </trkpt>
      <trkpt lat="44.69495" lon="3.0543">
        <ele>1157.08</ele>
        <time>2014-06-30T10:02:12Z</time>
      </trkpt>
      <trkpt lat="44.69499" lon="3.05431">
        <ele>1156.12</ele>
        <time>2014-06-30T10:02:15Z</time>
      </trkpt>
      <trkpt lat="44.69509" lon="3.05435">
        <ele>1157.08</ele>
        <time>2014-06-30T10:02:24Z</time>
      </trkpt>
      <trkpt lat="44.69526" lon="3.05442">
        <ele>1155.16</ele>
        <time>2014-06-30T10:02:39Z</time>
      </trkpt>
      <trkpt lat="44.69539" lon="3.05448">
        <ele>1155.16</ele>
        <time>2014-06-30T10:02:50Z</time>
      </trkpt>
      <trkpt lat="44.69545" lon="3.05451">
        <ele>1154.2</ele>
        <time>2014-06-30T10:02:55Z</time>
      </trkpt>
      <trkpt lat="44.69565" lon="3.05457">
        <ele>1153.72</ele>
        <time>2014-06-30T10:03:10Z</time>
      </trkpt>
      <trkpt lat="44.69584" lon="3.0546">
        <ele>1152.76</ele>
        <time>2014-06-30T10:03:26Z</time>
      </trkpt>
      <trkpt lat="44.69595" lon="3.0546">
        <ele>1152.28</ele>
        <time>2014-06-30T10:03:35Z</time>
      </trkpt>
      <trkpt lat="44.69618" lon="3.05463">
        <ele>1151.8</ele>
        <time>2014-06-30T10:03:53Z</time>
      </trkpt>
      <trkpt lat="44.6964" lon="3.05464">
        <ele>1150.84</ele>
        <time>2014-06-30T10:04:10Z</time>
      </trkpt>
      <trkpt lat="44.69659" lon="3.05466">
        <ele>1149.87</ele>
        <time>2014-06-30T10:04:24Z</time>
      </trkpt>
      <trkpt lat="44.69678" lon="3.05468">
        <ele>1149.87</ele>
        <time>2014-06-30T10:04:39Z</time>
      </trkpt>
      <trkpt lat="44.69689" lon="3.05468">
        <ele>1148.43</ele>
        <time>2014-06-30T10:04:48Z</time>
      </trkpt>
      <trkpt lat="44.69695" lon="3.05469">
        <ele>1148.43</ele>
        <time>2014-06-30T10:04:54Z</time>
      </trkpt>
      <trkpt lat="44.69715" lon="3.05468">
        <ele>1147.95</ele>
        <time>2014-06-30T10:05:09Z</time>
      </trkpt>
      <trkpt lat="44.69735" lon="3.05468">
        <ele>1147.47</ele>
        <time>2014-06-30T10:05:25Z</time>
      </trkpt>
      <trkpt lat="44.69753" lon="3.05464">
        <ele>1146.99</ele>
        <time>2014-06-30T10:05:39Z</time>
      </trkpt>
      <trkpt lat="44.69776" lon="3.05457">
        <ele>1146.51</ele>
        <time>2014-06-30T10:05:56Z</time>
      </trkpt>
      <trkpt lat="44.69797" lon="3.05452">
        <ele>1146.03</ele>
        <time>2014-06-30T10:06:11Z</time>
      </trkpt>
      <trkpt lat="44.69817" lon="3.05453">
        <ele>1145.55</ele>
        <time>2014-06-30T10:06:27Z</time>
      </trkpt>
      <trkpt lat="44.69836" lon="3.05457">
        <ele>1145.55</ele>
        <time>2014-06-30T10:06:42Z</time>
      </trkpt>
      <trkpt lat="44.69856" lon="3.05462">
        <ele>1144.11</ele>
        <time>2014-06-30T10:06:57Z</time>
      </trkpt>
      <trkpt lat="44.69875" lon="3.0547">
        <ele>1144.11</ele>
        <time>2014-06-30T10:07:12Z</time>
      </trkpt>
      <trkpt lat="44.69894" lon="3.05477">
        <ele>1143.63</ele>
        <time>2014-06-30T10:07:27Z</time>
      </trkpt>
      <trkpt lat="44.69898" lon="3.05479">
        <ele>1143.63</ele>
        <time>2014-06-30T10:07:30Z</time>
      </trkpt>
      <trkpt lat="44.69923" lon="3.05487">
        <ele>1142.66</ele>
        <time>2014-06-30T10:07:49Z</time>
      </trkpt>
      <trkpt lat="44.69937" lon="3.0549">
        <ele>1142.66</ele>
        <time>2014-06-30T10:08:00Z</time>
      </trkpt>
      <trkpt lat="44.6996" lon="3.05494">
        <ele>1142.66</ele>
        <time>2014-06-30T10:08:18Z</time>
      </trkpt>
      <trkpt lat="44.6998" lon="3.05493">
        <ele>1142.18</ele>
        <time>2014-06-30T10:08:33Z</time>
      </trkpt>
      <trkpt lat="44.70002" lon="3.055">
        <ele>1141.22</ele>
        <time>2014-06-30T10:08:49Z</time>
      </trkpt>
      <trkpt lat="44.70023" lon="3.05507">
        <ele>1140.26</ele>
        <time>2014-06-30T10:09:05Z</time>
      </trkpt>
      <trkpt lat="44.70045" lon="3.0551">
        <ele>1139.78</ele>
        <time>2014-06-30T10:09:22Z</time>
      </trkpt>
      <trkpt lat="44.70069" lon="3.0551">
        <ele>1139.3</ele>
        <time>2014-06-30T10:09:39Z</time>
      </trkpt>
      <trkpt lat="44.70092" lon="3.05501">
        <ele>1138.82</ele>
        <time>2014-06-30T10:09:56Z</time>
      </trkpt>
      <trkpt lat="44.70096" lon="3.05499">
        <ele>1139.3</ele>
        <time>2014-06-30T10:09:59Z</time>
      </trkpt>
      <trkpt lat="44.70116" lon="3.05477">
        <ele>1137.86</ele>
        <time>2014-06-30T10:10:17Z</time>
      </trkpt>
      <trkpt lat="44.70137" lon="3.05464">
        <ele>1135.45</ele>
        <time>2014-06-30T10:10:34Z</time>
      </trkpt>
      <trkpt lat="44.70158" lon="3.05468">
        <ele>1135.45</ele>
        <time>2014-06-30T10:10:50Z</time>
      </trkpt>
      <trkpt lat="44.70162" lon="3.0547">
        <ele>1136.9</ele>
        <time>2014-06-30T10:10:53Z</time>
      </trkpt>
      <trkpt lat="44.70173" lon="3.05478">
        <ele>1137.86</ele>
        <time>2014-06-30T10:11:06Z</time>
      </trkpt>
      <trkpt lat="44.70187" lon="3.05491">
        <ele>1138.82</ele>
        <time>2014-06-30T10:11:19Z</time>
      </trkpt>
      <trkpt lat="44.70202" lon="3.05503">
        <ele>1138.82</ele>
        <time>2014-06-30T10:11:33Z</time>
      </trkpt>
      <trkpt lat="44.70217" lon="3.05512">
        <ele>1139.78</ele>
        <time>2014-06-30T10:11:45Z</time>
      </trkpt>
      <trkpt lat="44.7022" lon="3.05513">
        <ele>1141.22</ele>
        <time>2014-06-30T10:11:47Z</time>
      </trkpt>
      <trkpt lat="44.70227" lon="3.05519">
        <ele>1140.26</ele>
        <time>2014-06-30T10:11:53Z</time>
      </trkpt>
      <trkpt lat="44.70233" lon="3.05522">
        <ele>1141.22</ele>
        <time>2014-06-30T10:11:58Z</time>
      </trkpt>
      <trkpt lat="44.70253" lon="3.05527">
        <ele>1142.66</ele>
        <time>2014-06-30T10:12:13Z</time>
      </trkpt>
      <trkpt lat="44.70273" lon="3.05531">
        <ele>1143.63</ele>
        <time>2014-06-30T10:12:28Z</time>
      </trkpt>
      <trkpt lat="44.70293" lon="3.05533">
        <ele>1145.07</ele>
        <time>2014-06-30T10:12:43Z</time>
      </trkpt>
      <trkpt lat="44.703" lon="3.05533">
        <ele>1145.55</ele>
        <time>2014-06-30T10:12:49Z</time>
      </trkpt>
      <trkpt lat="44.70321" lon="3.05532">
        <ele>1146.03</ele>
        <time>2014-06-30T10:13:04Z</time>
      </trkpt>
      <trkpt lat="44.70341" lon="3.05528">
        <ele>1147.47</ele>
        <time>2014-06-30T10:13:19Z</time>
      </trkpt>
      <trkpt lat="44.70362" lon="3.05522">
        <ele>1148.43</ele>
        <time>2014-06-30T10:13:34Z</time>
      </trkpt>
      <trkpt lat="44.70375" lon="3.05516">
        <ele>1148.91</ele>
        <time>2014-06-30T10:13:47Z</time>
      </trkpt>
      <trkpt lat="44.70396" lon="3.05508">
        <ele>1150.84</ele>
        <time>2014-06-30T10:14:04Z</time>
      </trkpt>
      <trkpt lat="44.70412" lon="3.05504">
        <ele>1149.87</ele>
        <time>2014-06-30T10:14:18Z</time>
      </trkpt>
      <trkpt lat="44.70415" lon="3.05503">
        <ele>1151.8</ele>
        <time>2014-06-30T10:14:20Z</time>
      </trkpt>
      <trkpt lat="44.70433" lon="3.05494">
        <ele>1152.76</ele>
        <time>2014-06-30T10:14:35Z</time>
      </trkpt>
      <trkpt lat="44.70452" lon="3.05484">
        <ele>1152.28</ele>
        <time>2014-06-30T10:14:50Z</time>
      </trkpt>
      <trkpt lat="44.70464" lon="3.05488">
        <ele>1153.72</ele>
        <time>2014-06-30T10:14:59Z</time>
      </trkpt>
      <trkpt lat="44.70474" lon="3.05492">
        <ele>1154.2</ele>
        <time>2014-06-30T10:15:06Z</time>
      </trkpt>
      <trkpt lat="44.70479" lon="3.05496">
        <ele>1154.68</ele>
        <time>2014-06-30T10:15:10Z</time>
      </trkpt>
      <trkpt lat="44.70499" lon="3.05514">
        <ele>1154.68</ele>
        <time>2014-06-30T10:15:27Z</time>
      </trkpt>
      <trkpt lat="44.70517" lon="3.05531">
        <ele>1154.68</ele>
        <time>2014-06-30T10:15:43Z</time>
      </trkpt>
      <trkpt lat="44.7054" lon="3.0555">
        <ele>1154.68</ele>
        <time>2014-06-30T10:16:01Z</time>
      </trkpt>
      <trkpt lat="44.70557" lon="3.05565">
        <ele>1155.16</ele>
        <time>2014-06-30T10:16:16Z</time>
      </trkpt>
      <trkpt lat="44.70572" lon="3.05585">
        <ele>1155.64</ele>
        <time>2014-06-30T10:16:31Z</time>
      </trkpt>
      <trkpt lat="44.70589" lon="3.05599">
        <ele>1158.53</ele>
        <time>2014-06-30T10:16:46Z</time>
      </trkpt>
      <trkpt lat="44.70609" lon="3.05615">
        <ele>1158.53</ele>
        <time>2014-06-30T10:17:02Z</time>
      </trkpt>
      <trkpt lat="44.70631" lon="3.05631">
        <ele>1159.49</ele>
        <time>2014-06-30T10:17:18Z</time>
      </trkpt>
      <trkpt lat="44.70652" lon="3.05649">
        <ele>1159.49</ele>
        <time>2014-06-30T10:17:36Z</time>
      </trkpt>
      <trkpt lat="44.70675" lon="3.05666">
        <ele>1159.49</ele>
        <time>2014-06-30T10:17:52Z</time>
      </trkpt>
      <trkpt lat="44.70695" lon="3.05684">
        <ele>1159.49</ele>
        <time>2014-06-30T10:18:08Z</time>
      </trkpt>
      <trkpt lat="44.70719" lon="3.05702">
        <ele>1159.49</ele>
        <time>2014-06-30T10:18:26Z</time>
      </trkpt>
      <trkpt lat="44.70742" lon="3.05721">
        <ele>1159.01</ele>
        <time>2014-06-30T10:18:44Z</time>
      </trkpt>
      <trkpt lat="44.70764" lon="3.05739">
        <ele>1159.01</ele>
        <time>2014-06-30T10:19:01Z</time>
      </trkpt>
      <trkpt lat="44.70783" lon="3.05754">
        <ele>1160.45</ele>
        <time>2014-06-30T10:19:17Z</time>
      </trkpt>
      <trkpt lat="44.70791" lon="3.05762">
        <ele>1160.45</ele>
        <time>2014-06-30T10:19:24Z</time>
      </trkpt>
      <trkpt lat="44.70797" lon="3.05767">
        <ele>1160.93</ele>
        <time>2014-06-30T10:19:29Z</time>
      </trkpt>
      <trkpt lat="44.70798" lon="3.05775">
        <ele>1160.93</ele>
        <time>2014-06-30T10:19:33Z</time>
      </trkpt>
      <trkpt lat="44.70791" lon="3.05807">
        <ele>1160.93</ele>
        <time>2014-06-30T10:19:50Z</time>
      </trkpt>
      <trkpt lat="44.70789" lon="3.0584">
        <ele>1159.49</ele>
        <time>2014-06-30T10:20:07Z</time>
      </trkpt>
      <trkpt lat="44.70788" lon="3.05842">
        <ele>1159.49</ele>
        <time>2014-06-30T10:20:08Z</time>
      </trkpt>
      <trkpt lat="44.70804" lon="3.05862">
        <ele>1159.49</ele>
        <time>2014-06-30T10:20:24Z</time>
      </trkpt>
      <trkpt lat="44.70822" lon="3.05876">
        <ele>1160.93</ele>
        <time>2014-06-30T10:20:40Z</time>
      </trkpt>
      <trkpt lat="44.70842" lon="3.05887">
        <ele>1161.89</ele>
        <time>2014-06-30T10:20:56Z</time>
      </trkpt>
      <trkpt lat="44.70853" lon="3.05901">
        <ele>1162.37</ele>
        <time>2014-06-30T10:21:07Z</time>
      </trkpt>
      <trkpt lat="44.70859" lon="3.05909">
        <ele>1162.37</ele>
        <time>2014-06-30T10:21:13Z</time>
      </trkpt>
      <trkpt lat="44.70863" lon="3.05915">
        <ele>1162.37</ele>
        <time>2014-06-30T10:21:17Z</time>
      </trkpt>
      <trkpt lat="44.70882" lon="3.05933">
        <ele>1163.81</ele>
        <time>2014-06-30T10:21:33Z</time>
      </trkpt>
      <trkpt lat="44.70884" lon="3.05935">
        <ele>1163.81</ele>
        <time>2014-06-30T10:21:35Z</time>
      </trkpt>
      <trkpt lat="44.70887" lon="3.05936">
        <ele>1164.29</ele>
        <time>2014-06-30T10:21:38Z</time>
      </trkpt>
      <trkpt lat="44.70891" lon="3.05941">
        <ele>1164.29</ele>
        <time>2014-06-30T10:21:42Z</time>
      </trkpt>
      <trkpt lat="44.70894" lon="3.05945">
        <ele>1164.29</ele>
        <time>2014-06-30T10:21:45Z</time>
      </trkpt>
      <trkpt lat="44.70903" lon="3.05951">
        <ele>1164.29</ele>
        <time>2014-06-30T10:21:52Z</time>
      </trkpt>
      <trkpt lat="44.70925" lon="3.05969">
        <ele>1164.29</ele>
        <time>2014-06-30T10:22:10Z</time>
      </trkpt>
      <trkpt lat="44.70943" lon="3.05982">
        <ele>1165.26</ele>
        <time>2014-06-30T10:22:25Z</time>
      </trkpt>
      <trkpt lat="44.70945" lon="3.05981">
        <ele>1165.26</ele>
        <time>2014-06-30T10:22:32Z</time>
      </trkpt>
      <trkpt lat="44.70947" lon="3.05981">
        <ele>1165.26</ele>
        <time>2014-06-30T10:22:34Z</time>
      </trkpt>
      <trkpt lat="44.70959" lon="3.05984">
        <ele>1165.74</ele>
        <time>2014-06-30T10:22:47Z</time>
      </trkpt>
      <trkpt lat="44.70979" lon="3.05989">
        <ele>1166.22</ele>
        <time>2014-06-30T10:23:02Z</time>
      </trkpt>
      <trkpt lat="44.70994" lon="3.05994">
        <ele>1167.66</ele>
        <time>2014-06-30T10:23:15Z</time>
      </trkpt>
      <trkpt lat="44.71013" lon="3.06002">
        <ele>1167.66</ele>
        <time>2014-06-30T10:23:30Z</time>
      </trkpt>
      <trkpt lat="44.71034" lon="3.06003">
        <ele>1167.18</ele>
        <time>2014-06-30T10:23:46Z</time>
      </trkpt>
      <trkpt lat="44.7104" lon="3.06004">
        <ele>1167.18</ele>
        <time>2014-06-30T10:23:52Z</time>
      </trkpt>
      <trkpt lat="44.71044" lon="3.06004">
        <ele>1167.18</ele>
        <time>2014-06-30T10:23:56Z</time>
      </trkpt>
      <trkpt lat="44.71047" lon="3.06004">
        <ele>1167.18</ele>
        <time>2014-06-30T10:23:58Z</time>
      </trkpt>
      <trkpt lat="44.71056" lon="3.06003">
        <ele>1167.18</ele>
        <time>2014-06-30T10:24:04Z</time>
      </trkpt>
      <trkpt lat="44.71079" lon="3.06006">
        <ele>1166.22</ele>
        <time>2014-06-30T10:24:20Z</time>
      </trkpt>
      <trkpt lat="44.71103" lon="3.06011">
        <ele>1167.66</ele>
        <time>2014-06-30T10:24:38Z</time>
      </trkpt>
      <trkpt lat="44.71105" lon="3.06011">
        <ele>1167.66</ele>
        <time>2014-06-30T10:24:39Z</time>
      </trkpt>
      <trkpt lat="44.71128" lon="3.06017">
        <ele>1168.14</ele>
        <time>2014-06-30T10:24:56Z</time>
      </trkpt>
      <trkpt lat="44.71139" lon="3.06023">
        <ele>1168.14</ele>
        <time>2014-06-30T10:25:06Z</time>
      </trkpt>
      <trkpt lat="44.71159" lon="3.06035">
        <ele>1166.7</ele>
        <time>2014-06-30T10:25:22Z</time>
      </trkpt>
      <trkpt lat="44.71179" lon="3.06051">
        <ele>1166.22</ele>
        <time>2014-06-30T10:25:38Z</time>
      </trkpt>
      <trkpt lat="44.71194" lon="3.06063">
        <ele>1166.22</ele>
        <time>2014-06-30T10:25:51Z</time>
      </trkpt>
      <trkpt lat="44.71209" lon="3.06077">
        <ele>1166.22</ele>
        <time>2014-06-30T10:26:04Z</time>
      </trkpt>
      <trkpt lat="44.71223" lon="3.06089">
        <ele>1166.22</ele>
        <time>2014-06-30T10:26:17Z</time>
      </trkpt>
      <trkpt lat="44.71239" lon="3.06105">
        <ele>1166.22</ele>
        <time>2014-06-30T10:26:31Z</time>
      </trkpt>
      <trkpt lat="44.71245" lon="3.06112">
        <ele>1167.18</ele>
        <time>2014-06-30T10:26:37Z</time>
      </trkpt>
      <trkpt lat="44.71247" lon="3.06118">
        <ele>1167.18</ele>
        <time>2014-06-30T10:26:48Z</time>
      </trkpt>
      <trkpt lat="44.71248" lon="3.06118">
        <ele>1167.18</ele>
        <time>2014-06-30T10:26:49Z</time>
      </trkpt>
      <trkpt lat="44.7125" lon="3.06119">
        <ele>1167.66</ele>
        <time>2014-06-30T10:26:51Z</time>
      </trkpt>
      <trkpt lat="44.71252" lon="3.06122">
        <ele>1167.66</ele>
        <time>2014-06-30T10:27:08Z</time>
      </trkpt>
      <trkpt lat="44.71255" lon="3.06124">
        <ele>1168.62</ele>
        <time>2014-06-30T10:27:25Z</time>
      </trkpt>
      <trkpt lat="44.71267" lon="3.06138">
        <ele>1168.62</ele>
        <time>2014-06-30T10:27:37Z</time>
      </trkpt>
      <trkpt lat="44.71284" lon="3.06153">
        <ele>1169.1</ele>
        <time>2014-06-30T10:27:52Z</time>
      </trkpt>
      <trkpt lat="44.71285" lon="3.06154">
        <ele>1169.1</ele>
        <time>2014-06-30T10:27:53Z</time>
      </trkpt>
      <trkpt lat="44.71289" lon="3.06159">
        <ele>1169.1</ele>
        <time>2014-06-30T10:27:57Z</time>
      </trkpt>
      <trkpt lat="44.71309" lon="3.06175">
        <ele>1169.1</ele>
        <time>2014-06-30T10:28:14Z</time>
      </trkpt>
      <trkpt lat="44.71329" lon="3.0619">
        <ele>1168.62</ele>
        <time>2014-06-30T10:28:30Z</time>
      </trkpt>
      <trkpt lat="44.71341" lon="3.06199">
        <ele>1168.62</ele>
        <time>2014-06-30T10:28:41Z</time>
      </trkpt>
      <trkpt lat="44.71349" lon="3.06196">
        <ele>1168.62</ele>
        <time>2014-06-30T10:28:47Z</time>
      </trkpt>
      <trkpt lat="44.71368" lon="3.06185">
        <ele>1168.62</ele>
        <time>2014-06-30T10:29:03Z</time>
      </trkpt>
      <trkpt lat="44.71387" lon="3.06165">
        <ele>1168.62</ele>
        <time>2014-06-30T10:29:20Z</time>
      </trkpt>
      <trkpt lat="44.71401" lon="3.06143">
        <ele>1168.62</ele>
        <time>2014-06-30T10:29:35Z</time>
      </trkpt>
      <trkpt lat="44.71407" lon="3.06135">
        <ele>1168.62</ele>
        <time>2014-06-30T10:29:42Z</time>
      </trkpt>
      <trkpt lat="44.71417" lon="3.06118">
        <ele>1167.66</ele>
        <time>2014-06-30T10:29:54Z</time>
      </trkpt>
      <trkpt lat="44.71421" lon="3.06112">
        <ele>1167.66</ele>
        <time>2014-06-30T10:29:59Z</time>
      </trkpt>
      <trkpt lat="44.71426" lon="3.06103">
        <ele>1167.66</ele>
        <time>2014-06-30T10:30:05Z</time>
      </trkpt>
      <trkpt lat="44.71431" lon="3.06095">
        <ele>1167.66</ele>
        <time>2014-06-30T10:30:11Z</time>
      </trkpt>
      <trkpt lat="44.7145" lon="3.0607">
        <ele>1167.66</ele>
        <time>2014-06-30T10:30:31Z</time>
      </trkpt>
      <trkpt lat="44.71471" lon="3.0607">
        <ele>1167.66</ele>
        <time>2014-06-30T10:30:46Z</time>
      </trkpt>
      <trkpt lat="44.71483" lon="3.06076">
        <ele>1167.18</ele>
        <time>2014-06-30T10:30:55Z</time>
      </trkpt>
      <trkpt lat="44.71499" lon="3.06087">
        <ele>1167.18</ele>
        <time>2014-06-30T10:31:09Z</time>
      </trkpt>
      <trkpt lat="44.71513" lon="3.06095">
        <ele>1167.18</ele>
        <time>2014-06-30T10:31:21Z</time>
      </trkpt>
      <trkpt lat="44.71516" lon="3.06096">
        <ele>1167.18</ele>
        <time>2014-06-30T10:31:23Z</time>
      </trkpt>
      <trkpt lat="44.71537" lon="3.06105">
        <ele>1167.18</ele>
        <time>2014-06-30T10:31:39Z</time>
      </trkpt>
      <trkpt lat="44.7155" lon="3.06113">
        <ele>1165.74</ele>
        <time>2014-06-30T10:31:49Z</time>
      </trkpt>
      <trkpt lat="44.71558" lon="3.06119">
        <ele>1165.74</ele>
        <time>2014-06-30T10:31:56Z</time>
      </trkpt>
      <trkpt lat="44.7157" lon="3.06128">
        <ele>1165.74</ele>
        <time>2014-06-30T10:32:08Z</time>
      </trkpt>
      <trkpt lat="44.71588" lon="3.06138">
        <ele>1165.26</ele>
        <time>2014-06-30T10:32:23Z</time>
      </trkpt>
      <trkpt lat="44.71589" lon="3.06139">
        <ele>1165.26</ele>
        <time>2014-06-30T10:32:24Z</time>
      </trkpt>
      <trkpt lat="44.71596" lon="3.06143">
        <ele>1165.26</ele>
        <time>2014-06-30T10:32:31Z</time>
      </trkpt>
      <trkpt lat="44.71616" lon="3.06149">
        <ele>1164.77</ele>
        <time>2014-06-30T10:32:47Z</time>
      </trkpt>
      <trkpt lat="44.71623" lon="3.06154">
        <ele>1164.77</ele>
        <time>2014-06-30T10:32:52Z</time>
      </trkpt>
      <trkpt lat="44.7163" lon="3.0616">
        <ele>1164.77</ele>
        <time>2014-06-30T10:32:58Z</time>
      </trkpt>
      <trkpt lat="44.71637" lon="3.06166">
        <ele>1164.77</ele>
        <time>2014-06-30T10:33:04Z</time>
      </trkpt>
      <trkpt lat="44.71643" lon="3.06175">
        <ele>1165.26</ele>
        <time>2014-06-30T10:33:19Z</time>
      </trkpt>
      <trkpt lat="44.71644" lon="3.06176">
        <ele>1163.81</ele>
        <time>2014-06-30T10:33:31Z</time>
      </trkpt>
      <trkpt lat="44.71644" lon="3.06177">
        <ele>1163.81</ele>
        <time>2014-06-30T10:34:08Z</time>
      </trkpt>
      <trkpt lat="44.71646" lon="3.06174">
        <ele>1162.85</ele>
        <time>2014-06-30T10:34:55Z</time>
      </trkpt>
      <trkpt lat="44.71645" lon="3.06178">
        <ele>1163.33</ele>
        <time>2014-06-30T10:35:38Z</time>
      </trkpt>
      <trkpt lat="44.71645" lon="3.06178">
        <ele>1162.85</ele>
        <time>2014-06-30T10:36:18Z</time>
      </trkpt>
      <trkpt lat="44.71646" lon="3.06175">
        <ele>1162.85</ele>
        <time>2014-06-30T10:37:00Z</time>
      </trkpt>
      <trkpt lat="44.71646" lon="3.06175">
        <ele>1162.85</ele>
        <time>2014-06-30T10:37:10Z</time>
      </trkpt>
      <trkpt lat="44.71643" lon="3.06175">
        <ele>1162.85</ele>
        <time>2014-06-30T10:37:24Z</time>
      </trkpt>
      <trkpt lat="44.71643" lon="3.06176">
        <ele>1162.85</ele>
        <time>2014-06-30T10:37:54Z</time>
      </trkpt>
      <trkpt lat="44.71644" lon="3.06175">
        <ele>1162.85</ele>
        <time>2014-06-30T10:38:28Z</time>
      </trkpt>
      <trkpt lat="44.71644" lon="3.06172">
        <ele>1162.85</ele>
        <time>2014-06-30T10:38:55Z</time>
      </trkpt>
      <trkpt lat="44.71644" lon="3.06174">
        <ele>1162.85</ele>
        <time>2014-06-30T10:39:22Z</time>
      </trkpt>
      <trkpt lat="44.71644" lon="3.06175">
        <ele>1163.33</ele>
        <time>2014-06-30T10:39:46Z</time>
      </trkpt>
      <trkpt lat="44.71644" lon="3.06174">
        <ele>1163.33</ele>
        <time>2014-06-30T10:40:11Z</time>
      </trkpt>
      <trkpt lat="44.71644" lon="3.06174">
        <ele>1164.29</ele>
        <time>2014-06-30T10:40:34Z</time>
      </trkpt>
      <trkpt lat="44.71645" lon="3.06175">
        <ele>1164.77</ele>
        <time>2014-06-30T10:41:09Z</time>
      </trkpt>
      <trkpt lat="44.71646" lon="3.06176">
        <ele>1164.77</ele>
        <time>2014-06-30T10:41:34Z</time>
      </trkpt>
      <trkpt lat="44.71646" lon="3.06175">
        <ele>1164.77</ele>
        <time>2014-06-30T10:42:00Z</time>
      </trkpt>
      <trkpt lat="44.71644" lon="3.06175">
        <ele>1164.77</ele>
        <time>2014-06-30T10:42:27Z</time>
      </trkpt>
      <trkpt lat="44.71644" lon="3.06175">
        <ele>1164.77</ele>
        <time>2014-06-30T10:43:02Z</time>
      </trkpt>
      <trkpt lat="44.71644" lon="3.06173">
        <ele>1165.26</ele>
        <time>2014-06-30T10:43:37Z</time>
      </trkpt>
      <trkpt lat="44.71644" lon="3.06173">
        <ele>1165.74</ele>
        <time>2014-06-30T10:44:04Z</time>
      </trkpt>
      <trkpt lat="44.71642" lon="3.06175">
        <ele>1166.22</ele>
        <time>2014-06-30T10:44:40Z</time>
      </trkpt>
      <trkpt lat="44.71643" lon="3.06176">
        <ele>1166.22</ele>
        <time>2014-06-30T10:45:15Z</time>
      </trkpt>
      <trkpt lat="44.71643" lon="3.06176">
        <ele>1166.22</ele>
        <time>2014-06-30T10:45:52Z</time>
      </trkpt>
      <trkpt lat="44.71643" lon="3.06175">
        <ele>1166.22</ele>
        <time>2014-06-30T10:46:30Z</time>
      </trkpt>
      <trkpt lat="44.71644" lon="3.06176">
        <ele>1166.22</ele>
        <time>2014-06-30T10:47:05Z</time>
      </trkpt>
      <trkpt lat="44.71642" lon="3.06176">
        <ele>1166.7</ele>
        <time>2014-06-30T10:47:37Z</time>
      </trkpt>
      <trkpt lat="44.71644" lon="3.06176">
        <ele>1166.7</ele>
        <time>2014-06-30T10:48:08Z</time>
      </trkpt>
      <trkpt lat="44.71644" lon="3.06175">
        <ele>1166.7</ele>
        <time>2014-06-30T10:48:33Z</time>
      </trkpt>
      <trkpt lat="44.71643" lon="3.06174">
        <ele>1166.7</ele>
        <time>2014-06-30T10:49:06Z</time>
      </trkpt>
      <trkpt lat="44.71645" lon="3.06175">
        <ele>1166.7</ele>
        <time>2014-06-30T10:49:40Z</time>
      </trkpt>
      <trkpt lat="44.71644" lon="3.06174">
        <ele>1167.18</ele>
        <time>2014-06-30T10:50:13Z</time>
      </trkpt>
      <trkpt lat="44.71644" lon="3.06176">
        <ele>1167.18</ele>
        <time>2014-06-30T10:50:48Z</time>
      </trkpt>
      <trkpt lat="44.71643" lon="3.06175">
        <ele>1167.18</ele>
        <time>2014-06-30T10:51:21Z</time>
      </trkpt>
      <trkpt lat="44.71644" lon="3.06176">
        <ele>1167.18</ele>
        <time>2014-06-30T10:51:48Z</time>
      </trkpt>
      <trkpt lat="44.71643" lon="3.06175">
        <ele>1167.66</ele>
        <time>2014-06-30T10:52:18Z</time>
      </trkpt>
      <trkpt lat="44.71643" lon="3.06176">
        <ele>1167.66</ele>
        <time>2014-06-30T10:52:49Z</time>
      </trkpt>
      <trkpt lat="44.71644" lon="3.06176">
        <ele>1167.66</ele>
        <time>2014-06-30T10:53:23Z</time>
      </trkpt>
      <trkpt lat="44.71644" lon="3.06177">
        <ele>1167.66</ele>
        <time>2014-06-30T10:54:00Z</time>
      </trkpt>
      <trkpt lat="44.71643" lon="3.06176">
        <ele>1167.66</ele>
        <time>2014-06-30T10:54:29Z</time>
      </trkpt>
      <trkpt lat="44.71643" lon="3.06175">
        <ele>1167.66</ele>
        <time>2014-06-30T10:55:04Z</time>
      </trkpt>
      <trkpt lat="44.71642" lon="3.06176">
        <ele>1167.66</ele>
        <time>2014-06-30T10:55:39Z</time>
      </trkpt>
      <trkpt lat="44.71642" lon="3.06175">
        <ele>1168.14</ele>
        <time>2014-06-30T10:56:19Z</time>
      </trkpt>
      <trkpt lat="44.71642" lon="3.06175">
        <ele>1168.14</ele>
        <time>2014-06-30T10:56:51Z</time>
      </trkpt>
      <trkpt lat="44.71642" lon="3.06175">
        <ele>1168.14</ele>
        <time>2014-06-30T10:57:34Z</time>
      </trkpt>
      <trkpt lat="44.71642" lon="3.06175">
        <ele>1168.14</ele>
        <time>2014-06-30T10:58:11Z</time>
      </trkpt>
      <trkpt lat="44.71643" lon="3.06175">
        <ele>1168.14</ele>
        <time>2014-06-30T10:58:48Z</time>
      </trkpt>
      <trkpt lat="44.71642" lon="3.06175">
        <ele>1168.14</ele>
        <time>2014-06-30T10:59:16Z</time>
      </trkpt>
      <trkpt lat="44.71642" lon="3.06174">
        <ele>1168.62</ele>
        <time>2014-06-30T10:59:45Z</time>
      </trkpt>
      <trkpt lat="44.71641" lon="3.06174">
        <ele>1168.62</ele>
        <time>2014-06-30T11:00:09Z</time>
      </trkpt>
      <trkpt lat="44.71641" lon="3.06175">
        <ele>1168.62</ele>
        <time>2014-06-30T11:00:35Z</time>
      </trkpt>
      <trkpt lat="44.71643" lon="3.06175">
        <ele>1168.62</ele>
        <time>2014-06-30T11:01:01Z</time>
      </trkpt>
      <trkpt lat="44.71641" lon="3.06174">
        <ele>1168.62</ele>
        <time>2014-06-30T11:01:34Z</time>
      </trkpt>
      <trkpt lat="44.71641" lon="3.06174">
        <ele>1168.62</ele>
        <time>2014-06-30T11:02:05Z</time>
      </trkpt>
      <trkpt lat="44.71641" lon="3.06174">
        <ele>1168.62</ele>
        <time>2014-06-30T11:02:32Z</time>
      </trkpt>
      <trkpt lat="44.7164" lon="3.06175">
        <ele>1168.62</ele>
        <time>2014-06-30T11:03:13Z</time>
      </trkpt>
      <trkpt lat="44.71642" lon="3.06175">
        <ele>1168.62</ele>
        <time>2014-06-30T11:03:46Z</time>
      </trkpt>
      <trkpt lat="44.71643" lon="3.06176">
        <ele>1169.1</ele>
        <time>2014-06-30T11:04:22Z</time>
      </trkpt>
      <trkpt lat="44.71643" lon="3.06176">
        <ele>1169.1</ele>
        <time>2014-06-30T11:04:57Z</time>
      </trkpt>
      <trkpt lat="44.71643" lon="3.06176">
        <ele>1169.1</ele>
        <time>2014-06-30T11:05:32Z</time>
      </trkpt>
      <trkpt lat="44.71643" lon="3.06177">
        <ele>1169.1</ele>
        <time>2014-06-30T11:06:07Z</time>
      </trkpt>
      <trkpt lat="44.71643" lon="3.06176">
        <ele>1169.1</ele>
        <time>2014-06-30T11:06:36Z</time>
      </trkpt>
      <trkpt lat="44.71643" lon="3.06176">
        <ele>1169.58</ele>
        <time>2014-06-30T11:07:07Z</time>
      </trkpt>
      <trkpt lat="44.71643" lon="3.06176">
        <ele>1169.58</ele>
        <time>2014-06-30T11:07:38Z</time>
      </trkpt>
      <trkpt lat="44.71643" lon="3.06175">
        <ele>1170.06</ele>
        <time>2014-06-30T11:08:13Z</time>
      </trkpt>
      <trkpt lat="44.71643" lon="3.06175">
        <ele>1170.06</ele>
        <time>2014-06-30T11:08:40Z</time>
      </trkpt>
      <trkpt lat="44.71643" lon="3.06175">
        <ele>1170.06</ele>
        <time>2014-06-30T11:09:02Z</time>
      </trkpt>
      <trkpt lat="44.71642" lon="3.06174">
        <ele>1170.06</ele>
        <time>2014-06-30T11:09:34Z</time>
      </trkpt>
      <trkpt lat="44.71643" lon="3.06174">
        <ele>1170.06</ele>
        <time>2014-06-30T11:10:01Z</time>
      </trkpt>
      <trkpt lat="44.71643" lon="3.06176">
        <ele>1170.54</ele>
        <time>2014-06-30T11:10:31Z</time>
      </trkpt>
      <trkpt lat="44.71643" lon="3.06175">
        <ele>1170.54</ele>
        <time>2014-06-30T11:11:04Z</time>
      </trkpt>
      <trkpt lat="44.71644" lon="3.06176">
        <ele>1170.54</ele>
        <time>2014-06-30T11:11:32Z</time>
      </trkpt>
      <trkpt lat="44.71643" lon="3.06175">
        <ele>1170.54</ele>
        <time>2014-06-30T11:12:11Z</time>
      </trkpt>
      <trkpt lat="44.71643" lon="3.06175">
        <ele>1170.06</ele>
        <time>2014-06-30T11:12:45Z</time>
      </trkpt>
      <trkpt lat="44.71644" lon="3.06175">
        <ele>1170.06</ele>
        <time>2014-06-30T11:13:21Z</time>
      </trkpt>
      <trkpt lat="44.71644" lon="3.06175">
        <ele>1170.06</ele>
        <time>2014-06-30T11:14:00Z</time>
      </trkpt>
      <trkpt lat="44.71642" lon="3.06176">
        <ele>1170.06</ele>
        <time>2014-06-30T11:14:33Z</time>
      </trkpt>
      <trkpt lat="44.71642" lon="3.06175">
        <ele>1170.06</ele>
        <time>2014-06-30T11:15:11Z</time>
      </trkpt>
      <trkpt lat="44.71643" lon="3.06178">
        <ele>1169.58</ele>
        <time>2014-06-30T11:15:48Z</time>
      </trkpt>
      <trkpt lat="44.71642" lon="3.06177">
        <ele>1169.58</ele>
        <time>2014-06-30T11:16:22Z</time>
      </trkpt>
      <trkpt lat="44.71643" lon="3.06177">
        <ele>1169.58</ele>
        <time>2014-06-30T11:16:55Z</time>
      </trkpt>
      <trkpt lat="44.71645" lon="3.06176">
        <ele>1169.58</ele>
        <time>2014-06-30T11:17:28Z</time>
      </trkpt>
      <trkpt lat="44.71644" lon="3.06176">
        <ele>1169.58</ele>
        <time>2014-06-30T11:18:05Z</time>
      </trkpt>
      <trkpt lat="44.71644" lon="3.06177">
        <ele>1169.58</ele>
        <time>2014-06-30T11:18:33Z</time>
      </trkpt>
      <trkpt lat="44.71645" lon="3.06175">
        <ele>1169.58</ele>
        <time>2014-06-30T11:19:04Z</time>
      </trkpt>
      <trkpt lat="44.71647" lon="3.06175">
        <ele>1169.58</ele>
        <time>2014-06-30T11:19:35Z</time>
      </trkpt>
      <trkpt lat="44.71644" lon="3.06177">
        <ele>1169.58</ele>
        <time>2014-06-30T11:20:07Z</time>
      </trkpt>
      <trkpt lat="44.71641" lon="3.06176">
        <ele>1169.58</ele>
        <time>2014-06-30T11:20:46Z</time>
      </trkpt>
      <trkpt lat="44.71642" lon="3.06176">
        <ele>1169.1</ele>
        <time>2014-06-30T11:21:21Z</time>
      </trkpt>
      <trkpt lat="44.71644" lon="3.06177">
        <ele>1169.1</ele>
        <time>2014-06-30T11:22:03Z</time>
      </trkpt>
      <trkpt lat="44.71644" lon="3.06175">
        <ele>1169.1</ele>
        <time>2014-06-30T11:22:29Z</time>
      </trkpt>
      <trkpt lat="44.71644" lon="3.06174">
        <ele>1169.1</ele>
        <time>2014-06-30T11:22:53Z</time>
      </trkpt>
      <trkpt lat="44.71645" lon="3.06174">
        <ele>1169.1</ele>
        <time>2014-06-30T11:23:20Z</time>
      </trkpt>
      <trkpt lat="44.71645" lon="3.06174">
        <ele>1169.1</ele>
        <time>2014-06-30T11:23:44Z</time>
      </trkpt>
      <trkpt lat="44.71645" lon="3.06174">
        <ele>1169.1</ele>
        <time>2014-06-30T11:24:15Z</time>
      </trkpt>
      <trkpt lat="44.71644" lon="3.06175">
        <ele>1169.1</ele>
        <time>2014-06-30T11:24:41Z</time>
      </trkpt>
      <trkpt lat="44.71645" lon="3.06174">
        <ele>1167.66</ele>
        <time>2014-06-30T11:25:10Z</time>
      </trkpt>
      <trkpt lat="44.71646" lon="3.06174">
        <ele>1167.66</ele>
        <time>2014-06-30T11:25:43Z</time>
      </trkpt>
      <trkpt lat="44.71646" lon="3.06175">
        <ele>1167.66</ele>
        <time>2014-06-30T11:26:17Z</time>
      </trkpt>
      <trkpt lat="44.71644" lon="3.06174">
        <ele>1167.66</ele>
        <time>2014-06-30T11:26:52Z</time>
      </trkpt>
      <trkpt lat="44.71644" lon="3.06174">
        <ele>1167.18</ele>
        <time>2014-06-30T11:27:20Z</time>
      </trkpt>
      <trkpt lat="44.71645" lon="3.06175">
        <ele>1167.18</ele>
        <time>2014-06-30T11:27:47Z</time>
      </trkpt>
      <trkpt lat="44.71646" lon="3.06173">
        <ele>1167.18</ele>
        <time>2014-06-30T11:28:26Z</time>
      </trkpt>
      <trkpt lat="44.71645" lon="3.06173">
        <ele>1166.7</ele>
        <time>2014-06-30T11:28:58Z</time>
      </trkpt>
      <trkpt lat="44.71646" lon="3.06174">
        <ele>1166.7</ele>
        <time>2014-06-30T11:29:23Z</time>
      </trkpt>
      <trkpt lat="44.71645" lon="3.06174">
        <ele>1166.7</ele>
        <time>2014-06-30T11:29:49Z</time>
      </trkpt>
      <trkpt lat="44.71643" lon="3.06174">
        <ele>1166.7</ele>
        <time>2014-06-30T11:30:21Z</time>
      </trkpt>
      <trkpt lat="44.71642" lon="3.06176">
        <ele>1166.22</ele>
        <time>2014-06-30T11:30:57Z</time>
      </trkpt>
      <trkpt lat="44.71644" lon="3.06176">
        <ele>1166.22</ele>
        <time>2014-06-30T11:31:29Z</time>
      </trkpt>
      <trkpt lat="44.71645" lon="3.06175">
        <ele>1166.22</ele>
        <time>2014-06-30T11:32:07Z</time>
      </trkpt>
      <trkpt lat="44.71644" lon="3.06174">
        <ele>1166.22</ele>
        <time>2014-06-30T11:32:44Z</time>
      </trkpt>
      <trkpt lat="44.71644" lon="3.06175">
        <ele>1166.22</ele>
        <time>2014-06-30T11:33:24Z</time>
      </trkpt>
      <trkpt lat="44.71645" lon="3.06175">
        <ele>1166.22</ele>
        <time>2014-06-30T11:33:51Z</time>
      </trkpt>
      <trkpt lat="44.71645" lon="3.06175">
        <ele>1166.22</ele>
        <time>2014-06-30T11:34:20Z</time>
      </trkpt>
      <trkpt lat="44.71644" lon="3.06175">
        <ele>1166.22</ele>
        <time>2014-06-30T11:34:59Z</time>
      </trkpt>
      <trkpt lat="44.71643" lon="3.06175">
        <ele>1166.22</ele>
        <time>2014-06-30T11:35:43Z</time>
      </trkpt>
      <trkpt lat="44.71644" lon="3.06175">
        <ele>1166.22</ele>
        <time>2014-06-30T11:36:07Z</time>
      </trkpt>
      <trkpt lat="44.71644" lon="3.06174">
        <ele>1166.22</ele>
        <time>2014-06-30T11:36:37Z</time>
      </trkpt>
      <trkpt lat="44.71645" lon="3.06175">
        <ele>1166.22</ele>
        <time>2014-06-30T11:37:07Z</time>
      </trkpt>
      <trkpt lat="44.71644" lon="3.06175">
        <ele>1166.22</ele>
        <time>2014-06-30T11:37:40Z</time>
      </trkpt>
      <trkpt lat="44.71647" lon="3.06174">
        <ele>1166.22</ele>
        <time>2014-06-30T11:38:14Z</time>
      </trkpt>
      <trkpt lat="44.71644" lon="3.06174">
        <ele>1166.22</ele>
        <time>2014-06-30T11:38:49Z</time>
      </trkpt>
      <trkpt lat="44.71644" lon="3.06174">
        <ele>1166.22</ele>
        <time>2014-06-30T11:39:26Z</time>
      </trkpt>
      <trkpt lat="44.71642" lon="3.06174">
        <ele>1167.18</ele>
        <time>2014-06-30T11:39:53Z</time>
      </trkpt>
      <trkpt lat="44.71643" lon="3.06174">
        <ele>1168.14</ele>
        <time>2014-06-30T11:40:12Z</time>
      </trkpt>
      <trkpt lat="44.71643" lon="3.06175">
        <ele>1168.14</ele>
        <time>2014-06-30T11:40:31Z</time>
      </trkpt>
      <trkpt lat="44.71642" lon="3.06174">
        <ele>1168.14</ele>
        <time>2014-06-30T11:40:41Z</time>
      </trkpt>
      <trkpt lat="44.71642" lon="3.06174">
        <ele>1168.14</ele>
        <time>2014-06-30T11:40:53Z</time>
      </trkpt>
      <trkpt lat="44.71641" lon="3.06176">
        <ele>1167.18</ele>
        <time>2014-06-30T11:41:09Z</time>
      </trkpt>
      <trkpt lat="44.71641" lon="3.06176">
        <ele>1163.33</ele>
        <time>2014-06-30T11:41:46Z</time>
      </trkpt>
      <trkpt lat="44.71644" lon="3.06177">
        <ele>1163.33</ele>
        <time>2014-06-30T11:41:47Z</time>
      </trkpt>
      <trkpt lat="44.71638" lon="3.06175">
        <ele>1163.33</ele>
        <time>2014-06-30T11:42:05Z</time>
      </trkpt>
      <trkpt lat="44.71636" lon="3.06176">
        <ele>1164.29</ele>
        <time>2014-06-30T11:42:20Z</time>
      </trkpt>
      <trkpt lat="44.71636" lon="3.06177">
        <ele>1165.74</ele>
        <time>2014-06-30T11:42:32Z</time>
      </trkpt>
      <trkpt lat="44.71635" lon="3.06174">
        <ele>1166.22</ele>
        <time>2014-06-30T11:42:45Z</time>
      </trkpt>
      <trkpt lat="44.71635" lon="3.06173">
        <ele>1165.26</ele>
        <time>2014-06-30T11:42:49Z</time>
      </trkpt>
      <trkpt lat="44.71641" lon="3.06177">
        <ele>1164.77</ele>
        <time>2014-06-30T11:43:14Z</time>
      </trkpt>
      <trkpt lat="44.71643" lon="3.06176">
        <ele>1164.77</ele>
        <time>2014-06-30T11:43:49Z</time>
      </trkpt>
      <trkpt lat="44.71643" lon="3.06173">
        <ele>1164.29</ele>
        <time>2014-06-30T11:44:12Z</time>
      </trkpt>
      <trkpt lat="44.71643" lon="3.06175">
        <ele>1165.74</ele>
        <time>2014-06-30T11:44:37Z</time>
      </trkpt>
      <trkpt lat="44.71644" lon="3.06176">
        <ele>1165.74</ele>
        <time>2014-06-30T11:44:59Z</time>
      </trkpt>
      <trkpt lat="44.71644" lon="3.06175">
        <ele>1165.74</ele>
        <time>2014-06-30T11:45:11Z</time>
      </trkpt>
      <trkpt lat="44.71646" lon="3.06173">
        <ele>1165.74</ele>
        <time>2014-06-30T11:45:20Z</time>
      </trkpt>
      <trkpt lat="44.71644" lon="3.06173">
        <ele>1165.74</ele>
        <time>2014-06-30T11:45:26Z</time>
      </trkpt>
      <trkpt lat="44.71661" lon="3.06185">
        <ele>1165.74</ele>
        <time>2014-06-30T11:45:44Z</time>
      </trkpt>
      <trkpt lat="44.71677" lon="3.06195">
        <ele>1165.74</ele>
        <time>2014-06-30T11:46:00Z</time>
      </trkpt>
      <trkpt lat="44.71681" lon="3.06197">
        <ele>1165.74</ele>
        <time>2014-06-30T11:46:05Z</time>
      </trkpt>
      <trkpt lat="44.71694" lon="3.06207">
        <ele>1165.74</ele>
        <time>2014-06-30T11:46:21Z</time>
      </trkpt>
      <trkpt lat="44.71699" lon="3.06211">
        <ele>1165.74</ele>
        <time>2014-06-30T11:46:45Z</time>
      </trkpt>
      <trkpt lat="44.71705" lon="3.06215">
        <ele>1165.74</ele>
        <time>2014-06-30T11:46:55Z</time>
      </trkpt>
      <trkpt lat="44.71709" lon="3.06217">
        <ele>1165.74</ele>
        <time>2014-06-30T11:46:59Z</time>
      </trkpt>
      <trkpt lat="44.71713" lon="3.06217">
        <ele>1165.74</ele>
        <time>2014-06-30T11:47:02Z</time>
      </trkpt>
      <trkpt lat="44.71731" lon="3.06232">
        <ele>1165.74</ele>
        <time>2014-06-30T11:47:20Z</time>
      </trkpt>
      <trkpt lat="44.7175" lon="3.06245">
        <ele>1165.74</ele>
        <time>2014-06-30T11:47:38Z</time>
      </trkpt>
      <trkpt lat="44.71764" lon="3.06251">
        <ele>1165.74</ele>
        <time>2014-06-30T11:47:50Z</time>
      </trkpt>
      <trkpt lat="44.71769" lon="3.06252">
        <ele>1165.74</ele>
        <time>2014-06-30T11:47:54Z</time>
      </trkpt>
      <trkpt lat="44.71783" lon="3.06258">
        <ele>1165.74</ele>
        <time>2014-06-30T11:48:11Z</time>
      </trkpt>
      <trkpt lat="44.71802" lon="3.06267">
        <ele>1164.77</ele>
        <time>2014-06-30T11:48:28Z</time>
      </trkpt>
      <trkpt lat="44.71823" lon="3.06275">
        <ele>1164.29</ele>
        <time>2014-06-30T11:48:46Z</time>
      </trkpt>
      <trkpt lat="44.71847" lon="3.06283">
        <ele>1163.33</ele>
        <time>2014-06-30T11:49:06Z</time>
      </trkpt>
      <trkpt lat="44.71866" lon="3.0629">
        <ele>1162.37</ele>
        <time>2014-06-30T11:49:22Z</time>
      </trkpt>
      <trkpt lat="44.71877" lon="3.06292">
        <ele>1163.33</ele>
        <time>2014-06-30T11:49:32Z</time>
      </trkpt>
      <trkpt lat="44.71884" lon="3.06294">
        <ele>1163.33</ele>
        <time>2014-06-30T11:49:38Z</time>
      </trkpt>
      <trkpt lat="44.71903" lon="3.06299">
        <ele>1163.33</ele>
        <time>2014-06-30T11:49:55Z</time>
      </trkpt>
      <trkpt lat="44.71919" lon="3.06306">
        <ele>1163.81</ele>
        <time>2014-06-30T11:50:10Z</time>
      </trkpt>
      <trkpt lat="44.71936" lon="3.06311">
        <ele>1163.81</ele>
        <time>2014-06-30T11:50:24Z</time>
      </trkpt>
      <trkpt lat="44.71942" lon="3.0631">
        <ele>1162.37</ele>
        <time>2014-06-30T11:50:29Z</time>
      </trkpt>
      <trkpt lat="44.71951" lon="3.06309">
        <ele>1162.37</ele>
        <time>2014-06-30T11:50:42Z</time>
      </trkpt>
      <trkpt lat="44.71952" lon="3.06309">
        <ele>1162.37</ele>
        <time>2014-06-30T11:50:57Z</time>
      </trkpt>
      <trkpt lat="44.71953" lon="3.06311">
        <ele>1162.37</ele>
        <time>2014-06-30T11:51:11Z</time>
      </trkpt>
      <trkpt lat="44.71958" lon="3.06315">
        <ele>1162.37</ele>
        <time>2014-06-30T11:51:25Z</time>
      </trkpt>
      <trkpt lat="44.71967" lon="3.06321">
        <ele>1161.89</ele>
        <time>2014-06-30T11:51:34Z</time>
      </trkpt>
      <trkpt lat="44.71971" lon="3.06324">
        <ele>1161.41</ele>
        <time>2014-06-30T11:51:38Z</time>
      </trkpt>
      <trkpt lat="44.71983" lon="3.06344">
        <ele>1160.45</ele>
        <time>2014-06-30T11:51:53Z</time>
      </trkpt>
      <trkpt lat="44.71984" lon="3.06346">
        <ele>1160.45</ele>
        <time>2014-06-30T11:51:56Z</time>
      </trkpt>
      <trkpt lat="44.71987" lon="3.06347">
        <ele>1159.01</ele>
        <time>2014-06-30T11:52:03Z</time>
      </trkpt>
      <trkpt lat="44.71992" lon="3.06347">
        <ele>1159.01</ele>
        <time>2014-06-30T11:52:08Z</time>
      </trkpt>
      <trkpt lat="44.71995" lon="3.06345">
        <ele>1158.53</ele>
        <time>2014-06-30T11:52:11Z</time>
      </trkpt>
      <trkpt lat="44.72003" lon="3.06344">
        <ele>1158.53</ele>
        <time>2014-06-30T11:52:24Z</time>
      </trkpt>
      <trkpt lat="44.72012" lon="3.06341">
        <ele>1159.97</ele>
        <time>2014-06-30T11:52:39Z</time>
      </trkpt>
      <trkpt lat="44.7202" lon="3.06339">
        <ele>1159.97</ele>
        <time>2014-06-30T11:52:47Z</time>
      </trkpt>
      <trkpt lat="44.72037" lon="3.06342">
        <ele>1159.97</ele>
        <time>2014-06-30T11:53:04Z</time>
      </trkpt>
      <trkpt lat="44.72043" lon="3.06344">
        <ele>1158.53</ele>
        <time>2014-06-30T11:53:09Z</time>
      </trkpt>
      <trkpt lat="44.72061" lon="3.06348">
        <ele>1157.08</ele>
        <time>2014-06-30T11:53:28Z</time>
      </trkpt>
      <trkpt lat="44.72075" lon="3.06352">
        <ele>1156.6</ele>
        <time>2014-06-30T11:53:46Z</time>
      </trkpt>
      <trkpt lat="44.72093" lon="3.06355">
        <ele>1156.6</ele>
        <time>2014-06-30T11:54:03Z</time>
      </trkpt>
      <trkpt lat="44.72102" lon="3.0636">
        <ele>1156.6</ele>
        <time>2014-06-30T11:54:20Z</time>
      </trkpt>
      <trkpt lat="44.72103" lon="3.0636">
        <ele>1156.6</ele>
        <time>2014-06-30T11:54:34Z</time>
      </trkpt>
      <trkpt lat="44.72108" lon="3.06362">
        <ele>1156.6</ele>
        <time>2014-06-30T11:54:46Z</time>
      </trkpt>
      <trkpt lat="44.72121" lon="3.06367">
        <ele>1156.12</ele>
        <time>2014-06-30T11:54:57Z</time>
      </trkpt>
      <trkpt lat="44.7214" lon="3.06384">
        <ele>1154.2</ele>
        <time>2014-06-30T11:55:16Z</time>
      </trkpt>
      <trkpt lat="44.72144" lon="3.06391">
        <ele>1153.72</ele>
        <time>2014-06-30T11:55:21Z</time>
      </trkpt>
      <trkpt lat="44.72161" lon="3.06395">
        <ele>1153.24</ele>
        <time>2014-06-30T11:55:35Z</time>
      </trkpt>
      <trkpt lat="44.72174" lon="3.06407">
        <ele>1151.8</ele>
        <time>2014-06-30T11:55:48Z</time>
      </trkpt>
      <trkpt lat="44.72177" lon="3.06414">
        <ele>1151.8</ele>
        <time>2014-06-30T11:56:03Z</time>
      </trkpt>
      <trkpt lat="44.72174" lon="3.0641">
        <ele>1151.32</ele>
        <time>2014-06-30T11:56:28Z</time>
      </trkpt>
      <trkpt lat="44.72174" lon="3.06404">
        <ele>1151.32</ele>
        <time>2014-06-30T11:56:44Z</time>
      </trkpt>
      <trkpt lat="44.72174" lon="3.06404">
        <ele>1151.32</ele>
        <time>2014-06-30T11:56:53Z</time>
      </trkpt>
      <trkpt lat="44.7218" lon="3.0639">
        <ele>1151.32</ele>
        <time>2014-06-30T11:57:02Z</time>
      </trkpt>
      <trkpt lat="44.72186" lon="3.06376">
        <ele>1151.32</ele>
        <time>2014-06-30T11:57:11Z</time>
      </trkpt>
      <trkpt lat="44.72189" lon="3.06373">
        <ele>1151.32</ele>
        <time>2014-06-30T11:57:14Z</time>
      </trkpt>
      <trkpt lat="44.722" lon="3.06353">
        <ele>1151.32</ele>
        <time>2014-06-30T11:57:29Z</time>
      </trkpt>
      <trkpt lat="44.72208" lon="3.06341">
        <ele>1153.24</ele>
        <time>2014-06-30T11:57:37Z</time>
      </trkpt>
      <trkpt lat="44.7221" lon="3.06339">
        <ele>1153.24</ele>
        <time>2014-06-30T11:57:39Z</time>
      </trkpt>
      <trkpt lat="44.72216" lon="3.0633">
        <ele>1153.24</ele>
        <time>2014-06-30T11:57:47Z</time>
      </trkpt>
      <trkpt lat="44.72226" lon="3.06314">
        <ele>1152.76</ele>
        <time>2014-06-30T11:58:03Z</time>
      </trkpt>
      <trkpt lat="44.72235" lon="3.06303">
        <ele>1153.24</ele>
        <time>2014-06-30T11:58:13Z</time>
      </trkpt>
      <trkpt lat="44.72254" lon="3.06294">
        <ele>1153.72</ele>
        <time>2014-06-30T11:58:28Z</time>
      </trkpt>
      <trkpt lat="44.7227" lon="3.06293">
        <ele>1152.28</ele>
        <time>2014-06-30T11:58:41Z</time>
      </trkpt>
      <trkpt lat="44.72297" lon="3.06294">
        <ele>1151.8</ele>
        <time>2014-06-30T11:59:00Z</time>
      </trkpt>
      <trkpt lat="44.72329" lon="3.06289">
        <ele>1149.87</ele>
        <time>2014-06-30T11:59:22Z</time>
      </trkpt>
      <trkpt lat="44.72356" lon="3.06278">
        <ele>1148.91</ele>
        <time>2014-06-30T11:59:43Z</time>
      </trkpt>
      <trkpt lat="44.72366" lon="3.06275">
        <ele>1148.91</ele>
        <time>2014-06-30T11:59:54Z</time>
      </trkpt>
      <trkpt lat="44.72391" lon="3.06269">
        <ele>1147.47</ele>
        <time>2014-06-30T12:00:15Z</time>
      </trkpt>
      <trkpt lat="44.72419" lon="3.06263">
        <ele>1146.03</ele>
        <time>2014-06-30T12:00:36Z</time>
      </trkpt>
      <trkpt lat="44.72447" lon="3.06254">
        <ele>1144.11</ele>
        <time>2014-06-30T12:00:56Z</time>
      </trkpt>
      <trkpt lat="44.72467" lon="3.06242">
        <ele>1143.14</ele>
        <time>2014-06-30T12:01:14Z</time>
      </trkpt>
      <trkpt lat="44.72488" lon="3.06238">
        <ele>1142.18</ele>
        <time>2014-06-30T12:01:29Z</time>
      </trkpt>
      <trkpt lat="44.72506" lon="3.06263">
        <ele>1141.22</ele>
        <time>2014-06-30T12:01:47Z</time>
      </trkpt>
      <trkpt lat="44.7252" lon="3.06277">
        <ele>1141.22</ele>
        <time>2014-06-30T12:02:00Z</time>
      </trkpt>
      <trkpt lat="44.72539" lon="3.06273">
        <ele>1142.66</ele>
        <time>2014-06-30T12:02:18Z</time>
      </trkpt>
      <trkpt lat="44.7255" lon="3.06262">
        <ele>1143.63</ele>
        <time>2014-06-30T12:02:32Z</time>
      </trkpt>
      <trkpt lat="44.72554" lon="3.06258">
        <ele>1144.11</ele>
        <time>2014-06-30T12:02:37Z</time>
      </trkpt>
      <trkpt lat="44.72564" lon="3.06247">
        <ele>1145.07</ele>
        <time>2014-06-30T12:02:49Z</time>
      </trkpt>
      <trkpt lat="44.72577" lon="3.06235">
        <ele>1146.99</ele>
        <time>2014-06-30T12:03:02Z</time>
      </trkpt>
      <trkpt lat="44.72581" lon="3.06231">
        <ele>1146.99</ele>
        <time>2014-06-30T12:03:07Z</time>
      </trkpt>
      <trkpt lat="44.72596" lon="3.06226">
        <ele>1148.43</ele>
        <time>2014-06-30T12:03:24Z</time>
      </trkpt>
      <trkpt lat="44.72604" lon="3.06225">
        <ele>1148.91</ele>
        <time>2014-06-30T12:03:38Z</time>
      </trkpt>
      <trkpt lat="44.72604" lon="3.06225">
        <ele>1148.91</ele>
        <time>2014-06-30T12:03:40Z</time>
      </trkpt>
      <trkpt lat="44.72603" lon="3.06225">
        <ele>1147.95</ele>
        <time>2014-06-30T12:03:52Z</time>
      </trkpt>
      <trkpt lat="44.72606" lon="3.06227">
        <ele>1147.95</ele>
        <time>2014-06-30T12:04:22Z</time>
      </trkpt>
      <trkpt lat="44.72605" lon="3.06224">
        <ele>1148.91</ele>
        <time>2014-06-30T12:04:48Z</time>
      </trkpt>
      <trkpt lat="44.72604" lon="3.06225">
        <ele>1149.39</ele>
        <time>2014-06-30T12:05:02Z</time>
      </trkpt>
      <trkpt lat="44.72604" lon="3.06225">
        <ele>1149.39</ele>
        <time>2014-06-30T12:05:18Z</time>
      </trkpt>
      <trkpt lat="44.72606" lon="3.06227">
        <ele>1149.39</ele>
        <time>2014-06-30T12:05:29Z</time>
      </trkpt>
      <trkpt lat="44.72603" lon="3.06222">
        <ele>1149.39</ele>
        <time>2014-06-30T12:05:37Z</time>
      </trkpt>
      <trkpt lat="44.72614" lon="3.06219">
        <ele>1149.39</ele>
        <time>2014-06-30T12:05:47Z</time>
      </trkpt>
      <trkpt lat="44.72615" lon="3.06222">
        <ele>1149.87</ele>
        <time>2014-06-30T12:05:49Z</time>
      </trkpt>
      <trkpt lat="44.72619" lon="3.06226">
        <ele>1150.84</ele>
        <time>2014-06-30T12:06:01Z</time>
      </trkpt>
      <trkpt lat="44.72618" lon="3.06229">
        <ele>1151.32</ele>
        <time>2014-06-30T12:06:22Z</time>
      </trkpt>
      <trkpt lat="44.7262" lon="3.0623">
        <ele>1151.8</ele>
        <time>2014-06-30T12:06:43Z</time>
      </trkpt>
      <trkpt lat="44.72617" lon="3.06223">
        <ele>1151.8</ele>
        <time>2014-06-30T12:07:01Z</time>
      </trkpt>
      <trkpt lat="44.72616" lon="3.06222">
        <ele>1150.35</ele>
        <time>2014-06-30T12:07:03Z</time>
      </trkpt>
      <trkpt lat="44.72607" lon="3.06233">
        <ele>1150.35</ele>
        <time>2014-06-30T12:07:15Z</time>
      </trkpt>
      <trkpt lat="44.72607" lon="3.06233">
        <ele>1150.35</ele>
        <time>2014-06-30T12:07:17Z</time>
      </trkpt>
      <trkpt lat="44.72611" lon="3.06247">
        <ele>1151.8</ele>
        <time>2014-06-30T12:07:30Z</time>
      </trkpt>
      <trkpt lat="44.72617" lon="3.06253">
        <ele>1151.8</ele>
        <time>2014-06-30T12:07:38Z</time>
      </trkpt>
      <trkpt lat="44.72628" lon="3.0627">
        <ele>1151.8</ele>
        <time>2014-06-30T12:07:54Z</time>
      </trkpt>
      <trkpt lat="44.72645" lon="3.06284">
        <ele>1150.35</ele>
        <time>2014-06-30T12:08:13Z</time>
      </trkpt>
      <trkpt lat="44.72664" lon="3.06288">
        <ele>1149.39</ele>
        <time>2014-06-30T12:08:29Z</time>
      </trkpt>
      <trkpt lat="44.72665" lon="3.06289">
        <ele>1149.39</ele>
        <time>2014-06-30T12:08:30Z</time>
      </trkpt>
      <trkpt lat="44.72693" lon="3.06296">
        <ele>1147.47</ele>
        <time>2014-06-30T12:08:51Z</time>
      </trkpt>
      <trkpt lat="44.72715" lon="3.06308">
        <ele>1146.51</ele>
        <time>2014-06-30T12:09:07Z</time>
      </trkpt>
      <trkpt lat="44.72736" lon="3.0632">
        <ele>1146.51</ele>
        <time>2014-06-30T12:09:26Z</time>
      </trkpt>
      <trkpt lat="44.7274" lon="3.06323">
        <ele>1146.51</ele>
        <time>2014-06-30T12:09:30Z</time>
      </trkpt>
      <trkpt lat="44.7276" lon="3.06335">
        <ele>1146.51</ele>
        <time>2014-06-30T12:09:45Z</time>
      </trkpt>
      <trkpt lat="44.72779" lon="3.06351">
        <ele>1146.51</ele>
        <time>2014-06-30T12:10:02Z</time>
      </trkpt>
      <trkpt lat="44.72783" lon="3.06354">
        <ele>1146.51</ele>
        <time>2014-06-30T12:10:05Z</time>
      </trkpt>
      <trkpt lat="44.72796" lon="3.06368">
        <ele>1148.91</ele>
        <time>2014-06-30T12:10:20Z</time>
      </trkpt>
      <trkpt lat="44.72807" lon="3.06384">
        <ele>1149.87</ele>
        <time>2014-06-30T12:10:34Z</time>
      </trkpt>
      <trkpt lat="44.72822" lon="3.06403">
        <ele>1149.87</ele>
        <time>2014-06-30T12:10:51Z</time>
      </trkpt>
      <trkpt lat="44.72827" lon="3.06408">
        <ele>1150.35</ele>
        <time>2014-06-30T12:10:56Z</time>
      </trkpt>
      <trkpt lat="44.72843" lon="3.06429">
        <ele>1150.84</ele>
        <time>2014-06-30T12:11:16Z</time>
      </trkpt>
      <trkpt lat="44.72846" lon="3.06439">
        <ele>1150.84</ele>
        <time>2014-06-30T12:11:22Z</time>
      </trkpt>
      <trkpt lat="44.72855" lon="3.06455">
        <ele>1151.32</ele>
        <time>2014-06-30T12:11:40Z</time>
      </trkpt>
      <trkpt lat="44.72865" lon="3.06471">
        <ele>1151.8</ele>
        <time>2014-06-30T12:12:00Z</time>
      </trkpt>
      <trkpt lat="44.72868" lon="3.06479">
        <ele>1152.28</ele>
        <time>2014-06-30T12:12:05Z</time>
      </trkpt>
      <trkpt lat="44.72871" lon="3.06486">
        <ele>1152.28</ele>
        <time>2014-06-30T12:12:09Z</time>
      </trkpt>
      <trkpt lat="44.72878" lon="3.06503">
        <ele>1152.28</ele>
        <time>2014-06-30T12:12:19Z</time>
      </trkpt>
      <trkpt lat="44.72882" lon="3.06511">
        <ele>1152.76</ele>
        <time>2014-06-30T12:12:24Z</time>
      </trkpt>
      <trkpt lat="44.72886" lon="3.0652">
        <ele>1152.76</ele>
        <time>2014-06-30T12:12:30Z</time>
      </trkpt>
      <trkpt lat="44.72908" lon="3.0654">
        <ele>1155.16</ele>
        <time>2014-06-30T12:12:48Z</time>
      </trkpt>
      <trkpt lat="44.72922" lon="3.06558">
        <ele>1157.08</ele>
        <time>2014-06-30T12:13:01Z</time>
      </trkpt>
      <trkpt lat="44.72935" lon="3.06581">
        <ele>1157.56</ele>
        <time>2014-06-30T12:13:18Z</time>
      </trkpt>
      <trkpt lat="44.72946" lon="3.06605">
        <ele>1157.56</ele>
        <time>2014-06-30T12:13:34Z</time>
      </trkpt>
      <trkpt lat="44.72956" lon="3.06621">
        <ele>1158.05</ele>
        <time>2014-06-30T12:13:49Z</time>
      </trkpt>
      <trkpt lat="44.72971" lon="3.06639">
        <ele>1158.05</ele>
        <time>2014-06-30T12:14:04Z</time>
      </trkpt>
      <trkpt lat="44.72983" lon="3.06658">
        <ele>1158.05</ele>
        <time>2014-06-30T12:14:19Z</time>
      </trkpt>
      <trkpt lat="44.72991" lon="3.06667">
        <ele>1158.05</ele>
        <time>2014-06-30T12:14:28Z</time>
      </trkpt>
      <trkpt lat="44.73003" lon="3.06673">
        <ele>1158.05</ele>
        <time>2014-06-30T12:14:40Z</time>
      </trkpt>
      <trkpt lat="44.73012" lon="3.0668">
        <ele>1158.53</ele>
        <time>2014-06-30T12:14:48Z</time>
      </trkpt>
      <trkpt lat="44.73023" lon="3.0669">
        <ele>1158.53</ele>
        <time>2014-06-30T12:15:03Z</time>
      </trkpt>
      <trkpt lat="44.73025" lon="3.06691">
        <ele>1158.53</ele>
        <time>2014-06-30T12:15:05Z</time>
      </trkpt>
      <trkpt lat="44.73029" lon="3.06696">
        <ele>1158.53</ele>
        <time>2014-06-30T12:15:09Z</time>
      </trkpt>
      <trkpt lat="44.73038" lon="3.06701">
        <ele>1157.08</ele>
        <time>2014-06-30T12:15:16Z</time>
      </trkpt>
      <trkpt lat="44.73045" lon="3.06704">
        <ele>1158.53</ele>
        <time>2014-06-30T12:15:22Z</time>
      </trkpt>
      <trkpt lat="44.73064" lon="3.06712">
        <ele>1159.01</ele>
        <time>2014-06-30T12:15:36Z</time>
      </trkpt>
      <trkpt lat="44.73086" lon="3.06722">
        <ele>1159.01</ele>
        <time>2014-06-30T12:15:52Z</time>
      </trkpt>
      <trkpt lat="44.73098" lon="3.06728">
        <ele>1158.53</ele>
        <time>2014-06-30T12:16:01Z</time>
      </trkpt>
      <trkpt lat="44.73123" lon="3.06741">
        <ele>1158.05</ele>
        <time>2014-06-30T12:16:20Z</time>
      </trkpt>
      <trkpt lat="44.73145" lon="3.06754">
        <ele>1157.08</ele>
        <time>2014-06-30T12:16:37Z</time>
      </trkpt>
      <trkpt lat="44.73167" lon="3.06773">
        <ele>1156.12</ele>
        <time>2014-06-30T12:16:55Z</time>
      </trkpt>
      <trkpt lat="44.73191" lon="3.06795">
        <ele>1153.72</ele>
        <time>2014-06-30T12:17:15Z</time>
      </trkpt>
      <trkpt lat="44.73214" lon="3.06806">
        <ele>1152.76</ele>
        <time>2014-06-30T12:17:32Z</time>
      </trkpt>
      <trkpt lat="44.73237" lon="3.06823">
        <ele>1151.32</ele>
        <time>2014-06-30T12:17:50Z</time>
      </trkpt>
      <trkpt lat="44.73263" lon="3.06844">
        <ele>1150.84</ele>
        <time>2014-06-30T12:18:08Z</time>
      </trkpt>
      <trkpt lat="44.73287" lon="3.06855">
        <ele>1150.35</ele>
        <time>2014-06-30T12:18:25Z</time>
      </trkpt>
      <trkpt lat="44.73292" lon="3.06859">
        <ele>1149.87</ele>
        <time>2014-06-30T12:18:29Z</time>
      </trkpt>
      <trkpt lat="44.73305" lon="3.06863">
        <ele>1149.87</ele>
        <time>2014-06-30T12:18:38Z</time>
      </trkpt>
      <trkpt lat="44.73326" lon="3.06879">
        <ele>1149.87</ele>
        <time>2014-06-30T12:18:54Z</time>
      </trkpt>
      <trkpt lat="44.73335" lon="3.06886">
        <ele>1150.84</ele>
        <time>2014-06-30T12:19:01Z</time>
      </trkpt>
      <trkpt lat="44.73339" lon="3.06889">
        <ele>1151.32</ele>
        <time>2014-06-30T12:19:12Z</time>
      </trkpt>
      <trkpt lat="44.73341" lon="3.06891">
        <ele>1151.8</ele>
        <time>2014-06-30T12:19:14Z</time>
      </trkpt>
      <trkpt lat="44.73348" lon="3.06894">
        <ele>1152.28</ele>
        <time>2014-06-30T12:19:20Z</time>
      </trkpt>
      <trkpt lat="44.73351" lon="3.06896">
        <ele>1152.76</ele>
        <time>2014-06-30T12:19:23Z</time>
      </trkpt>
      <trkpt lat="44.73368" lon="3.06902">
        <ele>1153.72</ele>
        <time>2014-06-30T12:19:36Z</time>
      </trkpt>
      <trkpt lat="44.7338" lon="3.06909">
        <ele>1154.68</ele>
        <time>2014-06-30T12:19:46Z</time>
      </trkpt>
      <trkpt lat="44.73402" lon="3.06915">
        <ele>1156.12</ele>
        <time>2014-06-30T12:20:02Z</time>
      </trkpt>
      <trkpt lat="44.73428" lon="3.06917">
        <ele>1157.08</ele>
        <time>2014-06-30T12:20:21Z</time>
      </trkpt>
      <trkpt lat="44.73457" lon="3.06917">
        <ele>1158.05</ele>
        <time>2014-06-30T12:20:42Z</time>
      </trkpt>
      <trkpt lat="44.73483" lon="3.06914">
        <ele>1159.01</ele>
        <time>2014-06-30T12:21:01Z</time>
      </trkpt>
      <trkpt lat="44.73506" lon="3.06917">
        <ele>1159.01</ele>
        <time>2014-06-30T12:21:18Z</time>
      </trkpt>
      <trkpt lat="44.73511" lon="3.06936">
        <ele>1159.49</ele>
        <time>2014-06-30T12:21:31Z</time>
      </trkpt>
      <trkpt lat="44.735" lon="3.06964">
        <ele>1159.49</ele>
        <time>2014-06-30T12:21:48Z</time>
      </trkpt>
      <trkpt lat="44.73501" lon="3.06973">
        <ele>1158.05</ele>
        <time>2014-06-30T12:21:54Z</time>
      </trkpt>
      <trkpt lat="44.73504" lon="3.06988">
        <ele>1156.6</ele>
        <time>2014-06-30T12:22:08Z</time>
      </trkpt>
      <trkpt lat="44.73504" lon="3.0699">
        <ele>1156.6</ele>
        <time>2014-06-30T12:22:23Z</time>
      </trkpt>
      <trkpt lat="44.73504" lon="3.06998">
        <ele>1156.6</ele>
        <time>2014-06-30T12:22:28Z</time>
      </trkpt>
      <trkpt lat="44.73502" lon="3.07012">
        <ele>1156.6</ele>
        <time>2014-06-30T12:22:36Z</time>
      </trkpt>
      <trkpt lat="44.735" lon="3.07019">
        <ele>1156.12</ele>
        <time>2014-06-30T12:22:40Z</time>
      </trkpt>
      <trkpt lat="44.73503" lon="3.07025">
        <ele>1156.12</ele>
        <time>2014-06-30T12:22:44Z</time>
      </trkpt>
      <trkpt lat="44.73502" lon="3.07029">
        <ele>1156.12</ele>
        <time>2014-06-30T12:22:47Z</time>
      </trkpt>
      <trkpt lat="44.73508" lon="3.07039">
        <ele>1156.12</ele>
        <time>2014-06-30T12:22:54Z</time>
      </trkpt>
      <trkpt lat="44.73515" lon="3.07039">
        <ele>1156.12</ele>
        <time>2014-06-30T12:23:01Z</time>
      </trkpt>
      <trkpt lat="44.73517" lon="3.0704">
        <ele>1156.12</ele>
        <time>2014-06-30T12:23:03Z</time>
      </trkpt>
      <trkpt lat="44.7352" lon="3.07039">
        <ele>1158.05</ele>
        <time>2014-06-30T12:23:08Z</time>
      </trkpt>
      <trkpt lat="44.73522" lon="3.07038">
        <ele>1157.56</ele>
        <time>2014-06-30T12:23:11Z</time>
      </trkpt>
      <trkpt lat="44.73525" lon="3.0704">
        <ele>1157.56</ele>
        <time>2014-06-30T12:23:15Z</time>
      </trkpt>
      <trkpt lat="44.73529" lon="3.07041">
        <ele>1157.56</ele>
        <time>2014-06-30T12:23:18Z</time>
      </trkpt>
      <trkpt lat="44.73531" lon="3.07038">
        <ele>1158.05</ele>
        <time>2014-06-30T12:23:22Z</time>
      </trkpt>
      <trkpt lat="44.73564" lon="3.07037">
        <ele>1158.05</ele>
        <time>2014-06-30T12:23:45Z</time>
      </trkpt>
      <trkpt lat="44.73585" lon="3.07035">
        <ele>1161.41</ele>
        <time>2014-06-30T12:24:00Z</time>
      </trkpt>
      <trkpt lat="44.73605" lon="3.07033">
        <ele>1164.29</ele>
        <time>2014-06-30T12:24:15Z</time>
      </trkpt>
      <trkpt lat="44.73627" lon="3.07032">
        <ele>1166.22</ele>
        <time>2014-06-30T12:24:32Z</time>
      </trkpt>
      <trkpt lat="44.73652" lon="3.07028">
        <ele>1169.1</ele>
        <time>2014-06-30T12:24:51Z</time>
      </trkpt>
      <trkpt lat="44.73672" lon="3.07028">
        <ele>1171.5</ele>
        <time>2014-06-30T12:25:06Z</time>
      </trkpt>
      <trkpt lat="44.737" lon="3.07026">
        <ele>1173.91</ele>
        <time>2014-06-30T12:25:26Z</time>
      </trkpt>
      <trkpt lat="44.73715" lon="3.07024">
        <ele>1175.83</ele>
        <time>2014-06-30T12:25:38Z</time>
      </trkpt>
      <trkpt lat="44.73721" lon="3.07025">
        <ele>1176.31</ele>
        <time>2014-06-30T12:25:42Z</time>
      </trkpt>
      <trkpt lat="44.73749" lon="3.07025">
        <ele>1178.71</ele>
        <time>2014-06-30T12:26:03Z</time>
      </trkpt>
      <trkpt lat="44.73778" lon="3.07024">
        <ele>1180.16</ele>
        <time>2014-06-30T12:26:24Z</time>
      </trkpt>
      <trkpt lat="44.73778" lon="3.0702">
        <ele>1181.12</ele>
        <time>2014-06-30T12:26:39Z</time>
      </trkpt>
      <trkpt lat="44.7378" lon="3.07019">
        <ele>1181.12</ele>
        <time>2014-06-30T12:27:07Z</time>
      </trkpt>
      <trkpt lat="44.738" lon="3.0702">
        <ele>1180.16</ele>
        <time>2014-06-30T12:27:22Z</time>
      </trkpt>
      <trkpt lat="44.73816" lon="3.07021">
        <ele>1179.67</ele>
        <time>2014-06-30T12:27:35Z</time>
      </trkpt>
      <trkpt lat="44.73835" lon="3.07019">
        <ele>1178.23</ele>
        <time>2014-06-30T12:27:52Z</time>
      </trkpt>
      <trkpt lat="44.73843" lon="3.07018">
        <ele>1177.75</ele>
        <time>2014-06-30T12:28:06Z</time>
      </trkpt>
      <trkpt lat="44.73845" lon="3.07018">
        <ele>1177.75</ele>
        <time>2014-06-30T12:28:14Z</time>
      </trkpt>
      <trkpt lat="44.73851" lon="3.07017">
        <ele>1177.27</ele>
        <time>2014-06-30T12:28:27Z</time>
      </trkpt>
      <trkpt lat="44.73854" lon="3.07018">
        <ele>1177.27</ele>
        <time>2014-06-30T12:28:31Z</time>
      </trkpt>
      <trkpt lat="44.73868" lon="3.07019">
        <ele>1177.27</ele>
        <time>2014-06-30T12:28:44Z</time>
      </trkpt>
      <trkpt lat="44.73877" lon="3.07017">
        <ele>1177.27</ele>
        <time>2014-06-30T12:28:58Z</time>
      </trkpt>
      <trkpt lat="44.73876" lon="3.07017">
        <ele>1177.27</ele>
        <time>2014-06-30T12:29:24Z</time>
      </trkpt>
      <trkpt lat="44.73878" lon="3.07016">
        <ele>1177.27</ele>
        <time>2014-06-30T12:29:39Z</time>
      </trkpt>
      <trkpt lat="44.7388" lon="3.07015">
        <ele>1177.27</ele>
        <time>2014-06-30T12:30:04Z</time>
      </trkpt>
      <trkpt lat="44.73878" lon="3.07016">
        <ele>1177.27</ele>
        <time>2014-06-30T12:30:29Z</time>
      </trkpt>
      <trkpt lat="44.73887" lon="3.07015">
        <ele>1177.27</ele>
        <time>2014-06-30T12:30:39Z</time>
      </trkpt>
      <trkpt lat="44.7391" lon="3.07013">
        <ele>1177.27</ele>
        <time>2014-06-30T12:30:55Z</time>
      </trkpt>
      <trkpt lat="44.73932" lon="3.07011">
        <ele>1178.71</ele>
        <time>2014-06-30T12:31:12Z</time>
      </trkpt>
      <trkpt lat="44.73955" lon="3.07009">
        <ele>1179.19</ele>
        <time>2014-06-30T12:31:29Z</time>
      </trkpt>
      <trkpt lat="44.73978" lon="3.07007">
        <ele>1179.67</ele>
        <time>2014-06-30T12:31:46Z</time>
      </trkpt>
      <trkpt lat="44.74001" lon="3.07006">
        <ele>1181.12</ele>
        <time>2014-06-30T12:32:02Z</time>
      </trkpt>
      <trkpt lat="44.74029" lon="3.07004">
        <ele>1181.6</ele>
        <time>2014-06-30T12:32:21Z</time>
      </trkpt>
      <trkpt lat="44.74061" lon="3.07001">
        <ele>1182.56</ele>
        <time>2014-06-30T12:32:42Z</time>
      </trkpt>
      <trkpt lat="44.74092" lon="3.06999">
        <ele>1182.56</ele>
        <time>2014-06-30T12:33:01Z</time>
      </trkpt>
      <trkpt lat="44.74106" lon="3.06998">
        <ele>1181.12</ele>
        <time>2014-06-30T12:33:11Z</time>
      </trkpt>
      <trkpt lat="44.74114" lon="3.06996">
        <ele>1180.64</ele>
        <time>2014-06-30T12:33:17Z</time>
      </trkpt>
      <trkpt lat="44.74135" lon="3.06994">
        <ele>1180.16</ele>
        <time>2014-06-30T12:33:31Z</time>
      </trkpt>
      <trkpt lat="44.74161" lon="3.06994">
        <ele>1179.67</ele>
        <time>2014-06-30T12:33:50Z</time>
      </trkpt>
      <trkpt lat="44.74193" lon="3.0699">
        <ele>1179.19</ele>
        <time>2014-06-30T12:34:11Z</time>
      </trkpt>
      <trkpt lat="44.74223" lon="3.06975">
        <ele>1178.23</ele>
        <time>2014-06-30T12:34:33Z</time>
      </trkpt>
      <trkpt lat="44.74247" lon="3.06961">
        <ele>1176.31</ele>
        <time>2014-06-30T12:34:52Z</time>
      </trkpt>
      <trkpt lat="44.74273" lon="3.06947">
        <ele>1173.43</ele>
        <time>2014-06-30T12:35:11Z</time>
      </trkpt>
      <trkpt lat="44.74298" lon="3.06931">
        <ele>1171.5</ele>
        <time>2014-06-30T12:35:30Z</time>
      </trkpt>
      <trkpt lat="44.74332" lon="3.06907">
        <ele>1170.06</ele>
        <time>2014-06-30T12:35:55Z</time>
      </trkpt>
      <trkpt lat="44.74336" lon="3.06903">
        <ele>1170.06</ele>
        <time>2014-06-30T12:35:59Z</time>
      </trkpt>
      <trkpt lat="44.74341" lon="3.06905">
        <ele>1169.58</ele>
        <time>2014-06-30T12:36:14Z</time>
      </trkpt>
      <trkpt lat="44.7434" lon="3.06904">
        <ele>1169.58</ele>
        <time>2014-06-30T12:36:34Z</time>
      </trkpt>
      <trkpt lat="44.74339" lon="3.069">
        <ele>1169.58</ele>
        <time>2014-06-30T12:36:49Z</time>
      </trkpt>
      <trkpt lat="44.74346" lon="3.06895">
        <ele>1169.58</ele>
        <time>2014-06-30T12:37:00Z</time>
      </trkpt>
      <trkpt lat="44.74352" lon="3.06892">
        <ele>1169.58</ele>
        <time>2014-06-30T12:37:11Z</time>
      </trkpt>
      <trkpt lat="44.74355" lon="3.06888">
        <ele>1169.58</ele>
        <time>2014-06-30T12:37:21Z</time>
      </trkpt>
      <trkpt lat="44.7436" lon="3.06883">
        <ele>1169.58</ele>
        <time>2014-06-30T12:37:30Z</time>
      </trkpt>
      <trkpt lat="44.74377" lon="3.06878">
        <ele>1170.54</ele>
        <time>2014-06-30T12:37:44Z</time>
      </trkpt>
      <trkpt lat="44.74378" lon="3.06877">
        <ele>1170.54</ele>
        <time>2014-06-30T12:37:45Z</time>
      </trkpt>
      <trkpt lat="44.74379" lon="3.06876">
        <ele>1170.54</ele>
        <time>2014-06-30T12:37:46Z</time>
      </trkpt>
      <trkpt lat="44.74386" lon="3.06872">
        <ele>1170.54</ele>
        <time>2014-06-30T12:37:52Z</time>
      </trkpt>
      <trkpt lat="44.74391" lon="3.06873">
        <ele>1171.02</ele>
        <time>2014-06-30T12:37:55Z</time>
      </trkpt>
      <trkpt lat="44.74392" lon="3.06872">
        <ele>1171.02</ele>
        <time>2014-06-30T12:37:56Z</time>
      </trkpt>
      <trkpt lat="44.74394" lon="3.06872">
        <ele>1171.02</ele>
        <time>2014-06-30T12:37:57Z</time>
      </trkpt>
      <trkpt lat="44.74395" lon="3.06871">
        <ele>1171.02</ele>
        <time>2014-06-30T12:37:58Z</time>
      </trkpt>
      <trkpt lat="44.74397" lon="3.0687">
        <ele>1171.02</ele>
        <time>2014-06-30T12:37:59Z</time>
      </trkpt>
      <trkpt lat="44.74398" lon="3.06869">
        <ele>1171.02</ele>
        <time>2014-06-30T12:38:00Z</time>
      </trkpt>
      <trkpt lat="44.74399" lon="3.06869">
        <ele>1171.02</ele>
        <time>2014-06-30T12:38:01Z</time>
      </trkpt>
      <trkpt lat="44.74401" lon="3.06869">
        <ele>1171.02</ele>
        <time>2014-06-30T12:38:02Z</time>
      </trkpt>
      <trkpt lat="44.74402" lon="3.06868">
        <ele>1171.02</ele>
        <time>2014-06-30T12:38:03Z</time>
      </trkpt>
      <trkpt lat="44.74404" lon="3.06868">
        <ele>1171.02</ele>
        <time>2014-06-30T12:38:04Z</time>
      </trkpt>
      <trkpt lat="44.74405" lon="3.06867">
        <ele>1171.02</ele>
        <time>2014-06-30T12:38:05Z</time>
      </trkpt>
      <trkpt lat="44.74406" lon="3.06867">
        <ele>1171.02</ele>
        <time>2014-06-30T12:38:06Z</time>
      </trkpt>
      <trkpt lat="44.7443" lon="3.06855">
        <ele>1171.5</ele>
        <time>2014-06-30T12:38:25Z</time>
      </trkpt>
      <trkpt lat="44.74449" lon="3.06836">
        <ele>1171.5</ele>
        <time>2014-06-30T12:38:42Z</time>
      </trkpt>
      <trkpt lat="44.7447" lon="3.06806">
        <ele>1172.47</ele>
        <time>2014-06-30T12:39:02Z</time>
      </trkpt>
      <trkpt lat="44.74491" lon="3.06779">
        <ele>1172.47</ele>
        <time>2014-06-30T12:39:21Z</time>
      </trkpt>
      <trkpt lat="44.74517" lon="3.06756">
        <ele>1171.5</ele>
        <time>2014-06-30T12:39:41Z</time>
      </trkpt>
      <trkpt lat="44.74531" lon="3.06746">
        <ele>1171.02</ele>
        <time>2014-06-30T12:39:54Z</time>
      </trkpt>
      <trkpt lat="44.74532" lon="3.06744">
        <ele>1171.02</ele>
        <time>2014-06-30T12:39:55Z</time>
      </trkpt>
      <trkpt lat="44.74534" lon="3.06741">
        <ele>1171.02</ele>
        <time>2014-06-30T12:39:59Z</time>
      </trkpt>
      <trkpt lat="44.74535" lon="3.0674">
        <ele>1171.02</ele>
        <time>2014-06-30T12:40:00Z</time>
      </trkpt>
      <trkpt lat="44.74536" lon="3.06739">
        <ele>1171.02</ele>
        <time>2014-06-30T12:40:01Z</time>
      </trkpt>
      <trkpt lat="44.74537" lon="3.06737">
        <ele>1171.02</ele>
        <time>2014-06-30T12:40:02Z</time>
      </trkpt>
      <trkpt lat="44.74538" lon="3.06736">
        <ele>1171.02</ele>
        <time>2014-06-30T12:40:03Z</time>
      </trkpt>
      <trkpt lat="44.74542" lon="3.0673">
        <ele>1170.54</ele>
        <time>2014-06-30T12:40:10Z</time>
      </trkpt>
      <trkpt lat="44.74543" lon="3.06729">
        <ele>1170.54</ele>
        <time>2014-06-30T12:40:11Z</time>
      </trkpt>
      <trkpt lat="44.74547" lon="3.06728">
        <ele>1170.06</ele>
        <time>2014-06-30T12:40:16Z</time>
      </trkpt>
      <trkpt lat="44.74548" lon="3.06727">
        <ele>1170.06</ele>
        <time>2014-06-30T12:40:17Z</time>
      </trkpt>
      <trkpt lat="44.7455" lon="3.06726">
        <ele>1169.58</ele>
        <time>2014-06-30T12:40:29Z</time>
      </trkpt>
      <trkpt lat="44.74556" lon="3.06719">
        <ele>1170.54</ele>
        <time>2014-06-30T12:40:54Z</time>
      </trkpt>
      <trkpt lat="44.74574" lon="3.06709">
        <ele>1169.58</ele>
        <time>2014-06-30T12:41:10Z</time>
      </trkpt>
      <trkpt lat="44.74579" lon="3.06709">
        <ele>1169.58</ele>
        <time>2014-06-30T12:41:14Z</time>
      </trkpt>
      <trkpt lat="44.7458" lon="3.0671">
        <ele>1169.58</ele>
        <time>2014-06-30T12:41:15Z</time>
      </trkpt>
      <trkpt lat="44.74582" lon="3.0671">
        <ele>1169.58</ele>
        <time>2014-06-30T12:41:16Z</time>
      </trkpt>
      <trkpt lat="44.74583" lon="3.06709">
        <ele>1169.58</ele>
        <time>2014-06-30T12:41:18Z</time>
      </trkpt>
      <trkpt lat="44.74584" lon="3.06708">
        <ele>1169.58</ele>
        <time>2014-06-30T12:41:19Z</time>
      </trkpt>
      <trkpt lat="44.74585" lon="3.06708">
        <ele>1169.58</ele>
        <time>2014-06-30T12:41:20Z</time>
      </trkpt>
      <trkpt lat="44.74587" lon="3.06707">
        <ele>1169.58</ele>
        <time>2014-06-30T12:41:21Z</time>
      </trkpt>
      <trkpt lat="44.74607" lon="3.06703">
        <ele>1169.1</ele>
        <time>2014-06-30T12:41:35Z</time>
      </trkpt>
      <trkpt lat="44.74627" lon="3.06697">
        <ele>1169.1</ele>
        <time>2014-06-30T12:41:48Z</time>
      </trkpt>
      <trkpt lat="44.7463" lon="3.06695">
        <ele>1169.1</ele>
        <time>2014-06-30T12:41:56Z</time>
      </trkpt>
      <trkpt lat="44.74631" lon="3.06695">
        <ele>1169.1</ele>
        <time>2014-06-30T12:41:57Z</time>
      </trkpt>
      <trkpt lat="44.74651" lon="3.06691">
        <ele>1169.1</ele>
        <time>2014-06-30T12:42:14Z</time>
      </trkpt>
      <trkpt lat="44.74665" lon="3.06683">
        <ele>1167.66</ele>
        <time>2014-06-30T12:42:29Z</time>
      </trkpt>
      <trkpt lat="44.74686" lon="3.06662">
        <ele>1164.29</ele>
        <time>2014-06-30T12:42:48Z</time>
      </trkpt>
      <trkpt lat="44.74706" lon="3.06628">
        <ele>1161.41</ele>
        <time>2014-06-30T12:43:09Z</time>
      </trkpt>
      <trkpt lat="44.74727" lon="3.06597">
        <ele>1158.53</ele>
        <time>2014-06-30T12:43:30Z</time>
      </trkpt>
      <trkpt lat="44.74745" lon="3.06577">
        <ele>1156.12</ele>
        <time>2014-06-30T12:43:46Z</time>
      </trkpt>
      <trkpt lat="44.74763" lon="3.06569">
        <ele>1153.24</ele>
        <time>2014-06-30T12:43:59Z</time>
      </trkpt>
      <trkpt lat="44.74772" lon="3.06568">
        <ele>1152.76</ele>
        <time>2014-06-30T12:44:12Z</time>
      </trkpt>
      <trkpt lat="44.74773" lon="3.06566">
        <ele>1152.76</ele>
        <time>2014-06-30T12:44:34Z</time>
      </trkpt>
      <trkpt lat="44.74772" lon="3.06567">
        <ele>1152.28</ele>
        <time>2014-06-30T12:44:54Z</time>
      </trkpt>
      <trkpt lat="44.74772" lon="3.06563">
        <ele>1152.28</ele>
        <time>2014-06-30T12:45:05Z</time>
      </trkpt>
      <trkpt lat="44.74776" lon="3.06568">
        <ele>1152.28</ele>
        <time>2014-06-30T12:45:15Z</time>
      </trkpt>
      <trkpt lat="44.74778" lon="3.0657">
        <ele>1151.8</ele>
        <time>2014-06-30T12:45:17Z</time>
      </trkpt>
      <trkpt lat="44.74779" lon="3.0657">
        <ele>1151.8</ele>
        <time>2014-06-30T12:45:18Z</time>
      </trkpt>
      <trkpt lat="44.74787" lon="3.06577">
        <ele>1151.32</ele>
        <time>2014-06-30T12:45:29Z</time>
      </trkpt>
      <trkpt lat="44.74795" lon="3.06589">
        <ele>1151.32</ele>
        <time>2014-06-30T12:45:42Z</time>
      </trkpt>
      <trkpt lat="44.74796" lon="3.06591">
        <ele>1151.32</ele>
        <time>2014-06-30T12:45:48Z</time>
      </trkpt>
      <trkpt lat="44.74796" lon="3.06594">
        <ele>1151.32</ele>
        <time>2014-06-30T12:45:53Z</time>
      </trkpt>
      <trkpt lat="44.74799" lon="3.06598">
        <ele>1151.32</ele>
        <time>2014-06-30T12:46:01Z</time>
      </trkpt>
      <trkpt lat="44.74804" lon="3.06604">
        <ele>1150.84</ele>
        <time>2014-06-30T12:46:15Z</time>
      </trkpt>
      <trkpt lat="44.74813" lon="3.06608">
        <ele>1150.35</ele>
        <time>2014-06-30T12:46:28Z</time>
      </trkpt>
      <trkpt lat="44.74824" lon="3.06617">
        <ele>1150.35</ele>
        <time>2014-06-30T12:46:41Z</time>
      </trkpt>
      <trkpt lat="44.74831" lon="3.06621">
        <ele>1150.35</ele>
        <time>2014-06-30T12:46:53Z</time>
      </trkpt>
      <trkpt lat="44.74846" lon="3.0663">
        <ele>1150.35</ele>
        <time>2014-06-30T12:47:08Z</time>
      </trkpt>
      <trkpt lat="44.74857" lon="3.06636">
        <ele>1150.35</ele>
        <time>2014-06-30T12:47:18Z</time>
      </trkpt>
      <trkpt lat="44.74869" lon="3.06642">
        <ele>1152.28</ele>
        <time>2014-06-30T12:47:28Z</time>
      </trkpt>
      <trkpt lat="44.74872" lon="3.06644">
        <ele>1152.28</ele>
        <time>2014-06-30T12:47:31Z</time>
      </trkpt>
      <trkpt lat="44.74875" lon="3.06646">
        <ele>1152.28</ele>
        <time>2014-06-30T12:47:33Z</time>
      </trkpt>
      <trkpt lat="44.7489" lon="3.06655">
        <ele>1152.76</ele>
        <time>2014-06-30T12:47:46Z</time>
      </trkpt>
      <trkpt lat="44.74911" lon="3.06663">
        <ele>1153.72</ele>
        <time>2014-06-30T12:48:04Z</time>
      </trkpt>
      <trkpt lat="44.7493" lon="3.06671">
        <ele>1155.16</ele>
        <time>2014-06-30T12:48:20Z</time>
      </trkpt>
      <trkpt lat="44.74943" lon="3.06678">
        <ele>1156.6</ele>
        <time>2014-06-30T12:48:34Z</time>
      </trkpt>
      <trkpt lat="44.74943" lon="3.06679">
        <ele>1156.6</ele>
        <time>2014-06-30T12:48:35Z</time>
      </trkpt>
      <trkpt lat="44.74956" lon="3.06689">
        <ele>1157.08</ele>
        <time>2014-06-30T12:48:48Z</time>
      </trkpt>
      <trkpt lat="44.74966" lon="3.06695">
        <ele>1157.08</ele>
        <time>2014-06-30T12:48:56Z</time>
      </trkpt>
      <trkpt lat="44.74967" lon="3.06696">
        <ele>1157.08</ele>
        <time>2014-06-30T12:48:57Z</time>
      </trkpt>
      <trkpt lat="44.74968" lon="3.06696">
        <ele>1157.08</ele>
        <time>2014-06-30T12:48:58Z</time>
      </trkpt>
      <trkpt lat="44.74987" lon="3.0671">
        <ele>1155.64</ele>
        <time>2014-06-30T12:49:15Z</time>
      </trkpt>
      <trkpt lat="44.74993" lon="3.06714">
        <ele>1155.16</ele>
        <time>2014-06-30T12:49:31Z</time>
      </trkpt>
      <trkpt lat="44.74992" lon="3.06714">
        <ele>1155.16</ele>
        <time>2014-06-30T12:50:03Z</time>
      </trkpt>
      <trkpt lat="44.74999" lon="3.06721">
        <ele>1155.16</ele>
        <time>2014-06-30T12:50:18Z</time>
      </trkpt>
      <trkpt lat="44.75007" lon="3.06733">
        <ele>1154.68</ele>
        <time>2014-06-30T12:50:33Z</time>
      </trkpt>
      <trkpt lat="44.75011" lon="3.06738">
        <ele>1154.68</ele>
        <time>2014-06-30T12:50:37Z</time>
      </trkpt>
      <trkpt lat="44.75023" lon="3.0675">
        <ele>1154.68</ele>
        <time>2014-06-30T12:50:54Z</time>
      </trkpt>
      <trkpt lat="44.75033" lon="3.06763">
        <ele>1154.2</ele>
        <time>2014-06-30T12:51:09Z</time>
      </trkpt>
      <trkpt lat="44.75045" lon="3.06782">
        <ele>1154.2</ele>
        <time>2014-06-30T12:51:23Z</time>
      </trkpt>
      <trkpt lat="44.75062" lon="3.06801">
        <ele>1152.76</ele>
        <time>2014-06-30T12:51:42Z</time>
      </trkpt>
      <trkpt lat="44.75078" lon="3.06824">
        <ele>1151.8</ele>
        <time>2014-06-30T12:51:59Z</time>
      </trkpt>
      <trkpt lat="44.75083" lon="3.06823">
        <ele>1151.8</ele>
        <time>2014-06-30T12:52:13Z</time>
      </trkpt>
      <trkpt lat="44.75079" lon="3.06823">
        <ele>1151.8</ele>
        <time>2014-06-30T12:52:31Z</time>
      </trkpt>
      <trkpt lat="44.75078" lon="3.06832">
        <ele>1151.8</ele>
        <time>2014-06-30T12:52:48Z</time>
      </trkpt>
      <trkpt lat="44.75079" lon="3.06845">
        <ele>1152.76</ele>
        <time>2014-06-30T12:53:01Z</time>
      </trkpt>
      <trkpt lat="44.75081" lon="3.06851">
        <ele>1153.24</ele>
        <time>2014-06-30T12:53:09Z</time>
      </trkpt>
      <trkpt lat="44.75084" lon="3.06865">
        <ele>1154.68</ele>
        <time>2014-06-30T12:53:19Z</time>
      </trkpt>
      <trkpt lat="44.75085" lon="3.06881">
        <ele>1156.12</ele>
        <time>2014-06-30T12:53:30Z</time>
      </trkpt>
      <trkpt lat="44.75086" lon="3.06883">
        <ele>1156.12</ele>
        <time>2014-06-30T12:53:31Z</time>
      </trkpt>
      <trkpt lat="44.75086" lon="3.06884">
        <ele>1156.12</ele>
        <time>2014-06-30T12:53:32Z</time>
      </trkpt>
      <trkpt lat="44.75086" lon="3.06886">
        <ele>1156.6</ele>
        <time>2014-06-30T12:53:33Z</time>
      </trkpt>
      <trkpt lat="44.75087" lon="3.06887">
        <ele>1156.6</ele>
        <time>2014-06-30T12:53:34Z</time>
      </trkpt>
      <trkpt lat="44.75087" lon="3.06889">
        <ele>1156.6</ele>
        <time>2014-06-30T12:53:35Z</time>
      </trkpt>
      <trkpt lat="44.75102" lon="3.06915">
        <ele>1156.12</ele>
        <time>2014-06-30T12:53:54Z</time>
      </trkpt>
      <trkpt lat="44.7511" lon="3.06927">
        <ele>1155.64</ele>
        <time>2014-06-30T12:54:08Z</time>
      </trkpt>
      <trkpt lat="44.75119" lon="3.06944">
        <ele>1154.68</ele>
        <time>2014-06-30T12:54:21Z</time>
      </trkpt>
      <trkpt lat="44.75122" lon="3.06949">
        <ele>1154.2</ele>
        <time>2014-06-30T12:54:25Z</time>
      </trkpt>
      <trkpt lat="44.75122" lon="3.06951">
        <ele>1154.2</ele>
        <time>2014-06-30T12:54:26Z</time>
      </trkpt>
      <trkpt lat="44.75125" lon="3.06955">
        <ele>1153.72</ele>
        <time>2014-06-30T12:54:30Z</time>
      </trkpt>
      <trkpt lat="44.75137" lon="3.06972">
        <ele>1152.28</ele>
        <time>2014-06-30T12:54:45Z</time>
      </trkpt>
      <trkpt lat="44.75151" lon="3.06989">
        <ele>1149.87</ele>
        <time>2014-06-30T12:55:01Z</time>
      </trkpt>
      <trkpt lat="44.75162" lon="3.07006">
        <ele>1148.43</ele>
        <time>2014-06-30T12:55:17Z</time>
      </trkpt>
      <trkpt lat="44.7518" lon="3.07025">
        <ele>1145.07</ele>
        <time>2014-06-30T12:55:36Z</time>
      </trkpt>
      <trkpt lat="44.75195" lon="3.07029">
        <ele>1143.63</ele>
        <time>2014-06-30T12:55:49Z</time>
      </trkpt>
      <trkpt lat="44.75199" lon="3.07031">
        <ele>1143.14</ele>
        <time>2014-06-30T12:55:52Z</time>
      </trkpt>
      <trkpt lat="44.752" lon="3.07031">
        <ele>1142.66</ele>
        <time>2014-06-30T12:55:53Z</time>
      </trkpt>
      <trkpt lat="44.75202" lon="3.07032">
        <ele>1142.66</ele>
        <time>2014-06-30T12:55:54Z</time>
      </trkpt>
      <trkpt lat="44.75203" lon="3.07032">
        <ele>1142.66</ele>
        <time>2014-06-30T12:55:55Z</time>
      </trkpt>
      <trkpt lat="44.75205" lon="3.07033">
        <ele>1142.66</ele>
        <time>2014-06-30T12:55:56Z</time>
      </trkpt>
      <trkpt lat="44.75206" lon="3.07034">
        <ele>1142.66</ele>
        <time>2014-06-30T12:55:57Z</time>
      </trkpt>
      <trkpt lat="44.75229" lon="3.07038">
        <ele>1140.26</ele>
        <time>2014-06-30T12:56:16Z</time>
      </trkpt>
      <trkpt lat="44.75256" lon="3.0704">
        <ele>1137.86</ele>
        <time>2014-06-30T12:56:39Z</time>
      </trkpt>
      <trkpt lat="44.75279" lon="3.07041">
        <ele>1134.49</ele>
        <time>2014-06-30T12:56:57Z</time>
      </trkpt>
      <trkpt lat="44.75283" lon="3.07041">
        <ele>1134.49</ele>
        <time>2014-06-30T12:57:14Z</time>
      </trkpt>
      <trkpt lat="44.75286" lon="3.07041">
        <ele>1134.01</ele>
        <time>2014-06-30T12:57:32Z</time>
      </trkpt>
      <trkpt lat="44.75286" lon="3.07037">
        <ele>1133.53</ele>
        <time>2014-06-30T12:57:53Z</time>
      </trkpt>
      <trkpt lat="44.75287" lon="3.0704">
        <ele>1133.53</ele>
        <time>2014-06-30T12:58:09Z</time>
      </trkpt>
      <trkpt lat="44.75282" lon="3.07041">
        <ele>1133.53</ele>
        <time>2014-06-30T12:58:22Z</time>
      </trkpt>
      <trkpt lat="44.75291" lon="3.0704">
        <ele>1133.53</ele>
        <time>2014-06-30T12:58:39Z</time>
      </trkpt>
      <trkpt lat="44.75293" lon="3.07041">
        <ele>1132.57</ele>
        <time>2014-06-30T12:58:41Z</time>
      </trkpt>
      <trkpt lat="44.75296" lon="3.07041">
        <ele>1132.09</ele>
        <time>2014-06-30T12:58:48Z</time>
      </trkpt>
      <trkpt lat="44.75299" lon="3.07045">
        <ele>1132.09</ele>
        <time>2014-06-30T12:58:52Z</time>
      </trkpt>
      <trkpt lat="44.75306" lon="3.07046">
        <ele>1131.13</ele>
        <time>2014-06-30T12:59:00Z</time>
      </trkpt>
      <trkpt lat="44.75308" lon="3.07047">
        <ele>1131.13</ele>
        <time>2014-06-30T12:59:01Z</time>
      </trkpt>
      <trkpt lat="44.75309" lon="3.07048">
        <ele>1131.13</ele>
        <time>2014-06-30T12:59:02Z</time>
      </trkpt>
      <trkpt lat="44.75314" lon="3.0705">
        <ele>1131.13</ele>
        <time>2014-06-30T12:59:06Z</time>
      </trkpt>
      <trkpt lat="44.75315" lon="3.0705">
        <ele>1131.13</ele>
        <time>2014-06-30T12:59:07Z</time>
      </trkpt>
      <trkpt lat="44.75316" lon="3.07051">
        <ele>1131.13</ele>
        <time>2014-06-30T12:59:08Z</time>
      </trkpt>
      <trkpt lat="44.75318" lon="3.07051">
        <ele>1131.13</ele>
        <time>2014-06-30T12:59:09Z</time>
      </trkpt>
      <trkpt lat="44.75319" lon="3.07052">
        <ele>1130.65</ele>
        <time>2014-06-30T12:59:10Z</time>
      </trkpt>
      <trkpt lat="44.75342" lon="3.07062">
        <ele>1129.69</ele>
        <time>2014-06-30T12:59:28Z</time>
      </trkpt>
      <trkpt lat="44.75365" lon="3.07074">
        <ele>1129.21</ele>
        <time>2014-06-30T12:59:45Z</time>
      </trkpt>
      <trkpt lat="44.7539" lon="3.07074">
        <ele>1128.24</ele>
        <time>2014-06-30T13:00:04Z</time>
      </trkpt>
      <trkpt lat="44.75395" lon="3.07074">
        <ele>1128.24</ele>
        <time>2014-06-30T13:00:09Z</time>
      </trkpt>
      <trkpt lat="44.75397" lon="3.07074">
        <ele>1128.24</ele>
        <time>2014-06-30T13:00:10Z</time>
      </trkpt>
      <trkpt lat="44.75398" lon="3.07073">
        <ele>1128.24</ele>
        <time>2014-06-30T13:00:11Z</time>
      </trkpt>
      <trkpt lat="44.75399" lon="3.07073">
        <ele>1128.24</ele>
        <time>2014-06-30T13:00:12Z</time>
      </trkpt>
      <trkpt lat="44.75401" lon="3.07072">
        <ele>1128.24</ele>
        <time>2014-06-30T13:00:13Z</time>
      </trkpt>
      <trkpt lat="44.75402" lon="3.07072">
        <ele>1128.24</ele>
        <time>2014-06-30T13:00:14Z</time>
      </trkpt>
      <trkpt lat="44.75403" lon="3.07072">
        <ele>1128.24</ele>
        <time>2014-06-30T13:00:15Z</time>
      </trkpt>
      <trkpt lat="44.75405" lon="3.07073">
        <ele>1128.24</ele>
        <time>2014-06-30T13:00:16Z</time>
      </trkpt>
      <trkpt lat="44.75406" lon="3.07073">
        <ele>1128.24</ele>
        <time>2014-06-30T13:00:17Z</time>
      </trkpt>
      <trkpt lat="44.75407" lon="3.07073">
        <ele>1128.24</ele>
        <time>2014-06-30T13:00:18Z</time>
      </trkpt>
      <trkpt lat="44.75409" lon="3.07073">
        <ele>1128.24</ele>
        <time>2014-06-30T13:00:19Z</time>
      </trkpt>
      <trkpt lat="44.7541" lon="3.07073">
        <ele>1128.24</ele>
        <time>2014-06-30T13:00:20Z</time>
      </trkpt>
      <trkpt lat="44.75411" lon="3.07073">
        <ele>1128.24</ele>
        <time>2014-06-30T13:00:21Z</time>
      </trkpt>
      <trkpt lat="44.75412" lon="3.07073">
        <ele>1128.24</ele>
        <time>2014-06-30T13:00:22Z</time>
      </trkpt>
      <trkpt lat="44.7543" lon="3.07073">
        <ele>1128.24</ele>
        <time>2014-06-30T13:00:37Z</time>
      </trkpt>
      <trkpt lat="44.75446" lon="3.07079">
        <ele>1128.24</ele>
        <time>2014-06-30T13:00:51Z</time>
      </trkpt>
      <trkpt lat="44.7545" lon="3.07085">
        <ele>1128.24</ele>
        <time>2014-06-30T13:00:56Z</time>
      </trkpt>
      <trkpt lat="44.75457" lon="3.07095">
        <ele>1128.24</ele>
        <time>2014-06-30T13:01:04Z</time>
      </trkpt>
      <trkpt lat="44.75457" lon="3.07097">
        <ele>1128.24</ele>
        <time>2014-06-30T13:01:05Z</time>
      </trkpt>
      <trkpt lat="44.75455" lon="3.07105">
        <ele>1129.69</ele>
        <time>2014-06-30T13:01:17Z</time>
      </trkpt>
      <trkpt lat="44.75453" lon="3.07105">
        <ele>1129.69</ele>
        <time>2014-06-30T13:01:18Z</time>
      </trkpt>
      <trkpt lat="44.75452" lon="3.07106">
        <ele>1129.69</ele>
        <time>2014-06-30T13:01:19Z</time>
      </trkpt>
      <trkpt lat="44.75449" lon="3.07104">
        <ele>1129.21</ele>
        <time>2014-06-30T13:01:32Z</time>
      </trkpt>
      <trkpt lat="44.75444" lon="3.07105">
        <ele>1129.21</ele>
        <time>2014-06-30T13:01:45Z</time>
      </trkpt>
      <trkpt lat="44.75449" lon="3.07105">
        <ele>1128.24</ele>
        <time>2014-06-30T13:02:15Z</time>
      </trkpt>
      <trkpt lat="44.75452" lon="3.07107">
        <ele>1128.24</ele>
        <time>2014-06-30T13:02:40Z</time>
      </trkpt>
      <trkpt lat="44.75457" lon="3.07108">
        <ele>1128.24</ele>
        <time>2014-06-30T13:03:08Z</time>
      </trkpt>
      <trkpt lat="44.75454" lon="3.0711">
        <ele>1128.73</ele>
        <time>2014-06-30T13:03:32Z</time>
      </trkpt>
      <trkpt lat="44.75449" lon="3.07111">
        <ele>1128.73</ele>
        <time>2014-06-30T13:03:45Z</time>
      </trkpt>
      <trkpt lat="44.75448" lon="3.07112">
        <ele>1128.73</ele>
        <time>2014-06-30T13:03:46Z</time>
      </trkpt>
      <trkpt lat="44.75448" lon="3.07113">
        <ele>1128.73</ele>
        <time>2014-06-30T13:03:47Z</time>
      </trkpt>
      <trkpt lat="44.7545" lon="3.07131">
        <ele>1128.73</ele>
        <time>2014-06-30T13:04:03Z</time>
      </trkpt>
      <trkpt lat="44.75455" lon="3.07147">
        <ele>1128.24</ele>
        <time>2014-06-30T13:04:18Z</time>
      </trkpt>
      <trkpt lat="44.75455" lon="3.07147">
        <ele>1127.28</ele>
        <time>2014-06-30T13:04:36Z</time>
      </trkpt>
      <trkpt lat="44.75456" lon="3.07149">
        <ele>1127.28</ele>
        <time>2014-06-30T13:04:49Z</time>
      </trkpt>
      <trkpt lat="44.75454" lon="3.07148">
        <ele>1127.28</ele>
        <time>2014-06-30T13:05:02Z</time>
      </trkpt>
      <trkpt lat="44.75452" lon="3.07147">
        <ele>1128.73</ele>
        <time>2014-06-30T13:05:23Z</time>
      </trkpt>
      <trkpt lat="44.75452" lon="3.07147">
        <ele>1128.73</ele>
        <time>2014-06-30T13:05:24Z</time>
      </trkpt>
      <trkpt lat="44.75453" lon="3.07146">
        <ele>1128.73</ele>
        <time>2014-06-30T13:05:35Z</time>
      </trkpt>
      <trkpt lat="44.75453" lon="3.07144">
        <ele>1128.73</ele>
        <time>2014-06-30T13:05:37Z</time>
      </trkpt>
      <trkpt lat="44.75453" lon="3.07142">
        <ele>1128.73</ele>
        <time>2014-06-30T13:05:38Z</time>
      </trkpt>
      <trkpt lat="44.75453" lon="3.07141">
        <ele>1128.73</ele>
        <time>2014-06-30T13:05:39Z</time>
      </trkpt>
      <trkpt lat="44.75452" lon="3.07131">
        <ele>1128.73</ele>
        <time>2014-06-30T13:05:51Z</time>
      </trkpt>
      <trkpt lat="44.75452" lon="3.07129">
        <ele>1128.73</ele>
        <time>2014-06-30T13:06:08Z</time>
      </trkpt>
      <trkpt lat="44.75452" lon="3.07128">
        <ele>1129.21</ele>
        <time>2014-06-30T13:06:28Z</time>
      </trkpt>
      <trkpt lat="44.75451" lon="3.07127">
        <ele>1129.21</ele>
        <time>2014-06-30T13:06:29Z</time>
      </trkpt>
      <trkpt lat="44.7545" lon="3.0712">
        <ele>1129.21</ele>
        <time>2014-06-30T13:06:33Z</time>
      </trkpt>
      <trkpt lat="44.75451" lon="3.07118">
        <ele>1129.21</ele>
        <time>2014-06-30T13:06:34Z</time>
      </trkpt>
      <trkpt lat="44.75451" lon="3.07117">
        <ele>1129.21</ele>
        <time>2014-06-30T13:06:35Z</time>
      </trkpt>
      <trkpt lat="44.75452" lon="3.07115">
        <ele>1129.21</ele>
        <time>2014-06-30T13:06:36Z</time>
      </trkpt>
      <trkpt lat="44.75452" lon="3.07113">
        <ele>1129.21</ele>
        <time>2014-06-30T13:06:37Z</time>
      </trkpt>
      <trkpt lat="44.75455" lon="3.07106">
        <ele>1129.21</ele>
        <time>2014-06-30T13:06:41Z</time>
      </trkpt>
      <trkpt lat="44.75456" lon="3.07105">
        <ele>1129.21</ele>
        <time>2014-06-30T13:06:42Z</time>
      </trkpt>
      <trkpt lat="44.75456" lon="3.07104">
        <ele>1129.69</ele>
        <time>2014-06-30T13:06:43Z</time>
      </trkpt>
      <trkpt lat="44.75457" lon="3.071">
        <ele>1129.69</ele>
        <time>2014-06-30T13:06:45Z</time>
      </trkpt>
      <trkpt lat="44.75457" lon="3.07099">
        <ele>1129.69</ele>
        <time>2014-06-30T13:06:46Z</time>
      </trkpt>
      <trkpt lat="44.75458" lon="3.07097">
        <ele>1129.69</ele>
        <time>2014-06-30T13:06:47Z</time>
      </trkpt>
      <trkpt lat="44.75469" lon="3.07071">
        <ele>1129.69</ele>
        <time>2014-06-30T13:07:03Z</time>
      </trkpt>
      <trkpt lat="44.75484" lon="3.07049">
        <ele>1130.17</ele>
        <time>2014-06-30T13:07:19Z</time>
      </trkpt>
      <trkpt lat="44.75489" lon="3.07041">
        <ele>1130.17</ele>
        <time>2014-06-30T13:07:32Z</time>
      </trkpt>
      <trkpt lat="44.75498" lon="3.07029">
        <ele>1128.24</ele>
        <time>2014-06-30T13:07:46Z</time>
      </trkpt>
      <trkpt lat="44.75506" lon="3.07018">
        <ele>1127.28</ele>
        <time>2014-06-30T13:07:59Z</time>
      </trkpt>
      <trkpt lat="44.75516" lon="3.07003">
        <ele>1126.32</ele>
        <time>2014-06-30T13:08:13Z</time>
      </trkpt>
      <trkpt lat="44.75531" lon="3.06991">
        <ele>1123.44</ele>
        <time>2014-06-30T13:08:29Z</time>
      </trkpt>
      <trkpt lat="44.75534" lon="3.06989">
        <ele>1122.96</ele>
        <time>2014-06-30T13:08:30Z</time>
      </trkpt>
      <trkpt lat="44.75537" lon="3.06987">
        <ele>1122.96</ele>
        <time>2014-06-30T13:08:31Z</time>
      </trkpt>
      <trkpt lat="44.75538" lon="3.06985">
        <ele>1122.96</ele>
        <time>2014-06-30T13:08:32Z</time>
      </trkpt>
      <trkpt lat="44.75538" lon="3.06979">
        <ele>1122.96</ele>
        <time>2014-06-30T13:08:36Z</time>
      </trkpt>
      <trkpt lat="44.75539" lon="3.0695">
        <ele>1121.52</ele>
        <time>2014-06-30T13:08:52Z</time>
      </trkpt>
      <trkpt lat="44.75541" lon="3.0693">
        <ele>1121.03</ele>
        <time>2014-06-30T13:09:07Z</time>
      </trkpt>
      <trkpt lat="44.75546" lon="3.06913">
        <ele>1120.55</ele>
        <time>2014-06-30T13:09:20Z</time>
      </trkpt>
      <trkpt lat="44.7555" lon="3.06906">
        <ele>1120.07</ele>
        <time>2014-06-30T13:09:25Z</time>
      </trkpt>
      <trkpt lat="44.7555" lon="3.06904">
        <ele>1120.07</ele>
        <time>2014-06-30T13:09:26Z</time>
      </trkpt>
      <trkpt lat="44.75551" lon="3.06903">
        <ele>1120.07</ele>
        <time>2014-06-30T13:09:27Z</time>
      </trkpt>
      <trkpt lat="44.75561" lon="3.06874">
        <ele>1119.11</ele>
        <time>2014-06-30T13:09:44Z</time>
      </trkpt>
      <trkpt lat="44.75569" lon="3.06849">
        <ele>1118.15</ele>
        <time>2014-06-30T13:10:00Z</time>
      </trkpt>
      <trkpt lat="44.75565" lon="3.06832">
        <ele>1118.15</ele>
        <time>2014-06-30T13:10:13Z</time>
      </trkpt>
      <trkpt lat="44.75558" lon="3.06806">
        <ele>1117.67</ele>
        <time>2014-06-30T13:10:28Z</time>
      </trkpt>
      <trkpt lat="44.75557" lon="3.06805">
        <ele>1117.67</ele>
        <time>2014-06-30T13:10:29Z</time>
      </trkpt>
      <trkpt lat="44.75554" lon="3.06795">
        <ele>1117.19</ele>
        <time>2014-06-30T13:10:35Z</time>
      </trkpt>
      <trkpt lat="44.75552" lon="3.06793">
        <ele>1117.19</ele>
        <time>2014-06-30T13:10:37Z</time>
      </trkpt>
      <trkpt lat="44.75544" lon="3.06768">
        <ele>1116.23</ele>
        <time>2014-06-30T13:10:52Z</time>
      </trkpt>
      <trkpt lat="44.75539" lon="3.06756">
        <ele>1115.75</ele>
        <time>2014-06-30T13:11:03Z</time>
      </trkpt>
      <trkpt lat="44.75535" lon="3.0673">
        <ele>1114.31</ele>
        <time>2014-06-30T13:11:19Z</time>
      </trkpt>
      <trkpt lat="44.75536" lon="3.06715">
        <ele>1114.31</ele>
        <time>2014-06-30T13:11:27Z</time>
      </trkpt>
      <trkpt lat="44.75538" lon="3.06687">
        <ele>1114.31</ele>
        <time>2014-06-30T13:11:42Z</time>
      </trkpt>
      <trkpt lat="44.75538" lon="3.06651">
        <ele>1113.82</ele>
        <time>2014-06-30T13:11:58Z</time>
      </trkpt>
      <trkpt lat="44.75534" lon="3.06629">
        <ele>1115.27</ele>
        <time>2014-06-30T13:12:13Z</time>
      </trkpt>
      <trkpt lat="44.75528" lon="3.06615">
        <ele>1115.27</ele>
        <time>2014-06-30T13:12:21Z</time>
      </trkpt>
      <trkpt lat="44.75517" lon="3.06598">
        <ele>1113.82</ele>
        <time>2014-06-30T13:12:34Z</time>
      </trkpt>
      <trkpt lat="44.75511" lon="3.06589">
        <ele>1113.34</ele>
        <time>2014-06-30T13:12:48Z</time>
      </trkpt>
      <trkpt lat="44.7551" lon="3.06588">
        <ele>1112.38</ele>
        <time>2014-06-30T13:12:50Z</time>
      </trkpt>
      <trkpt lat="44.75502" lon="3.06573">
        <ele>1110.46</ele>
        <time>2014-06-30T13:13:02Z</time>
      </trkpt>
      <trkpt lat="44.75496" lon="3.06561">
        <ele>1108.54</ele>
        <time>2014-06-30T13:13:12Z</time>
      </trkpt>
      <trkpt lat="44.75491" lon="3.06556">
        <ele>1107.58</ele>
        <time>2014-06-30T13:13:19Z</time>
      </trkpt>
      <trkpt lat="44.7548" lon="3.06543">
        <ele>1104.21</ele>
        <time>2014-06-30T13:13:34Z</time>
      </trkpt>
      <trkpt lat="44.75476" lon="3.06534">
        <ele>1101.33</ele>
        <time>2014-06-30T13:13:45Z</time>
      </trkpt>
      <trkpt lat="44.75466" lon="3.06518">
        <ele>1097.96</ele>
        <time>2014-06-30T13:14:01Z</time>
      </trkpt>
      <trkpt lat="44.75459" lon="3.06492">
        <ele>1096.04</ele>
        <time>2014-06-30T13:14:18Z</time>
      </trkpt>
      <trkpt lat="44.75448" lon="3.0648">
        <ele>1094.12</ele>
        <time>2014-06-30T13:14:33Z</time>
      </trkpt>
      <trkpt lat="44.75433" lon="3.06461">
        <ele>1091.23</ele>
        <time>2014-06-30T13:14:51Z</time>
      </trkpt>
      <trkpt lat="44.75428" lon="3.06444">
        <ele>1090.75</ele>
        <time>2014-06-30T13:14:56Z</time>
      </trkpt>
      <trkpt lat="44.75413" lon="3.06427">
        <ele>1087.87</ele>
        <time>2014-06-30T13:15:11Z</time>
      </trkpt>
      <trkpt lat="44.75398" lon="3.06404">
        <ele>1084.5</ele>
        <time>2014-06-30T13:15:29Z</time>
      </trkpt>
      <trkpt lat="44.75389" lon="3.06382">
        <ele>1082.58</ele>
        <time>2014-06-30T13:15:46Z</time>
      </trkpt>
      <trkpt lat="44.75379" lon="3.06363">
        <ele>1079.7</ele>
        <time>2014-06-30T13:16:05Z</time>
      </trkpt>
      <trkpt lat="44.75371" lon="3.06346">
        <ele>1077.78</ele>
        <time>2014-06-30T13:16:21Z</time>
      </trkpt>
      <trkpt lat="44.75366" lon="3.06331">
        <ele>1077.78</ele>
        <time>2014-06-30T13:16:25Z</time>
      </trkpt>
      <trkpt lat="44.75354" lon="3.06297">
        <ele>1077.29</ele>
        <time>2014-06-30T13:16:38Z</time>
      </trkpt>
      <trkpt lat="44.7535" lon="3.06272">
        <ele>1076.81</ele>
        <time>2014-06-30T13:16:51Z</time>
      </trkpt>
      <trkpt lat="44.75351" lon="3.0626">
        <ele>1076.81</ele>
        <time>2014-06-30T13:16:59Z</time>
      </trkpt>
      <trkpt lat="44.75362" lon="3.06238">
        <ele>1076.81</ele>
        <time>2014-06-30T13:17:16Z</time>
      </trkpt>
      <trkpt lat="44.75387" lon="3.06211">
        <ele>1075.85</ele>
        <time>2014-06-30T13:17:40Z</time>
      </trkpt>
      <trkpt lat="44.7539" lon="3.06208">
        <ele>1075.85</ele>
        <time>2014-06-30T13:17:42Z</time>
      </trkpt>
      <trkpt lat="44.75406" lon="3.06191">
        <ele>1075.37</ele>
        <time>2014-06-30T13:17:57Z</time>
      </trkpt>
      <trkpt lat="44.75416" lon="3.06182">
        <ele>1074.41</ele>
        <time>2014-06-30T13:18:10Z</time>
      </trkpt>
      <trkpt lat="44.75433" lon="3.0617">
        <ele>1074.41</ele>
        <time>2014-06-30T13:18:25Z</time>
      </trkpt>
      <trkpt lat="44.7545" lon="3.06154">
        <ele>1073.93</ele>
        <time>2014-06-30T13:18:39Z</time>
      </trkpt>
      <trkpt lat="44.75452" lon="3.06153">
        <ele>1073.93</ele>
        <time>2014-06-30T13:18:40Z</time>
      </trkpt>
      <trkpt lat="44.75467" lon="3.06134">
        <ele>1073.93</ele>
        <time>2014-06-30T13:18:55Z</time>
      </trkpt>
      <trkpt lat="44.75481" lon="3.06113">
        <ele>1073.45</ele>
        <time>2014-06-30T13:19:11Z</time>
      </trkpt>
      <trkpt lat="44.75484" lon="3.06105">
        <ele>1073.45</ele>
        <time>2014-06-30T13:19:16Z</time>
      </trkpt>
      <trkpt lat="44.75488" lon="3.061">
        <ele>1073.45</ele>
        <time>2014-06-30T13:19:19Z</time>
      </trkpt>
      <trkpt lat="44.75496" lon="3.06086">
        <ele>1073.45</ele>
        <time>2014-06-30T13:19:27Z</time>
      </trkpt>
      <trkpt lat="44.75502" lon="3.06069">
        <ele>1074.89</ele>
        <time>2014-06-30T13:19:38Z</time>
      </trkpt>
      <trkpt lat="44.75509" lon="3.06048">
        <ele>1075.85</ele>
        <time>2014-06-30T13:19:52Z</time>
      </trkpt>
      <trkpt lat="44.75514" lon="3.06034">
        <ele>1075.85</ele>
        <time>2014-06-30T13:20:01Z</time>
      </trkpt>
      <trkpt lat="44.75518" lon="3.06009">
        <ele>1076.33</ele>
        <time>2014-06-30T13:20:17Z</time>
      </trkpt>
      <trkpt lat="44.75517" lon="3.05999">
        <ele>1076.33</ele>
        <time>2014-06-30T13:20:24Z</time>
      </trkpt>
      <trkpt lat="44.75515" lon="3.05994">
        <ele>1076.33</ele>
        <time>2014-06-30T13:20:28Z</time>
      </trkpt>
      <trkpt lat="44.75509" lon="3.05969">
        <ele>1077.29</ele>
        <time>2014-06-30T13:20:43Z</time>
      </trkpt>
      <trkpt lat="44.75508" lon="3.05961">
        <ele>1077.29</ele>
        <time>2014-06-30T13:20:47Z</time>
      </trkpt>
      <trkpt lat="44.75499" lon="3.05927">
        <ele>1078.74</ele>
        <time>2014-06-30T13:21:05Z</time>
      </trkpt>
      <trkpt lat="44.75494" lon="3.0591">
        <ele>1079.7</ele>
        <time>2014-06-30T13:21:15Z</time>
      </trkpt>
      <trkpt lat="44.75489" lon="3.05893">
        <ele>1079.7</ele>
        <time>2014-06-30T13:21:25Z</time>
      </trkpt>
      <trkpt lat="44.75485" lon="3.05883">
        <ele>1079.7</ele>
        <time>2014-06-30T13:21:31Z</time>
      </trkpt>
      <trkpt lat="44.75477" lon="3.05871">
        <ele>1078.26</ele>
        <time>2014-06-30T13:21:41Z</time>
      </trkpt>
      <trkpt lat="44.75477" lon="3.05872">
        <ele>1079.7</ele>
        <time>2014-06-30T13:22:09Z</time>
      </trkpt>
      <trkpt lat="44.75478" lon="3.05867">
        <ele>1078.26</ele>
        <time>2014-06-30T13:22:16Z</time>
      </trkpt>
      <trkpt lat="44.7548" lon="3.05867">
        <ele>1078.26</ele>
        <time>2014-06-30T13:22:18Z</time>
      </trkpt>
      <trkpt lat="44.75489" lon="3.0587">
        <ele>1077.29</ele>
        <time>2014-06-30T13:22:31Z</time>
      </trkpt>
      <trkpt lat="44.75494" lon="3.05876">
        <ele>1076.81</ele>
        <time>2014-06-30T13:22:43Z</time>
      </trkpt>
      <trkpt lat="44.75494" lon="3.0588">
        <ele>1076.81</ele>
        <time>2014-06-30T13:23:10Z</time>
      </trkpt>
      <trkpt lat="44.75494" lon="3.05881">
        <ele>1076.81</ele>
        <time>2014-06-30T13:23:31Z</time>
      </trkpt>
      <trkpt lat="44.75494" lon="3.05881">
        <ele>1076.33</ele>
        <time>2014-06-30T13:23:57Z</time>
      </trkpt>
      <trkpt lat="44.75495" lon="3.05879">
        <ele>1076.33</ele>
        <time>2014-06-30T13:24:22Z</time>
      </trkpt>
      <trkpt lat="44.75495" lon="3.05879">
        <ele>1075.85</ele>
        <time>2014-06-30T13:24:24Z</time>
      </trkpt>
      <trkpt lat="44.75495" lon="3.05877">
        <ele>1075.85</ele>
        <time>2014-06-30T13:24:39Z</time>
      </trkpt>
      <trkpt lat="44.75493" lon="3.05877">
        <ele>1077.29</ele>
        <time>2014-06-30T13:24:49Z</time>
      </trkpt>
      <trkpt lat="44.75493" lon="3.05876">
        <ele>1077.29</ele>
        <time>2014-06-30T13:25:14Z</time>
      </trkpt>
      <trkpt lat="44.75491" lon="3.05873">
        <ele>1076.81</ele>
        <time>2014-06-30T13:25:58Z</time>
      </trkpt>
      <trkpt lat="44.75492" lon="3.05875">
        <ele>1076.81</ele>
        <time>2014-06-30T13:26:30Z</time>
      </trkpt>
      <trkpt lat="44.75494" lon="3.05875">
        <ele>1076.81</ele>
        <time>2014-06-30T13:26:52Z</time>
      </trkpt>
      <trkpt lat="44.75494" lon="3.05875">
        <ele>1076.81</ele>
        <time>2014-06-30T13:27:16Z</time>
      </trkpt>
      <trkpt lat="44.75493" lon="3.05873">
        <ele>1076.81</ele>
        <time>2014-06-30T13:27:32Z</time>
      </trkpt>
      <trkpt lat="44.75496" lon="3.05875">
        <ele>1076.81</ele>
        <time>2014-06-30T13:27:57Z</time>
      </trkpt>
      <trkpt lat="44.75498" lon="3.05875">
        <ele>1076.81</ele>
        <time>2014-06-30T13:28:02Z</time>
      </trkpt>
      <trkpt lat="44.75508" lon="3.0588">
        <ele>1075.37</ele>
        <time>2014-06-30T13:28:12Z</time>
      </trkpt>
      <trkpt lat="44.75511" lon="3.05882">
        <ele>1074.89</ele>
        <time>2014-06-30T13:28:15Z</time>
      </trkpt>
      <trkpt lat="44.75516" lon="3.05885">
        <ele>1074.89</ele>
        <time>2014-06-30T13:28:20Z</time>
      </trkpt>
      <trkpt lat="44.75531" lon="3.05899">
        <ele>1074.41</ele>
        <time>2014-06-30T13:28:36Z</time>
      </trkpt>
      <trkpt lat="44.75545" lon="3.05916">
        <ele>1072.97</ele>
        <time>2014-06-30T13:28:53Z</time>
      </trkpt>
      <trkpt lat="44.75561" lon="3.05935">
        <ele>1071.05</ele>
        <time>2014-06-30T13:29:12Z</time>
      </trkpt>
      <trkpt lat="44.75564" lon="3.05939">
        <ele>1070.57</ele>
        <time>2014-06-30T13:29:15Z</time>
      </trkpt>
      <trkpt lat="44.75578" lon="3.05954">
        <ele>1069.12</ele>
        <time>2014-06-30T13:29:31Z</time>
      </trkpt>
      <trkpt lat="44.75593" lon="3.0597">
        <ele>1067.68</ele>
        <time>2014-06-30T13:29:48Z</time>
      </trkpt>
      <trkpt lat="44.75602" lon="3.05991">
        <ele>1066.72</ele>
        <time>2014-06-30T13:30:04Z</time>
      </trkpt>
      <trkpt lat="44.75604" lon="3.05999">
        <ele>1065.76</ele>
        <time>2014-06-30T13:30:10Z</time>
      </trkpt>
      <trkpt lat="44.75614" lon="3.06016">
        <ele>1064.8</ele>
        <time>2014-06-30T13:30:26Z</time>
      </trkpt>
      <trkpt lat="44.75632" lon="3.06023">
        <ele>1062.87</ele>
        <time>2014-06-30T13:30:44Z</time>
      </trkpt>
      <trkpt lat="44.75653" lon="3.06028">
        <ele>1060.95</ele>
        <time>2014-06-30T13:31:02Z</time>
      </trkpt>
      <trkpt lat="44.7566" lon="3.06029">
        <ele>1060.47</ele>
        <time>2014-06-30T13:31:09Z</time>
      </trkpt>
      <trkpt lat="44.75665" lon="3.0603">
        <ele>1059.99</ele>
        <time>2014-06-30T13:31:13Z</time>
      </trkpt>
      <trkpt lat="44.75671" lon="3.06031">
        <ele>1059.99</ele>
        <time>2014-06-30T13:31:19Z</time>
      </trkpt>
      <trkpt lat="44.75693" lon="3.06031">
        <ele>1058.55</ele>
        <time>2014-06-30T13:31:36Z</time>
      </trkpt>
      <trkpt lat="44.75705" lon="3.06028">
        <ele>1056.63</ele>
        <time>2014-06-30T13:31:46Z</time>
      </trkpt>
      <trkpt lat="44.75726" lon="3.06019">
        <ele>1054.7</ele>
        <time>2014-06-30T13:32:04Z</time>
      </trkpt>
      <trkpt lat="44.75749" lon="3.06009">
        <ele>1052.78</ele>
        <time>2014-06-30T13:32:24Z</time>
      </trkpt>
      <trkpt lat="44.7577" lon="3.06005">
        <ele>1050.86</ele>
        <time>2014-06-30T13:32:41Z</time>
      </trkpt>
      <trkpt lat="44.75781" lon="3.06009">
        <ele>1049.9</ele>
        <time>2014-06-30T13:32:54Z</time>
      </trkpt>
      <trkpt lat="44.75787" lon="3.06011">
        <ele>1049.9</ele>
        <time>2014-06-30T13:33:00Z</time>
      </trkpt>
      <trkpt lat="44.75804" lon="3.06033">
        <ele>1049.42</ele>
        <time>2014-06-30T13:33:18Z</time>
      </trkpt>
      <trkpt lat="44.75806" lon="3.06038">
        <ele>1049.42</ele>
        <time>2014-06-30T13:33:21Z</time>
      </trkpt>
      <trkpt lat="44.75811" lon="3.06047">
        <ele>1049.9</ele>
        <time>2014-06-30T13:33:28Z</time>
      </trkpt>
      <trkpt lat="44.75825" lon="3.06067">
        <ele>1051.82</ele>
        <time>2014-06-30T13:33:44Z</time>
      </trkpt>
      <trkpt lat="44.75829" lon="3.06071">
        <ele>1052.78</ele>
        <time>2014-06-30T13:33:49Z</time>
      </trkpt>
      <trkpt lat="44.75831" lon="3.06071">
        <ele>1053.26</ele>
        <time>2014-06-30T13:33:51Z</time>
      </trkpt>
      <trkpt lat="44.75839" lon="3.06075">
        <ele>1054.22</ele>
        <time>2014-06-30T13:34:00Z</time>
      </trkpt>
      <trkpt lat="44.75853" lon="3.06076">
        <ele>1055.67</ele>
        <time>2014-06-30T13:34:14Z</time>
      </trkpt>
      <trkpt lat="44.75854" lon="3.06076">
        <ele>1055.67</ele>
        <time>2014-06-30T13:34:15Z</time>
      </trkpt>
      <trkpt lat="44.75867" lon="3.06075">
        <ele>1057.11</ele>
        <time>2014-06-30T13:34:29Z</time>
      </trkpt>
      <trkpt lat="44.7588" lon="3.06077">
        <ele>1058.07</ele>
        <time>2014-06-30T13:34:43Z</time>
      </trkpt>
      <trkpt lat="44.75895" lon="3.06081">
        <ele>1059.51</ele>
        <time>2014-06-30T13:34:57Z</time>
      </trkpt>
      <trkpt lat="44.75912" lon="3.06084">
        <ele>1060.47</ele>
        <time>2014-06-30T13:35:11Z</time>
      </trkpt>
      <trkpt lat="44.7592" lon="3.06085">
        <ele>1060.95</ele>
        <time>2014-06-30T13:35:19Z</time>
      </trkpt>
      <trkpt lat="44.75927" lon="3.06085">
        <ele>1060.95</ele>
        <time>2014-06-30T13:35:25Z</time>
      </trkpt>
      <trkpt lat="44.75939" lon="3.0609">
        <ele>1062.39</ele>
        <time>2014-06-30T13:35:36Z</time>
      </trkpt>
      <trkpt lat="44.75953" lon="3.06094">
        <ele>1062.39</ele>
        <time>2014-06-30T13:35:49Z</time>
      </trkpt>
      <trkpt lat="44.7597" lon="3.06099">
        <ele>1064.32</ele>
        <time>2014-06-30T13:36:06Z</time>
      </trkpt>
      <trkpt lat="44.75984" lon="3.06103">
        <ele>1064.8</ele>
        <time>2014-06-30T13:36:22Z</time>
      </trkpt>
      <trkpt lat="44.75992" lon="3.06104">
        <ele>1065.28</ele>
        <time>2014-06-30T13:36:30Z</time>
      </trkpt>
      <trkpt lat="44.76002" lon="3.06102">
        <ele>1065.28</ele>
        <time>2014-06-30T13:36:42Z</time>
      </trkpt>
      <trkpt lat="44.76016" lon="3.06101">
        <ele>1064.32</ele>
        <time>2014-06-30T13:36:59Z</time>
      </trkpt>
      <trkpt lat="44.76021" lon="3.06103">
        <ele>1064.32</ele>
        <time>2014-06-30T13:37:12Z</time>
      </trkpt>
      <trkpt lat="44.76025" lon="3.06102">
        <ele>1064.32</ele>
        <time>2014-06-30T13:37:28Z</time>
      </trkpt>
      <trkpt lat="44.7603" lon="3.06099">
        <ele>1064.32</ele>
        <time>2014-06-30T13:37:40Z</time>
      </trkpt>
      <trkpt lat="44.76033" lon="3.06099">
        <ele>1064.32</ele>
        <time>2014-06-30T13:37:51Z</time>
      </trkpt>
      <trkpt lat="44.76032" lon="3.06099">
        <ele>1064.32</ele>
        <time>2014-06-30T13:37:57Z</time>
      </trkpt>
      <trkpt lat="44.76034" lon="3.06094">
        <ele>1064.32</ele>
        <time>2014-06-30T13:38:01Z</time>
      </trkpt>
      <trkpt lat="44.76036" lon="3.0609">
        <ele>1064.32</ele>
        <time>2014-06-30T13:38:06Z</time>
      </trkpt>
      <trkpt lat="44.76038" lon="3.06079">
        <ele>1063.84</ele>
        <time>2014-06-30T13:38:14Z</time>
      </trkpt>
      <trkpt lat="44.7604" lon="3.06076">
        <ele>1064.32</ele>
        <time>2014-06-30T13:38:16Z</time>
      </trkpt>
      <trkpt lat="44.76041" lon="3.06073">
        <ele>1063.84</ele>
        <time>2014-06-30T13:38:23Z</time>
      </trkpt>
      <trkpt lat="44.76041" lon="3.06072">
        <ele>1063.84</ele>
        <time>2014-06-30T13:38:30Z</time>
      </trkpt>
      <trkpt lat="44.76043" lon="3.06067">
        <ele>1063.84</ele>
        <time>2014-06-30T13:38:34Z</time>
      </trkpt>
      <trkpt lat="44.76047" lon="3.0606">
        <ele>1063.84</ele>
        <time>2014-06-30T13:38:40Z</time>
      </trkpt>
      <trkpt lat="44.7605" lon="3.06054">
        <ele>1065.76</ele>
        <time>2014-06-30T13:38:45Z</time>
      </trkpt>
      <trkpt lat="44.76044" lon="3.06042">
        <ele>1067.68</ele>
        <time>2014-06-30T13:38:57Z</time>
      </trkpt>
      <trkpt lat="44.76044" lon="3.06041">
        <ele>1067.68</ele>
        <time>2014-06-30T13:38:58Z</time>
      </trkpt>
      <trkpt lat="44.76043" lon="3.06036">
        <ele>1067.68</ele>
        <time>2014-06-30T13:39:03Z</time>
      </trkpt>
      <trkpt lat="44.76036" lon="3.06021">
        <ele>1065.76</ele>
        <time>2014-06-30T13:39:19Z</time>
      </trkpt>
      <trkpt lat="44.76033" lon="3.06015">
        <ele>1065.28</ele>
        <time>2014-06-30T13:39:24Z</time>
      </trkpt>
      <trkpt lat="44.76032" lon="3.05993">
        <ele>1062.87</ele>
        <time>2014-06-30T13:39:42Z</time>
      </trkpt>
      <trkpt lat="44.7604" lon="3.05967">
        <ele>1061.43</ele>
        <time>2014-06-30T13:40:00Z</time>
      </trkpt>
      <trkpt lat="44.7605" lon="3.05943">
        <ele>1060.95</ele>
        <time>2014-06-30T13:40:17Z</time>
      </trkpt>
      <trkpt lat="44.76053" lon="3.05937">
        <ele>1060.95</ele>
        <time>2014-06-30T13:40:22Z</time>
      </trkpt>
      <trkpt lat="44.76056" lon="3.05933">
        <ele>1060.95</ele>
        <time>2014-06-30T13:40:25Z</time>
      </trkpt>
      <trkpt lat="44.76059" lon="3.05928">
        <ele>1060.95</ele>
        <time>2014-06-30T13:40:29Z</time>
      </trkpt>
      <trkpt lat="44.76071" lon="3.05908">
        <ele>1060.95</ele>
        <time>2014-06-30T13:40:45Z</time>
      </trkpt>
      <trkpt lat="44.76081" lon="3.0589">
        <ele>1060.95</ele>
        <time>2014-06-30T13:40:59Z</time>
      </trkpt>
      <trkpt lat="44.76093" lon="3.05874">
        <ele>1060.95</ele>
        <time>2014-06-30T13:41:13Z</time>
      </trkpt>
      <trkpt lat="44.76105" lon="3.05856">
        <ele>1060.95</ele>
        <time>2014-06-30T13:41:28Z</time>
      </trkpt>
      <trkpt lat="44.76107" lon="3.05853">
        <ele>1061.91</ele>
        <time>2014-06-30T13:41:30Z</time>
      </trkpt>
      <trkpt lat="44.76112" lon="3.05848">
        <ele>1061.91</ele>
        <time>2014-06-30T13:41:35Z</time>
      </trkpt>
      <trkpt lat="44.76125" lon="3.05833">
        <ele>1061.91</ele>
        <time>2014-06-30T13:41:49Z</time>
      </trkpt>
      <trkpt lat="44.76135" lon="3.0583">
        <ele>1060.95</ele>
        <time>2014-06-30T13:41:56Z</time>
      </trkpt>
      <trkpt lat="44.76157" lon="3.05831">
        <ele>1060.47</ele>
        <time>2014-06-30T13:42:13Z</time>
      </trkpt>
      <trkpt lat="44.76179" lon="3.05837">
        <ele>1059.51</ele>
        <time>2014-06-30T13:42:31Z</time>
      </trkpt>
      <trkpt lat="44.76196" lon="3.05841">
        <ele>1059.03</ele>
        <time>2014-06-30T13:42:45Z</time>
      </trkpt>
      <trkpt lat="44.76218" lon="3.05841">
        <ele>1057.11</ele>
        <time>2014-06-30T13:43:03Z</time>
      </trkpt>
      <trkpt lat="44.76224" lon="3.05841">
        <ele>1057.11</ele>
        <time>2014-06-30T13:43:08Z</time>
      </trkpt>
      <trkpt lat="44.76243" lon="3.05843">
        <ele>1056.15</ele>
        <time>2014-06-30T13:43:23Z</time>
      </trkpt>
      <trkpt lat="44.76251" lon="3.05844">
        <ele>1055.67</ele>
        <time>2014-06-30T13:43:30Z</time>
      </trkpt>
      <trkpt lat="44.76275" lon="3.0585">
        <ele>1054.7</ele>
        <time>2014-06-30T13:43:49Z</time>
      </trkpt>
      <trkpt lat="44.76294" lon="3.05853">
        <ele>1052.3</ele>
        <time>2014-06-30T13:44:04Z</time>
      </trkpt>
      <trkpt lat="44.7631" lon="3.05854">
        <ele>1049.9</ele>
        <time>2014-06-30T13:44:19Z</time>
      </trkpt>
      <trkpt lat="44.76324" lon="3.05844">
        <ele>1047.01</ele>
        <time>2014-06-30T13:44:34Z</time>
      </trkpt>
      <trkpt lat="44.76336" lon="3.05831">
        <ele>1044.13</ele>
        <time>2014-06-30T13:44:48Z</time>
      </trkpt>
      <trkpt lat="44.76353" lon="3.0582">
        <ele>1041.73</ele>
        <time>2014-06-30T13:45:05Z</time>
      </trkpt>
      <trkpt lat="44.76372" lon="3.05816">
        <ele>1039.32</ele>
        <time>2014-06-30T13:45:20Z</time>
      </trkpt>
      <trkpt lat="44.7638" lon="3.05815">
        <ele>1038.36</ele>
        <time>2014-06-30T13:45:27Z</time>
      </trkpt>
      <trkpt lat="44.76397" lon="3.05807">
        <ele>1036.92</ele>
        <time>2014-06-30T13:45:42Z</time>
      </trkpt>
      <trkpt lat="44.76407" lon="3.05786">
        <ele>1035.96</ele>
        <time>2014-06-30T13:45:58Z</time>
      </trkpt>
      <trkpt lat="44.76405" lon="3.05767">
        <ele>1035.48</ele>
        <time>2014-06-30T13:46:11Z</time>
      </trkpt>
      <trkpt lat="44.76397" lon="3.05746">
        <ele>1035</ele>
        <time>2014-06-30T13:46:26Z</time>
      </trkpt>
      <trkpt lat="44.76389" lon="3.05724">
        <ele>1034.04</ele>
        <time>2014-06-30T13:46:43Z</time>
      </trkpt>
      <trkpt lat="44.76389" lon="3.05699">
        <ele>1033.07</ele>
        <time>2014-06-30T13:46:58Z</time>
      </trkpt>
      <trkpt lat="44.76392" lon="3.05674">
        <ele>1031.63</ele>
        <time>2014-06-30T13:47:12Z</time>
      </trkpt>
      <trkpt lat="44.76394" lon="3.0565">
        <ele>1031.63</ele>
        <time>2014-06-30T13:47:25Z</time>
      </trkpt>
      <trkpt lat="44.76395" lon="3.05638">
        <ele>1031.63</ele>
        <time>2014-06-30T13:47:33Z</time>
      </trkpt>
      <trkpt lat="44.76396" lon="3.05617">
        <ele>1031.63</ele>
        <time>2014-06-30T13:47:48Z</time>
      </trkpt>
      <trkpt lat="44.76401" lon="3.05599">
        <ele>1031.63</ele>
        <time>2014-06-30T13:48:00Z</time>
      </trkpt>
      <trkpt lat="44.76411" lon="3.05572">
        <ele>1028.27</ele>
        <time>2014-06-30T13:48:16Z</time>
      </trkpt>
      <trkpt lat="44.76421" lon="3.05552">
        <ele>1025.86</ele>
        <time>2014-06-30T13:48:31Z</time>
      </trkpt>
      <trkpt lat="44.76445" lon="3.05542">
        <ele>1024.9</ele>
        <time>2014-06-30T13:48:45Z</time>
      </trkpt>
      <trkpt lat="44.76449" lon="3.05539">
        <ele>1024.9</ele>
        <time>2014-06-30T13:48:49Z</time>
      </trkpt>
      <trkpt lat="44.76451" lon="3.05536">
        <ele>1024.9</ele>
        <time>2014-06-30T13:48:51Z</time>
      </trkpt>
      <trkpt lat="44.76466" lon="3.0552">
        <ele>1024.42</ele>
        <time>2014-06-30T13:49:07Z</time>
      </trkpt>
      <trkpt lat="44.76477" lon="3.05518">
        <ele>1022.98</ele>
        <time>2014-06-30T13:49:17Z</time>
      </trkpt>
      <trkpt lat="44.76492" lon="3.05519">
        <ele>1022.98</ele>
        <time>2014-06-30T13:49:34Z</time>
      </trkpt>
      <trkpt lat="44.76492" lon="3.05522">
        <ele>1022.98</ele>
        <time>2014-06-30T13:50:02Z</time>
      </trkpt>
      <trkpt lat="44.76504" lon="3.05526">
        <ele>1024.9</ele>
        <time>2014-06-30T13:50:15Z</time>
      </trkpt>
      <trkpt lat="44.76507" lon="3.05526">
        <ele>1024.9</ele>
        <time>2014-06-30T13:50:18Z</time>
      </trkpt>
      <trkpt lat="44.76511" lon="3.05525">
        <ele>1026.34</ele>
        <time>2014-06-30T13:50:22Z</time>
      </trkpt>
      <trkpt lat="44.76513" lon="3.05522">
        <ele>1026.83</ele>
        <time>2014-06-30T13:50:26Z</time>
      </trkpt>
      <trkpt lat="44.7652" lon="3.05514">
        <ele>1028.27</ele>
        <time>2014-06-30T13:50:37Z</time>
      </trkpt>
      <trkpt lat="44.76522" lon="3.05512">
        <ele>1028.75</ele>
        <time>2014-06-30T13:50:40Z</time>
      </trkpt>
      <trkpt lat="44.7653" lon="3.05511">
        <ele>1029.71</ele>
        <time>2014-06-30T13:50:47Z</time>
      </trkpt>
      <trkpt lat="44.76537" lon="3.05511">
        <ele>1030.19</ele>
        <time>2014-06-30T13:50:54Z</time>
      </trkpt>
      <trkpt lat="44.76549" lon="3.05506">
        <ele>1031.63</ele>
        <time>2014-06-30T13:51:05Z</time>
      </trkpt>
      <trkpt lat="44.76552" lon="3.05504">
        <ele>1031.63</ele>
        <time>2014-06-30T13:51:08Z</time>
      </trkpt>
      <trkpt lat="44.76564" lon="3.05495">
        <ele>1033.07</ele>
        <time>2014-06-30T13:51:22Z</time>
      </trkpt>
      <trkpt lat="44.76573" lon="3.05489">
        <ele>1033.07</ele>
        <time>2014-06-30T13:51:31Z</time>
      </trkpt>
      <trkpt lat="44.76575" lon="3.05489">
        <ele>1033.07</ele>
        <time>2014-06-30T13:51:33Z</time>
      </trkpt>
      <trkpt lat="44.76587" lon="3.05485">
        <ele>1035</ele>
        <time>2014-06-30T13:51:44Z</time>
      </trkpt>
      <trkpt lat="44.76591" lon="3.05483">
        <ele>1035.96</ele>
        <time>2014-06-30T13:51:49Z</time>
      </trkpt>
      <trkpt lat="44.76593" lon="3.05482">
        <ele>1036.44</ele>
        <time>2014-06-30T13:51:51Z</time>
      </trkpt>
      <trkpt lat="44.76597" lon="3.05481">
        <ele>1036.92</ele>
        <time>2014-06-30T13:51:55Z</time>
      </trkpt>
      <trkpt lat="44.76608" lon="3.05484">
        <ele>1037.88</ele>
        <time>2014-06-30T13:52:08Z</time>
      </trkpt>
      <trkpt lat="44.76609" lon="3.05483">
        <ele>1037.88</ele>
        <time>2014-06-30T13:52:09Z</time>
      </trkpt>
      <trkpt lat="44.76612" lon="3.05485">
        <ele>1038.84</ele>
        <time>2014-06-30T13:52:24Z</time>
      </trkpt>
      <trkpt lat="44.76612" lon="3.05483">
        <ele>1038.84</ele>
        <time>2014-06-30T13:52:43Z</time>
      </trkpt>
      <trkpt lat="44.76613" lon="3.0548">
        <ele>1039.32</ele>
        <time>2014-06-30T13:53:07Z</time>
      </trkpt>
      <trkpt lat="44.76616" lon="3.05472">
        <ele>1037.88</ele>
        <time>2014-06-30T13:53:13Z</time>
      </trkpt>
      <trkpt lat="44.76632" lon="3.05445">
        <ele>1036.44</ele>
        <time>2014-06-30T13:53:32Z</time>
      </trkpt>
      <trkpt lat="44.76644" lon="3.05424">
        <ele>1035.48</ele>
        <time>2014-06-30T13:53:47Z</time>
      </trkpt>
      <trkpt lat="44.76642" lon="3.054">
        <ele>1035</ele>
        <time>2014-06-30T13:54:02Z</time>
      </trkpt>
      <trkpt lat="44.7664" lon="3.05394">
        <ele>1035</ele>
        <time>2014-06-30T13:54:06Z</time>
      </trkpt>
      <trkpt lat="44.76633" lon="3.0537">
        <ele>1035</ele>
        <time>2014-06-30T13:54:21Z</time>
      </trkpt>
      <trkpt lat="44.7663" lon="3.05355">
        <ele>1035</ele>
        <time>2014-06-30T13:54:31Z</time>
      </trkpt>
      <trkpt lat="44.76625" lon="3.05332">
        <ele>1035</ele>
        <time>2014-06-30T13:54:46Z</time>
      </trkpt>
      <trkpt lat="44.76625" lon="3.05326">
        <ele>1035</ele>
        <time>2014-06-30T13:54:50Z</time>
      </trkpt>
      <trkpt lat="44.76621" lon="3.05302">
        <ele>1035</ele>
        <time>2014-06-30T13:55:04Z</time>
      </trkpt>
      <trkpt lat="44.7662" lon="3.05273">
        <ele>1033.07</ele>
        <time>2014-06-30T13:55:21Z</time>
      </trkpt>
      <trkpt lat="44.76622" lon="3.05248">
        <ele>1031.63</ele>
        <time>2014-06-30T13:55:36Z</time>
      </trkpt>
      <trkpt lat="44.76614" lon="3.05231">
        <ele>1031.63</ele>
        <time>2014-06-30T13:55:49Z</time>
      </trkpt>
      <trkpt lat="44.76601" lon="3.05208">
        <ele>1030.67</ele>
        <time>2014-06-30T13:56:07Z</time>
      </trkpt>
      <trkpt lat="44.76599" lon="3.05204">
        <ele>1030.67</ele>
        <time>2014-06-30T13:56:12Z</time>
      </trkpt>
      <trkpt lat="44.76592" lon="3.05193">
        <ele>1030.19</ele>
        <time>2014-06-30T13:56:25Z</time>
      </trkpt>
      <trkpt lat="44.76583" lon="3.05177">
        <ele>1030.19</ele>
        <time>2014-06-30T13:56:38Z</time>
      </trkpt>
      <trkpt lat="44.76569" lon="3.05151">
        <ele>1029.23</ele>
        <time>2014-06-30T13:56:58Z</time>
      </trkpt>
      <trkpt lat="44.7657" lon="3.05144">
        <ele>1029.23</ele>
        <time>2014-06-30T13:57:03Z</time>
      </trkpt>
      <trkpt lat="44.76581" lon="3.05137">
        <ele>1029.23</ele>
        <time>2014-06-30T13:57:15Z</time>
      </trkpt>
      <trkpt lat="44.76595" lon="3.05128">
        <ele>1029.71</ele>
        <time>2014-06-30T13:57:29Z</time>
      </trkpt>
      <trkpt lat="44.76607" lon="3.05118">
        <ele>1030.67</ele>
        <time>2014-06-30T13:57:42Z</time>
      </trkpt>
      <trkpt lat="44.76621" lon="3.05104">
        <ele>1030.67</ele>
        <time>2014-06-30T13:57:58Z</time>
      </trkpt>
      <trkpt lat="44.76637" lon="3.05097">
        <ele>1030.67</ele>
        <time>2014-06-30T13:58:12Z</time>
      </trkpt>
      <trkpt lat="44.76646" lon="3.05091">
        <ele>1030.67</ele>
        <time>2014-06-30T13:58:21Z</time>
      </trkpt>
      <trkpt lat="44.76657" lon="3.05074">
        <ele>1029.23</ele>
        <time>2014-06-30T13:58:37Z</time>
      </trkpt>
      <trkpt lat="44.7667" lon="3.05058">
        <ele>1028.75</ele>
        <time>2014-06-30T13:58:52Z</time>
      </trkpt>
      <trkpt lat="44.76675" lon="3.05055">
        <ele>1028.75</ele>
        <time>2014-06-30T13:58:56Z</time>
      </trkpt>
      <trkpt lat="44.76679" lon="3.05053">
        <ele>1028.75</ele>
        <time>2014-06-30T13:59:00Z</time>
      </trkpt>
      <trkpt lat="44.76695" lon="3.05038">
        <ele>1028.27</ele>
        <time>2014-06-30T13:59:15Z</time>
      </trkpt>
      <trkpt lat="44.76708" lon="3.05026">
        <ele>1028.27</ele>
        <time>2014-06-30T13:59:28Z</time>
      </trkpt>
      <trkpt lat="44.76724" lon="3.05017">
        <ele>1028.27</ele>
        <time>2014-06-30T13:59:42Z</time>
      </trkpt>
      <trkpt lat="44.76733" lon="3.05014">
        <ele>1028.27</ele>
        <time>2014-06-30T13:59:50Z</time>
      </trkpt>
      <trkpt lat="44.76749" lon="3.05008">
        <ele>1027.79</ele>
        <time>2014-06-30T14:00:05Z</time>
      </trkpt>
      <trkpt lat="44.76766" lon="3.04999">
        <ele>1026.83</ele>
        <time>2014-06-30T14:00:20Z</time>
      </trkpt>
      <trkpt lat="44.76782" lon="3.0498">
        <ele>1026.34</ele>
        <time>2014-06-30T14:00:37Z</time>
      </trkpt>
      <trkpt lat="44.76793" lon="3.04964">
        <ele>1025.38</ele>
        <time>2014-06-30T14:00:50Z</time>
      </trkpt>
      <trkpt lat="44.76806" lon="3.04945">
        <ele>1024.42</ele>
        <time>2014-06-30T14:01:05Z</time>
      </trkpt>
      <trkpt lat="44.76815" lon="3.04933">
        <ele>1023.94</ele>
        <time>2014-06-30T14:01:15Z</time>
      </trkpt>
      <trkpt lat="44.76825" lon="3.04914">
        <ele>1022.98</ele>
        <time>2014-06-30T14:01:28Z</time>
      </trkpt>
      <trkpt lat="44.76836" lon="3.04887">
        <ele>1021.54</ele>
        <time>2014-06-30T14:01:45Z</time>
      </trkpt>
      <trkpt lat="44.76845" lon="3.04868">
        <ele>1021.54</ele>
        <time>2014-06-30T14:01:59Z</time>
      </trkpt>
      <trkpt lat="44.76851" lon="3.04847">
        <ele>1020.58</ele>
        <time>2014-06-30T14:02:13Z</time>
      </trkpt>
      <trkpt lat="44.76857" lon="3.04829">
        <ele>1020.58</ele>
        <time>2014-06-30T14:02:26Z</time>
      </trkpt>
      <trkpt lat="44.76866" lon="3.04806">
        <ele>1020.1</ele>
        <time>2014-06-30T14:02:41Z</time>
      </trkpt>
      <trkpt lat="44.76876" lon="3.04784">
        <ele>1019.62</ele>
        <time>2014-06-30T14:02:56Z</time>
      </trkpt>
      <trkpt lat="44.76897" lon="3.04756">
        <ele>1018.65</ele>
        <time>2014-06-30T14:03:18Z</time>
      </trkpt>
      <trkpt lat="44.76908" lon="3.04728">
        <ele>1016.25</ele>
        <time>2014-06-30T14:03:39Z</time>
      </trkpt>
      <trkpt lat="44.76909" lon="3.04726">
        <ele>1016.25</ele>
        <time>2014-06-30T14:03:41Z</time>
      </trkpt>
      <trkpt lat="44.76921" lon="3.04712">
        <ele>1013.85</ele>
        <time>2014-06-30T14:03:57Z</time>
      </trkpt>
      <trkpt lat="44.76933" lon="3.04694">
        <ele>1012.41</ele>
        <time>2014-06-30T14:04:14Z</time>
      </trkpt>
      <trkpt lat="44.76941" lon="3.04678">
        <ele>1010.96</ele>
        <time>2014-06-30T14:04:27Z</time>
      </trkpt>
      <trkpt lat="44.76942" lon="3.04657">
        <ele>1009.52</ele>
        <time>2014-06-30T14:04:43Z</time>
      </trkpt>
      <trkpt lat="44.76946" lon="3.04654">
        <ele>1009.52</ele>
        <time>2014-06-30T14:04:50Z</time>
      </trkpt>
      <trkpt lat="44.76968" lon="3.04659">
        <ele>1009.52</ele>
        <time>2014-06-30T14:05:09Z</time>
      </trkpt>
      <trkpt lat="44.76969" lon="3.04659">
        <ele>1009.52</ele>
        <time>2014-06-30T14:05:10Z</time>
      </trkpt>
      <trkpt lat="44.76971" lon="3.04659">
        <ele>1009.52</ele>
        <time>2014-06-30T14:05:12Z</time>
      </trkpt>
      <trkpt lat="44.76992" lon="3.04654">
        <ele>1009.04</ele>
        <time>2014-06-30T14:05:29Z</time>
      </trkpt>
      <trkpt lat="44.76998" lon="3.04651">
        <ele>1009.04</ele>
        <time>2014-06-30T14:05:34Z</time>
      </trkpt>
      <trkpt lat="44.77012" lon="3.04645">
        <ele>1009.04</ele>
        <time>2014-06-30T14:05:46Z</time>
      </trkpt>
      <trkpt lat="44.77033" lon="3.04635">
        <ele>1009.04</ele>
        <time>2014-06-30T14:06:05Z</time>
      </trkpt>
      <trkpt lat="44.77054" lon="3.04628">
        <ele>1009.04</ele>
        <time>2014-06-30T14:06:22Z</time>
      </trkpt>
      <trkpt lat="44.7707" lon="3.04618">
        <ele>1009.04</ele>
        <time>2014-06-30T14:06:37Z</time>
      </trkpt>
      <trkpt lat="44.77088" lon="3.04609">
        <ele>1009.04</ele>
        <time>2014-06-30T14:06:53Z</time>
      </trkpt>
      <trkpt lat="44.77105" lon="3.046">
        <ele>1009.04</ele>
        <time>2014-06-30T14:07:08Z</time>
      </trkpt>
      <trkpt lat="44.7711" lon="3.04598">
        <ele>1009.04</ele>
        <time>2014-06-30T14:07:12Z</time>
      </trkpt>
      <trkpt lat="44.77126" lon="3.04591">
        <ele>1009.04</ele>
        <time>2014-06-30T14:07:26Z</time>
      </trkpt>
      <trkpt lat="44.77136" lon="3.04589">
        <ele>1009.04</ele>
        <time>2014-06-30T14:07:39Z</time>
      </trkpt>
      <trkpt lat="44.77143" lon="3.04586">
        <ele>1009.04</ele>
        <time>2014-06-30T14:07:50Z</time>
      </trkpt>
      <trkpt lat="44.77148" lon="3.04585">
        <ele>1009.04</ele>
        <time>2014-06-30T14:07:54Z</time>
      </trkpt>
      <trkpt lat="44.77165" lon="3.04576">
        <ele>1009.04</ele>
        <time>2014-06-30T14:08:09Z</time>
      </trkpt>
      <trkpt lat="44.77169" lon="3.04576">
        <ele>1009.04</ele>
        <time>2014-06-30T14:08:13Z</time>
      </trkpt>
      <trkpt lat="44.77183" lon="3.04569">
        <ele>1009.04</ele>
        <time>2014-06-30T14:08:24Z</time>
      </trkpt>
      <trkpt lat="44.7719" lon="3.04564">
        <ele>1009.04</ele>
        <time>2014-06-30T14:08:30Z</time>
      </trkpt>
      <trkpt lat="44.77207" lon="3.04557">
        <ele>1009.04</ele>
        <time>2014-06-30T14:08:45Z</time>
      </trkpt>
      <trkpt lat="44.77223" lon="3.04548">
        <ele>1009.04</ele>
        <time>2014-06-30T14:09:00Z</time>
      </trkpt>
      <trkpt lat="44.77238" lon="3.04539">
        <ele>1010</ele>
        <time>2014-06-30T14:09:15Z</time>
      </trkpt>
      <trkpt lat="44.77256" lon="3.04531">
        <ele>1010</ele>
        <time>2014-06-30T14:09:30Z</time>
      </trkpt>
      <trkpt lat="44.7727" lon="3.0452">
        <ele>1010.48</ele>
        <time>2014-06-30T14:09:44Z</time>
      </trkpt>
      <trkpt lat="44.7728" lon="3.04508">
        <ele>1011.44</ele>
        <time>2014-06-30T14:09:57Z</time>
      </trkpt>
      <trkpt lat="44.77281" lon="3.04497">
        <ele>1011.93</ele>
        <time>2014-06-30T14:10:10Z</time>
      </trkpt>
      <trkpt lat="44.77275" lon="3.0448">
        <ele>1012.89</ele>
        <time>2014-06-30T14:10:24Z</time>
      </trkpt>
      <trkpt lat="44.77274" lon="3.04472">
        <ele>1012.89</ele>
        <time>2014-06-30T14:10:38Z</time>
      </trkpt>
      <trkpt lat="44.7728" lon="3.0447">
        <ele>1012.41</ele>
        <time>2014-06-30T14:10:58Z</time>
      </trkpt>
      <trkpt lat="44.7728" lon="3.04467">
        <ele>1011.93</ele>
        <time>2014-06-30T14:11:23Z</time>
      </trkpt>
      <trkpt lat="44.77279" lon="3.04467">
        <ele>1011.93</ele>
        <time>2014-06-30T14:11:50Z</time>
      </trkpt>
      <trkpt lat="44.77275" lon="3.0447">
        <ele>1011.93</ele>
        <time>2014-06-30T14:12:24Z</time>
      </trkpt>
      <trkpt lat="44.77273" lon="3.04473">
        <ele>1011.93</ele>
        <time>2014-06-30T14:12:59Z</time>
      </trkpt>
    </trkseg>
  </trk>
</gpx>